<?xml version="1.0" encoding="UTF-8" standalone="no" ?>
<gpx xmlns="http://www.topografix.com/GPX/1/1" xmlns:xsi="http://www.w3.org/2001/XMLSchema-instance" xsi:schemaLocation="http://www.topografix.com/GPX/1/1 http://www.topografix.com/GPX/1/1/gpx.xsd" version="1.1" creator="VisuGPX - https://www.visugpx.com">
  <metadata>
    <name>Boucle Fontaine de vaucluse</name>
  </metadata>
  <trk>
    <name><![CDATA[Boucle Fontaine de vaucluse]]></name>
    <trkseg>
      <trkpt lat="43.91955" lon="5.127">
        <ele>81.1</ele>
        <time>2015-11-15T08:36:36Z</time>
      </trkpt>
      <trkpt lat="43.91955" lon="5.127">
        <ele>81.1</ele>
        <time>2015-11-15T08:36:37Z</time>
      </trkpt>
      <trkpt lat="43.91945" lon="5.12693">
        <ele>81.3</ele>
        <time>2015-11-15T08:36:57Z</time>
      </trkpt>
      <trkpt lat="43.91947" lon="5.12706">
        <ele>81.4</ele>
        <time>2015-11-15T08:37:05Z</time>
      </trkpt>
      <trkpt lat="43.91938" lon="5.12712">
        <ele>81.4</ele>
        <time>2015-11-15T08:37:27Z</time>
      </trkpt>
      <trkpt lat="43.91943" lon="5.12723">
        <ele>81.6</ele>
        <time>2015-11-15T08:37:34Z</time>
      </trkpt>
      <trkpt lat="43.91947" lon="5.12736">
        <ele>81.7</ele>
        <time>2015-11-15T08:37:42Z</time>
      </trkpt>
      <trkpt lat="43.91953" lon="5.12746">
        <ele>81.8</ele>
        <time>2015-11-15T08:37:48Z</time>
      </trkpt>
      <trkpt lat="43.91958" lon="5.12757">
        <ele>81.8</ele>
        <time>2015-11-15T08:37:53Z</time>
      </trkpt>
      <trkpt lat="43.91958" lon="5.1277">
        <ele>81.8</ele>
        <time>2015-11-15T08:38:00Z</time>
      </trkpt>
      <trkpt lat="43.91949" lon="5.12765">
        <ele>82</ele>
        <time>2015-11-15T08:38:06Z</time>
      </trkpt>
      <trkpt lat="43.91944" lon="5.12753">
        <ele>82.4</ele>
        <time>2015-11-15T08:38:10Z</time>
      </trkpt>
      <trkpt lat="43.91936" lon="5.12744">
        <ele>83.4</ele>
        <time>2015-11-15T08:38:19Z</time>
      </trkpt>
      <trkpt lat="43.91929" lon="5.12735">
        <ele>84.4</ele>
        <time>2015-11-15T08:38:26Z</time>
      </trkpt>
      <trkpt lat="43.9192" lon="5.12736">
        <ele>85.3</ele>
        <time>2015-11-15T08:38:34Z</time>
      </trkpt>
      <trkpt lat="43.91914" lon="5.12724">
        <ele>86.1</ele>
        <time>2015-11-15T08:38:40Z</time>
      </trkpt>
      <trkpt lat="43.91907" lon="5.12715">
        <ele>87.2</ele>
        <time>2015-11-15T08:38:48Z</time>
      </trkpt>
      <trkpt lat="43.91898" lon="5.12712">
        <ele>88.6</ele>
        <time>2015-11-15T08:38:58Z</time>
      </trkpt>
      <trkpt lat="43.91891" lon="5.12703">
        <ele>89.9</ele>
        <time>2015-11-15T08:39:06Z</time>
      </trkpt>
      <trkpt lat="43.9189" lon="5.1269">
        <ele>90.7</ele>
        <time>2015-11-15T08:39:11Z</time>
      </trkpt>
      <trkpt lat="43.91898" lon="5.12683">
        <ele>91.8</ele>
        <time>2015-11-15T08:39:19Z</time>
      </trkpt>
      <trkpt lat="43.91889" lon="5.12693">
        <ele>94.9</ele>
        <time>2015-11-15T08:40:26Z</time>
      </trkpt>
      <trkpt lat="43.9188" lon="5.12691">
        <ele>94.9</ele>
        <time>2015-11-15T08:40:29Z</time>
      </trkpt>
      <trkpt lat="43.91871" lon="5.12686">
        <ele>95.2</ele>
        <time>2015-11-15T08:40:33Z</time>
      </trkpt>
      <trkpt lat="43.91866" lon="5.12674">
        <ele>96.2</ele>
        <time>2015-11-15T08:40:39Z</time>
      </trkpt>
      <trkpt lat="43.91856" lon="5.12675">
        <ele>97</ele>
        <time>2015-11-15T08:40:44Z</time>
      </trkpt>
      <trkpt lat="43.91848" lon="5.12669">
        <ele>97.8</ele>
        <time>2015-11-15T08:40:50Z</time>
      </trkpt>
      <trkpt lat="43.91838" lon="5.12667">
        <ele>98.4</ele>
        <time>2015-11-15T08:40:56Z</time>
      </trkpt>
      <trkpt lat="43.91828" lon="5.12671">
        <ele>98.9</ele>
        <time>2015-11-15T08:41:02Z</time>
      </trkpt>
      <trkpt lat="43.91818" lon="5.12678">
        <ele>99.3</ele>
        <time>2015-11-15T08:41:07Z</time>
      </trkpt>
      <trkpt lat="43.91809" lon="5.1268">
        <ele>99.9</ele>
        <time>2015-11-15T08:41:14Z</time>
      </trkpt>
      <trkpt lat="43.91802" lon="5.12669">
        <ele>103.1</ele>
        <time>2015-11-15T08:42:52Z</time>
      </trkpt>
      <trkpt lat="43.91792" lon="5.1267">
        <ele>103.2</ele>
        <time>2015-11-15T08:42:58Z</time>
      </trkpt>
      <trkpt lat="43.91782" lon="5.1267">
        <ele>103.2</ele>
        <time>2015-11-15T08:43:03Z</time>
      </trkpt>
      <trkpt lat="43.91772" lon="5.12673">
        <ele>103.3</ele>
        <time>2015-11-15T08:43:09Z</time>
      </trkpt>
      <trkpt lat="43.91761" lon="5.12675">
        <ele>103.5</ele>
        <time>2015-11-15T08:43:16Z</time>
      </trkpt>
      <trkpt lat="43.91752" lon="5.12675">
        <ele>103.8</ele>
        <time>2015-11-15T08:43:22Z</time>
      </trkpt>
      <trkpt lat="43.91743" lon="5.12671">
        <ele>104.3</ele>
        <time>2015-11-15T08:43:29Z</time>
      </trkpt>
      <trkpt lat="43.91734" lon="5.12671">
        <ele>104.8</ele>
        <time>2015-11-15T08:43:36Z</time>
      </trkpt>
      <trkpt lat="43.91725" lon="5.12671">
        <ele>105.1</ele>
        <time>2015-11-15T08:43:42Z</time>
      </trkpt>
      <trkpt lat="43.91714" lon="5.12673">
        <ele>105.4</ele>
        <time>2015-11-15T08:43:49Z</time>
      </trkpt>
      <trkpt lat="43.91704" lon="5.12676">
        <ele>105.8</ele>
        <time>2015-11-15T08:43:56Z</time>
      </trkpt>
      <trkpt lat="43.91695" lon="5.1268">
        <ele>106</ele>
        <time>2015-11-15T08:44:01Z</time>
      </trkpt>
      <trkpt lat="43.91686" lon="5.12682">
        <ele>106.2</ele>
        <time>2015-11-15T08:44:07Z</time>
      </trkpt>
      <trkpt lat="43.91676" lon="5.12686">
        <ele>106.4</ele>
        <time>2015-11-15T08:44:15Z</time>
      </trkpt>
      <trkpt lat="43.91665" lon="5.1269">
        <ele>106.5</ele>
        <time>2015-11-15T08:44:21Z</time>
      </trkpt>
      <trkpt lat="43.91656" lon="5.12691">
        <ele>106.8</ele>
        <time>2015-11-15T08:44:26Z</time>
      </trkpt>
      <trkpt lat="43.91647" lon="5.12693">
        <ele>107.1</ele>
        <time>2015-11-15T08:44:32Z</time>
      </trkpt>
      <trkpt lat="43.91637" lon="5.12693">
        <ele>107.5</ele>
        <time>2015-11-15T08:44:38Z</time>
      </trkpt>
      <trkpt lat="43.91628" lon="5.12694">
        <ele>107.7</ele>
        <time>2015-11-15T08:44:44Z</time>
      </trkpt>
      <trkpt lat="43.91618" lon="5.12694">
        <ele>108.2</ele>
        <time>2015-11-15T08:44:50Z</time>
      </trkpt>
      <trkpt lat="43.91609" lon="5.12695">
        <ele>108.6</ele>
        <time>2015-11-15T08:44:56Z</time>
      </trkpt>
      <trkpt lat="43.916" lon="5.12696">
        <ele>109</ele>
        <time>2015-11-15T08:45:02Z</time>
      </trkpt>
      <trkpt lat="43.9159" lon="5.12702">
        <ele>109.4</ele>
        <time>2015-11-15T08:45:08Z</time>
      </trkpt>
      <trkpt lat="43.91581" lon="5.12706">
        <ele>109.9</ele>
        <time>2015-11-15T08:45:14Z</time>
      </trkpt>
      <trkpt lat="43.91572" lon="5.12711">
        <ele>110.3</ele>
        <time>2015-11-15T08:45:21Z</time>
      </trkpt>
      <trkpt lat="43.91561" lon="5.12715">
        <ele>110.7</ele>
        <time>2015-11-15T08:45:27Z</time>
      </trkpt>
      <trkpt lat="43.91551" lon="5.12715">
        <ele>111.3</ele>
        <time>2015-11-15T08:45:33Z</time>
      </trkpt>
      <trkpt lat="43.91542" lon="5.12719">
        <ele>111.7</ele>
        <time>2015-11-15T08:45:39Z</time>
      </trkpt>
      <trkpt lat="43.91533" lon="5.12719">
        <ele>112.3</ele>
        <time>2015-11-15T08:45:45Z</time>
      </trkpt>
      <trkpt lat="43.91524" lon="5.12716">
        <ele>112.7</ele>
        <time>2015-11-15T08:45:51Z</time>
      </trkpt>
      <trkpt lat="43.91515" lon="5.12713">
        <ele>113</ele>
        <time>2015-11-15T08:45:57Z</time>
      </trkpt>
      <trkpt lat="43.91505" lon="5.12707">
        <ele>113.1</ele>
        <time>2015-11-15T08:46:01Z</time>
      </trkpt>
      <trkpt lat="43.91495" lon="5.12702">
        <ele>113.3</ele>
        <time>2015-11-15T08:46:07Z</time>
      </trkpt>
      <trkpt lat="43.91484" lon="5.127">
        <ele>113.5</ele>
        <time>2015-11-15T08:46:14Z</time>
      </trkpt>
      <trkpt lat="43.91474" lon="5.12696">
        <ele>113.8</ele>
        <time>2015-11-15T08:46:21Z</time>
      </trkpt>
      <trkpt lat="43.91465" lon="5.12697">
        <ele>113.9</ele>
        <time>2015-11-15T08:46:27Z</time>
      </trkpt>
      <trkpt lat="43.91457" lon="5.12705">
        <ele>114.2</ele>
        <time>2015-11-15T08:46:34Z</time>
      </trkpt>
      <trkpt lat="43.91448" lon="5.12712">
        <ele>114.5</ele>
        <time>2015-11-15T08:46:40Z</time>
      </trkpt>
      <trkpt lat="43.9144" lon="5.12717">
        <ele>114.7</ele>
        <time>2015-11-15T08:46:46Z</time>
      </trkpt>
      <trkpt lat="43.91431" lon="5.12724">
        <ele>114.9</ele>
        <time>2015-11-15T08:46:52Z</time>
      </trkpt>
      <trkpt lat="43.91422" lon="5.12728">
        <ele>115.2</ele>
        <time>2015-11-15T08:46:58Z</time>
      </trkpt>
      <trkpt lat="43.91414" lon="5.12734">
        <ele>115.6</ele>
        <time>2015-11-15T08:47:04Z</time>
      </trkpt>
      <trkpt lat="43.91406" lon="5.12742">
        <ele>115.9</ele>
        <time>2015-11-15T08:47:10Z</time>
      </trkpt>
      <trkpt lat="43.91397" lon="5.12747">
        <ele>116.2</ele>
        <time>2015-11-15T08:47:16Z</time>
      </trkpt>
      <trkpt lat="43.91389" lon="5.12756">
        <ele>116.5</ele>
        <time>2015-11-15T08:47:23Z</time>
      </trkpt>
      <trkpt lat="43.9138" lon="5.12762">
        <ele>117</ele>
        <time>2015-11-15T08:47:29Z</time>
      </trkpt>
      <trkpt lat="43.91371" lon="5.12763">
        <ele>117.5</ele>
        <time>2015-11-15T08:47:35Z</time>
      </trkpt>
      <trkpt lat="43.91362" lon="5.12773">
        <ele>118.1</ele>
        <time>2015-11-15T08:47:41Z</time>
      </trkpt>
      <trkpt lat="43.91354" lon="5.12782">
        <ele>118.7</ele>
        <time>2015-11-15T08:47:46Z</time>
      </trkpt>
      <trkpt lat="43.9135" lon="5.12795">
        <ele>120.4</ele>
        <time>2015-11-15T08:48:05Z</time>
      </trkpt>
      <trkpt lat="43.91351" lon="5.12808">
        <ele>120.5</ele>
        <time>2015-11-15T08:48:09Z</time>
      </trkpt>
      <trkpt lat="43.91346" lon="5.12821">
        <ele>119.8</ele>
        <time>2015-11-15T08:48:52Z</time>
      </trkpt>
      <trkpt lat="43.91342" lon="5.12809">
        <ele>121.9</ele>
        <time>2015-11-15T08:49:37Z</time>
      </trkpt>
      <trkpt lat="43.9135" lon="5.12817">
        <ele>121.9</ele>
        <time>2015-11-15T08:50:16Z</time>
      </trkpt>
      <trkpt lat="43.91358" lon="5.12824">
        <ele>121.8</ele>
        <time>2015-11-15T08:50:24Z</time>
      </trkpt>
      <trkpt lat="43.91364" lon="5.12836">
        <ele>121.9</ele>
        <time>2015-11-15T08:50:31Z</time>
      </trkpt>
      <trkpt lat="43.91366" lon="5.12849">
        <ele>122.1</ele>
        <time>2015-11-15T08:50:38Z</time>
      </trkpt>
      <trkpt lat="43.9137" lon="5.12862">
        <ele>122.5</ele>
        <time>2015-11-15T08:50:45Z</time>
      </trkpt>
      <trkpt lat="43.91375" lon="5.12872">
        <ele>123.1</ele>
        <time>2015-11-15T08:50:53Z</time>
      </trkpt>
      <trkpt lat="43.91377" lon="5.12885">
        <ele>123.7</ele>
        <time>2015-11-15T08:50:59Z</time>
      </trkpt>
      <trkpt lat="43.9138" lon="5.129">
        <ele>124.5</ele>
        <time>2015-11-15T08:51:06Z</time>
      </trkpt>
      <trkpt lat="43.91386" lon="5.1291">
        <ele>125.1</ele>
        <time>2015-11-15T08:51:13Z</time>
      </trkpt>
      <trkpt lat="43.91392" lon="5.12921">
        <ele>125.9</ele>
        <time>2015-11-15T08:51:19Z</time>
      </trkpt>
      <trkpt lat="43.91401" lon="5.12926">
        <ele>126.8</ele>
        <time>2015-11-15T08:51:25Z</time>
      </trkpt>
      <trkpt lat="43.91408" lon="5.12934">
        <ele>127.5</ele>
        <time>2015-11-15T08:51:31Z</time>
      </trkpt>
      <trkpt lat="43.91416" lon="5.12941">
        <ele>128.4</ele>
        <time>2015-11-15T08:51:38Z</time>
      </trkpt>
      <trkpt lat="43.91422" lon="5.1295">
        <ele>129.3</ele>
        <time>2015-11-15T08:51:45Z</time>
      </trkpt>
      <trkpt lat="43.91426" lon="5.12965">
        <ele>130.7</ele>
        <time>2015-11-15T08:51:50Z</time>
      </trkpt>
      <trkpt lat="43.91431" lon="5.12978">
        <ele>131.8</ele>
        <time>2015-11-15T08:51:57Z</time>
      </trkpt>
      <trkpt lat="43.91439" lon="5.12987">
        <ele>132.6</ele>
        <time>2015-11-15T08:52:04Z</time>
      </trkpt>
      <trkpt lat="43.91445" lon="5.12997">
        <ele>133.4</ele>
        <time>2015-11-15T08:52:10Z</time>
      </trkpt>
      <trkpt lat="43.91448" lon="5.13009">
        <ele>134.6</ele>
        <time>2015-11-15T08:52:20Z</time>
      </trkpt>
      <trkpt lat="43.91452" lon="5.13021">
        <ele>136.2</ele>
        <time>2015-11-15T08:52:32Z</time>
      </trkpt>
      <trkpt lat="43.91458" lon="5.13031">
        <ele>137.5</ele>
        <time>2015-11-15T08:52:41Z</time>
      </trkpt>
      <trkpt lat="43.91461" lon="5.13044">
        <ele>138.6</ele>
        <time>2015-11-15T08:52:49Z</time>
      </trkpt>
      <trkpt lat="43.91457" lon="5.13056">
        <ele>139.7</ele>
        <time>2015-11-15T08:52:56Z</time>
      </trkpt>
      <trkpt lat="43.91454" lon="5.13069">
        <ele>141.5</ele>
        <time>2015-11-15T08:53:07Z</time>
      </trkpt>
      <trkpt lat="43.91453" lon="5.13082">
        <ele>143.4</ele>
        <time>2015-11-15T08:53:16Z</time>
      </trkpt>
      <trkpt lat="43.91456" lon="5.13097">
        <ele>144.9</ele>
        <time>2015-11-15T08:53:26Z</time>
      </trkpt>
      <trkpt lat="43.91458" lon="5.1311">
        <ele>145.7</ele>
        <time>2015-11-15T08:53:31Z</time>
      </trkpt>
      <trkpt lat="43.9146" lon="5.13123">
        <ele>147.1</ele>
        <time>2015-11-15T08:53:39Z</time>
      </trkpt>
      <trkpt lat="43.91461" lon="5.13136">
        <ele>148.7</ele>
        <time>2015-11-15T08:53:48Z</time>
      </trkpt>
      <trkpt lat="43.91466" lon="5.13148">
        <ele>149.8</ele>
        <time>2015-11-15T08:53:55Z</time>
      </trkpt>
      <trkpt lat="43.91468" lon="5.13161">
        <ele>150.7</ele>
        <time>2015-11-15T08:54:00Z</time>
      </trkpt>
      <trkpt lat="43.91473" lon="5.13173">
        <ele>151.8</ele>
        <time>2015-11-15T08:54:07Z</time>
      </trkpt>
      <trkpt lat="43.91478" lon="5.13184">
        <ele>153.8</ele>
        <time>2015-11-15T08:54:17Z</time>
      </trkpt>
      <trkpt lat="43.91486" lon="5.1319">
        <ele>154.9</ele>
        <time>2015-11-15T08:54:23Z</time>
      </trkpt>
      <trkpt lat="43.91494" lon="5.13198">
        <ele>156.1</ele>
        <time>2015-11-15T08:54:29Z</time>
      </trkpt>
      <trkpt lat="43.91497" lon="5.1321">
        <ele>157.3</ele>
        <time>2015-11-15T08:54:35Z</time>
      </trkpt>
      <trkpt lat="43.91499" lon="5.13223">
        <ele>158.8</ele>
        <time>2015-11-15T08:54:42Z</time>
      </trkpt>
      <trkpt lat="43.915" lon="5.13237">
        <ele>160.5</ele>
        <time>2015-11-15T08:54:49Z</time>
      </trkpt>
      <trkpt lat="43.91502" lon="5.1325">
        <ele>162.1</ele>
        <time>2015-11-15T08:54:55Z</time>
      </trkpt>
      <trkpt lat="43.91509" lon="5.13259">
        <ele>163.5</ele>
        <time>2015-11-15T08:55:00Z</time>
      </trkpt>
      <trkpt lat="43.91512" lon="5.13272">
        <ele>165.2</ele>
        <time>2015-11-15T08:55:06Z</time>
      </trkpt>
      <trkpt lat="43.91516" lon="5.13284">
        <ele>168</ele>
        <time>2015-11-15T08:55:16Z</time>
      </trkpt>
      <trkpt lat="43.9152" lon="5.13296">
        <ele>170.5</ele>
        <time>2015-11-15T08:55:25Z</time>
      </trkpt>
      <trkpt lat="43.91523" lon="5.13307">
        <ele>173</ele>
        <time>2015-11-15T08:55:34Z</time>
      </trkpt>
      <trkpt lat="43.91524" lon="5.13321">
        <ele>175.1</ele>
        <time>2015-11-15T08:55:42Z</time>
      </trkpt>
      <trkpt lat="43.91524" lon="5.13335">
        <ele>176.7</ele>
        <time>2015-11-15T08:55:48Z</time>
      </trkpt>
      <trkpt lat="43.91523" lon="5.13348">
        <ele>178.3</ele>
        <time>2015-11-15T08:55:53Z</time>
      </trkpt>
      <trkpt lat="43.91527" lon="5.1336">
        <ele>180.5</ele>
        <time>2015-11-15T08:56:00Z</time>
      </trkpt>
      <trkpt lat="43.91527" lon="5.13373">
        <ele>182.8</ele>
        <time>2015-11-15T08:56:08Z</time>
      </trkpt>
      <trkpt lat="43.91532" lon="5.13385">
        <ele>184.7</ele>
        <time>2015-11-15T08:56:16Z</time>
      </trkpt>
      <trkpt lat="43.91541" lon="5.13387">
        <ele>186.4</ele>
        <time>2015-11-15T08:56:24Z</time>
      </trkpt>
      <trkpt lat="43.91551" lon="5.13387">
        <ele>188</ele>
        <time>2015-11-15T08:56:32Z</time>
      </trkpt>
      <trkpt lat="43.91563" lon="5.1339">
        <ele>188.9</ele>
        <time>2015-11-15T08:56:36Z</time>
      </trkpt>
      <trkpt lat="43.91572" lon="5.1339">
        <ele>189.9</ele>
        <time>2015-11-15T08:56:40Z</time>
      </trkpt>
      <trkpt lat="43.91579" lon="5.13401">
        <ele>191.6</ele>
        <time>2015-11-15T08:56:48Z</time>
      </trkpt>
      <trkpt lat="43.91583" lon="5.13414">
        <ele>193.5</ele>
        <time>2015-11-15T08:56:56Z</time>
      </trkpt>
      <trkpt lat="43.91588" lon="5.13426">
        <ele>194.9</ele>
        <time>2015-11-15T08:57:02Z</time>
      </trkpt>
      <trkpt lat="43.91594" lon="5.13439">
        <ele>196.6</ele>
        <time>2015-11-15T08:57:09Z</time>
      </trkpt>
      <trkpt lat="43.91601" lon="5.13448">
        <ele>198.1</ele>
        <time>2015-11-15T08:57:15Z</time>
      </trkpt>
      <trkpt lat="43.91604" lon="5.13461">
        <ele>200.2</ele>
        <time>2015-11-15T08:57:23Z</time>
      </trkpt>
      <trkpt lat="43.91594" lon="5.13464">
        <ele>202.5</ele>
        <time>2015-11-15T08:57:32Z</time>
      </trkpt>
      <trkpt lat="43.91586" lon="5.13468">
        <ele>204.9</ele>
        <time>2015-11-15T08:57:43Z</time>
      </trkpt>
      <trkpt lat="43.91576" lon="5.13464">
        <ele>206.2</ele>
        <time>2015-11-15T08:57:48Z</time>
      </trkpt>
      <trkpt lat="43.91567" lon="5.13459">
        <ele>206.9</ele>
        <time>2015-11-15T08:57:51Z</time>
      </trkpt>
      <trkpt lat="43.91558" lon="5.13454">
        <ele>208.3</ele>
        <time>2015-11-15T08:57:57Z</time>
      </trkpt>
      <trkpt lat="43.91554" lon="5.13465">
        <ele>210.5</ele>
        <time>2015-11-15T08:58:08Z</time>
      </trkpt>
      <trkpt lat="43.91562" lon="5.13474">
        <ele>211.9</ele>
        <time>2015-11-15T08:58:15Z</time>
      </trkpt>
      <trkpt lat="43.9157" lon="5.13481">
        <ele>212.9</ele>
        <time>2015-11-15T08:58:20Z</time>
      </trkpt>
      <trkpt lat="43.9158" lon="5.13486">
        <ele>214.7</ele>
        <time>2015-11-15T08:58:28Z</time>
      </trkpt>
      <trkpt lat="43.91589" lon="5.13491">
        <ele>217.2</ele>
        <time>2015-11-15T08:58:37Z</time>
      </trkpt>
      <trkpt lat="43.91598" lon="5.13496">
        <ele>218.9</ele>
        <time>2015-11-15T08:58:43Z</time>
      </trkpt>
      <trkpt lat="43.91606" lon="5.13504">
        <ele>221.5</ele>
        <time>2015-11-15T08:58:53Z</time>
      </trkpt>
      <trkpt lat="43.91603" lon="5.13517">
        <ele>223.4</ele>
        <time>2015-11-15T08:59:01Z</time>
      </trkpt>
      <trkpt lat="43.91606" lon="5.1353">
        <ele>225.2</ele>
        <time>2015-11-15T08:59:09Z</time>
      </trkpt>
      <trkpt lat="43.91611" lon="5.13541">
        <ele>227.3</ele>
        <time>2015-11-15T08:59:20Z</time>
      </trkpt>
      <trkpt lat="43.91619" lon="5.13549">
        <ele>228.6</ele>
        <time>2015-11-15T08:59:28Z</time>
      </trkpt>
      <trkpt lat="43.91629" lon="5.13556">
        <ele>229.3</ele>
        <time>2015-11-15T08:59:32Z</time>
      </trkpt>
      <trkpt lat="43.91638" lon="5.13562">
        <ele>229.9</ele>
        <time>2015-11-15T08:59:36Z</time>
      </trkpt>
      <trkpt lat="43.91645" lon="5.13572">
        <ele>231.1</ele>
        <time>2015-11-15T08:59:43Z</time>
      </trkpt>
      <trkpt lat="43.91647" lon="5.13584">
        <ele>232.2</ele>
        <time>2015-11-15T08:59:49Z</time>
      </trkpt>
      <trkpt lat="43.91656" lon="5.13588">
        <ele>233</ele>
        <time>2015-11-15T08:59:53Z</time>
      </trkpt>
      <trkpt lat="43.91665" lon="5.13593">
        <ele>234.3</ele>
        <time>2015-11-15T09:00:00Z</time>
      </trkpt>
      <trkpt lat="43.91674" lon="5.13598">
        <ele>235.5</ele>
        <time>2015-11-15T09:00:05Z</time>
      </trkpt>
      <trkpt lat="43.91685" lon="5.13602">
        <ele>236.4</ele>
        <time>2015-11-15T09:00:09Z</time>
      </trkpt>
      <trkpt lat="43.91695" lon="5.13602">
        <ele>237.2</ele>
        <time>2015-11-15T09:00:12Z</time>
      </trkpt>
      <trkpt lat="43.91705" lon="5.13605">
        <ele>238.6</ele>
        <time>2015-11-15T09:00:18Z</time>
      </trkpt>
      <trkpt lat="43.91714" lon="5.13605">
        <ele>240.1</ele>
        <time>2015-11-15T09:00:25Z</time>
      </trkpt>
      <trkpt lat="43.91719" lon="5.13617">
        <ele>241.6</ele>
        <time>2015-11-15T09:00:32Z</time>
      </trkpt>
      <trkpt lat="43.91724" lon="5.13629">
        <ele>243.4</ele>
        <time>2015-11-15T09:00:41Z</time>
      </trkpt>
      <trkpt lat="43.91728" lon="5.13642">
        <ele>244.9</ele>
        <time>2015-11-15T09:00:48Z</time>
      </trkpt>
      <trkpt lat="43.91726" lon="5.13656">
        <ele>246.4</ele>
        <time>2015-11-15T09:00:56Z</time>
      </trkpt>
      <trkpt lat="43.91724" lon="5.13669">
        <ele>248.2</ele>
        <time>2015-11-15T09:01:07Z</time>
      </trkpt>
      <trkpt lat="43.91727" lon="5.13681">
        <ele>249.7</ele>
        <time>2015-11-15T09:01:14Z</time>
      </trkpt>
      <trkpt lat="43.9173" lon="5.13694">
        <ele>251</ele>
        <time>2015-11-15T09:01:23Z</time>
      </trkpt>
      <trkpt lat="43.91731" lon="5.13707">
        <ele>252.2</ele>
        <time>2015-11-15T09:01:35Z</time>
      </trkpt>
      <trkpt lat="43.91732" lon="5.1372">
        <ele>253</ele>
        <time>2015-11-15T09:01:43Z</time>
      </trkpt>
      <trkpt lat="43.9173" lon="5.13733">
        <ele>254</ele>
        <time>2015-11-15T09:01:51Z</time>
      </trkpt>
      <trkpt lat="43.91727" lon="5.13744">
        <ele>255.1</ele>
        <time>2015-11-15T09:01:58Z</time>
      </trkpt>
      <trkpt lat="43.91724" lon="5.13758">
        <ele>256</ele>
        <time>2015-11-15T09:02:06Z</time>
      </trkpt>
      <trkpt lat="43.91721" lon="5.1377">
        <ele>258.3</ele>
        <time>2015-11-15T09:02:15Z</time>
      </trkpt>
      <trkpt lat="43.91711" lon="5.13771">
        <ele>260.2</ele>
        <time>2015-11-15T09:02:25Z</time>
      </trkpt>
      <trkpt lat="43.91701" lon="5.13776">
        <ele>261.5</ele>
        <time>2015-11-15T09:02:32Z</time>
      </trkpt>
      <trkpt lat="43.91692" lon="5.1378">
        <ele>262.4</ele>
        <time>2015-11-15T09:02:36Z</time>
      </trkpt>
      <trkpt lat="43.91686" lon="5.1379">
        <ele>264.5</ele>
        <time>2015-11-15T09:02:46Z</time>
      </trkpt>
      <trkpt lat="43.91683" lon="5.13802">
        <ele>266.1</ele>
        <time>2015-11-15T09:02:54Z</time>
      </trkpt>
      <trkpt lat="43.91678" lon="5.13813">
        <ele>267.2</ele>
        <time>2015-11-15T09:03:00Z</time>
      </trkpt>
      <trkpt lat="43.91677" lon="5.13826">
        <ele>268.4</ele>
        <time>2015-11-15T09:03:07Z</time>
      </trkpt>
      <trkpt lat="43.91673" lon="5.13837">
        <ele>269.6</ele>
        <time>2015-11-15T09:03:15Z</time>
      </trkpt>
      <trkpt lat="43.91668" lon="5.13849">
        <ele>271</ele>
        <time>2015-11-15T09:03:23Z</time>
      </trkpt>
      <trkpt lat="43.91659" lon="5.13855">
        <ele>272.1</ele>
        <time>2015-11-15T09:03:29Z</time>
      </trkpt>
      <trkpt lat="43.91648" lon="5.13859">
        <ele>273</ele>
        <time>2015-11-15T09:03:34Z</time>
      </trkpt>
      <trkpt lat="43.91639" lon="5.13865">
        <ele>273.7</ele>
        <time>2015-11-15T09:03:37Z</time>
      </trkpt>
      <trkpt lat="43.91636" lon="5.13877">
        <ele>275.6</ele>
        <time>2015-11-15T09:03:46Z</time>
      </trkpt>
      <trkpt lat="43.91642" lon="5.13888">
        <ele>278.2</ele>
        <time>2015-11-15T09:03:59Z</time>
      </trkpt>
      <trkpt lat="43.91643" lon="5.13901">
        <ele>280.2</ele>
        <time>2015-11-15T09:04:10Z</time>
      </trkpt>
      <trkpt lat="43.91642" lon="5.13913">
        <ele>283.6</ele>
        <time>2015-11-15T09:04:32Z</time>
      </trkpt>
      <trkpt lat="43.91655" lon="5.13922">
        <ele>285.5</ele>
        <time>2015-11-15T09:04:51Z</time>
      </trkpt>
      <trkpt lat="43.91663" lon="5.13929">
        <ele>286.2</ele>
        <time>2015-11-15T09:04:55Z</time>
      </trkpt>
      <trkpt lat="43.91671" lon="5.13932">
        <ele>287.6</ele>
        <time>2015-11-15T09:05:03Z</time>
      </trkpt>
      <trkpt lat="43.91679" lon="5.1394">
        <ele>289.5</ele>
        <time>2015-11-15T09:05:12Z</time>
      </trkpt>
      <trkpt lat="43.91682" lon="5.13952">
        <ele>291.3</ele>
        <time>2015-11-15T09:05:21Z</time>
      </trkpt>
      <trkpt lat="43.91688" lon="5.13964">
        <ele>294.1</ele>
        <time>2015-11-15T09:05:34Z</time>
      </trkpt>
      <trkpt lat="43.9169" lon="5.13978">
        <ele>296.5</ele>
        <time>2015-11-15T09:05:55Z</time>
      </trkpt>
      <trkpt lat="43.91693" lon="5.13992">
        <ele>297.8</ele>
        <time>2015-11-15T09:06:17Z</time>
      </trkpt>
      <trkpt lat="43.91699" lon="5.14004">
        <ele>298.6</ele>
        <time>2015-11-15T09:06:25Z</time>
      </trkpt>
      <trkpt lat="43.91705" lon="5.14015">
        <ele>299.4</ele>
        <time>2015-11-15T09:06:35Z</time>
      </trkpt>
      <trkpt lat="43.91712" lon="5.14024">
        <ele>299.8</ele>
        <time>2015-11-15T09:06:42Z</time>
      </trkpt>
      <trkpt lat="43.91719" lon="5.14034">
        <ele>300.7</ele>
        <time>2015-11-15T09:06:51Z</time>
      </trkpt>
      <trkpt lat="43.91725" lon="5.14044">
        <ele>301.3</ele>
        <time>2015-11-15T09:06:57Z</time>
      </trkpt>
      <trkpt lat="43.91731" lon="5.14055">
        <ele>301.8</ele>
        <time>2015-11-15T09:07:04Z</time>
      </trkpt>
      <trkpt lat="43.91733" lon="5.14068">
        <ele>302.1</ele>
        <time>2015-11-15T09:07:10Z</time>
      </trkpt>
      <trkpt lat="43.91729" lon="5.14081">
        <ele>302.5</ele>
        <time>2015-11-15T09:07:17Z</time>
      </trkpt>
      <trkpt lat="43.91723" lon="5.14092">
        <ele>303.1</ele>
        <time>2015-11-15T09:07:25Z</time>
      </trkpt>
      <trkpt lat="43.91718" lon="5.14103">
        <ele>303.4</ele>
        <time>2015-11-15T09:07:31Z</time>
      </trkpt>
      <trkpt lat="43.91713" lon="5.14116">
        <ele>303.9</ele>
        <time>2015-11-15T09:07:38Z</time>
      </trkpt>
      <trkpt lat="43.91708" lon="5.14127">
        <ele>304.4</ele>
        <time>2015-11-15T09:07:45Z</time>
      </trkpt>
      <trkpt lat="43.91704" lon="5.14141">
        <ele>305</ele>
        <time>2015-11-15T09:07:53Z</time>
      </trkpt>
      <trkpt lat="43.91703" lon="5.14153">
        <ele>305.7</ele>
        <time>2015-11-15T09:08:02Z</time>
      </trkpt>
      <trkpt lat="43.91702" lon="5.14166">
        <ele>306.6</ele>
        <time>2015-11-15T09:08:11Z</time>
      </trkpt>
      <trkpt lat="43.91702" lon="5.1418">
        <ele>307.3</ele>
        <time>2015-11-15T09:08:18Z</time>
      </trkpt>
      <trkpt lat="43.91703" lon="5.14194">
        <ele>307.9</ele>
        <time>2015-11-15T09:08:25Z</time>
      </trkpt>
      <trkpt lat="43.917" lon="5.14207">
        <ele>308.5</ele>
        <time>2015-11-15T09:08:32Z</time>
      </trkpt>
      <trkpt lat="43.917" lon="5.1422">
        <ele>308.9</ele>
        <time>2015-11-15T09:08:38Z</time>
      </trkpt>
      <trkpt lat="43.91708" lon="5.14228">
        <ele>309.4</ele>
        <time>2015-11-15T09:08:45Z</time>
      </trkpt>
      <trkpt lat="43.91715" lon="5.14238">
        <ele>310.2</ele>
        <time>2015-11-15T09:08:55Z</time>
      </trkpt>
      <trkpt lat="43.91726" lon="5.14237">
        <ele>311.2</ele>
        <time>2015-11-15T09:09:06Z</time>
      </trkpt>
      <trkpt lat="43.91734" lon="5.1423">
        <ele>311.7</ele>
        <time>2015-11-15T09:09:13Z</time>
      </trkpt>
      <trkpt lat="43.91742" lon="5.14223">
        <ele>312.6</ele>
        <time>2015-11-15T09:09:23Z</time>
      </trkpt>
      <trkpt lat="43.91751" lon="5.14216">
        <ele>313.3</ele>
        <time>2015-11-15T09:09:30Z</time>
      </trkpt>
      <trkpt lat="43.91758" lon="5.14207">
        <ele>313.9</ele>
        <time>2015-11-15T09:09:37Z</time>
      </trkpt>
      <trkpt lat="43.91767" lon="5.14204">
        <ele>314.7</ele>
        <time>2015-11-15T09:09:46Z</time>
      </trkpt>
      <trkpt lat="43.91776" lon="5.142">
        <ele>315.3</ele>
        <time>2015-11-15T09:09:53Z</time>
      </trkpt>
      <trkpt lat="43.91784" lon="5.14193">
        <ele>316.1</ele>
        <time>2015-11-15T09:10:01Z</time>
      </trkpt>
      <trkpt lat="43.91794" lon="5.14189">
        <ele>316.9</ele>
        <time>2015-11-15T09:10:10Z</time>
      </trkpt>
      <trkpt lat="43.918" lon="5.14202">
        <ele>317.7</ele>
        <time>2015-11-15T09:10:19Z</time>
      </trkpt>
      <trkpt lat="43.91803" lon="5.14215">
        <ele>318.3</ele>
        <time>2015-11-15T09:10:26Z</time>
      </trkpt>
      <trkpt lat="43.9181" lon="5.14224">
        <ele>319</ele>
        <time>2015-11-15T09:10:30Z</time>
      </trkpt>
      <trkpt lat="43.91818" lon="5.14233">
        <ele>319.3</ele>
        <time>2015-11-15T09:10:36Z</time>
      </trkpt>
      <trkpt lat="43.91822" lon="5.14246">
        <ele>320.3</ele>
        <time>2015-11-15T09:10:44Z</time>
      </trkpt>
      <trkpt lat="43.91837" lon="5.14252">
        <ele>321.2</ele>
        <time>2015-11-15T09:10:53Z</time>
      </trkpt>
      <trkpt lat="43.91846" lon="5.14261">
        <ele>321.7</ele>
        <time>2015-11-15T09:10:58Z</time>
      </trkpt>
      <trkpt lat="43.91856" lon="5.14267">
        <ele>322.2</ele>
        <time>2015-11-15T09:11:02Z</time>
      </trkpt>
      <trkpt lat="43.91864" lon="5.14273">
        <ele>322.7</ele>
        <time>2015-11-15T09:11:07Z</time>
      </trkpt>
      <trkpt lat="43.91869" lon="5.14284">
        <ele>323.6</ele>
        <time>2015-11-15T09:11:15Z</time>
      </trkpt>
      <trkpt lat="43.91874" lon="5.14295">
        <ele>324.4</ele>
        <time>2015-11-15T09:11:23Z</time>
      </trkpt>
      <trkpt lat="43.91879" lon="5.14306">
        <ele>325</ele>
        <time>2015-11-15T09:11:30Z</time>
      </trkpt>
      <trkpt lat="43.91884" lon="5.14318">
        <ele>325.6</ele>
        <time>2015-11-15T09:11:38Z</time>
      </trkpt>
      <trkpt lat="43.91892" lon="5.14326">
        <ele>326.3</ele>
        <time>2015-11-15T09:11:46Z</time>
      </trkpt>
      <trkpt lat="43.919" lon="5.14333">
        <ele>326.9</ele>
        <time>2015-11-15T09:11:53Z</time>
      </trkpt>
      <trkpt lat="43.91908" lon="5.14339">
        <ele>327.6</ele>
        <time>2015-11-15T09:12:00Z</time>
      </trkpt>
      <trkpt lat="43.91916" lon="5.14345">
        <ele>328.4</ele>
        <time>2015-11-15T09:12:08Z</time>
      </trkpt>
      <trkpt lat="43.91925" lon="5.14352">
        <ele>329.1</ele>
        <time>2015-11-15T09:12:15Z</time>
      </trkpt>
      <trkpt lat="43.91934" lon="5.14358">
        <ele>329.9</ele>
        <time>2015-11-15T09:12:24Z</time>
      </trkpt>
      <trkpt lat="43.91941" lon="5.14366">
        <ele>330.7</ele>
        <time>2015-11-15T09:12:32Z</time>
      </trkpt>
      <trkpt lat="43.91948" lon="5.14374">
        <ele>331.4</ele>
        <time>2015-11-15T09:12:39Z</time>
      </trkpt>
      <trkpt lat="43.91957" lon="5.1438">
        <ele>332.2</ele>
        <time>2015-11-15T09:12:48Z</time>
      </trkpt>
      <trkpt lat="43.91966" lon="5.14385">
        <ele>332.7</ele>
        <time>2015-11-15T09:12:54Z</time>
      </trkpt>
      <trkpt lat="43.91975" lon="5.14388">
        <ele>333.5</ele>
        <time>2015-11-15T09:13:02Z</time>
      </trkpt>
      <trkpt lat="43.91986" lon="5.14393">
        <ele>334.4</ele>
        <time>2015-11-15T09:13:10Z</time>
      </trkpt>
      <trkpt lat="43.91995" lon="5.144">
        <ele>334.8</ele>
        <time>2015-11-15T09:13:14Z</time>
      </trkpt>
      <trkpt lat="43.92002" lon="5.1441">
        <ele>335.6</ele>
        <time>2015-11-15T09:13:19Z</time>
      </trkpt>
      <trkpt lat="43.9201" lon="5.14416">
        <ele>336.8</ele>
        <time>2015-11-15T09:13:24Z</time>
      </trkpt>
      <trkpt lat="43.9202" lon="5.14416">
        <ele>338.2</ele>
        <time>2015-11-15T09:13:30Z</time>
      </trkpt>
      <trkpt lat="43.92029" lon="5.1441">
        <ele>339.4</ele>
        <time>2015-11-15T09:13:36Z</time>
      </trkpt>
      <trkpt lat="43.92033" lon="5.14398">
        <ele>340.4</ele>
        <time>2015-11-15T09:13:44Z</time>
      </trkpt>
      <trkpt lat="43.92038" lon="5.14387">
        <ele>341.6</ele>
        <time>2015-11-15T09:14:25Z</time>
      </trkpt>
      <trkpt lat="43.9204" lon="5.14374">
        <ele>341.5</ele>
        <time>2015-11-15T09:14:46Z</time>
      </trkpt>
      <trkpt lat="43.92037" lon="5.1436">
        <ele>341.4</ele>
        <time>2015-11-15T09:14:51Z</time>
      </trkpt>
      <trkpt lat="43.92037" lon="5.14347">
        <ele>341.4</ele>
        <time>2015-11-15T09:15:01Z</time>
      </trkpt>
      <trkpt lat="43.92032" lon="5.14332">
        <ele>341.7</ele>
        <time>2015-11-15T09:15:06Z</time>
      </trkpt>
      <trkpt lat="43.92034" lon="5.14318">
        <ele>342.2</ele>
        <time>2015-11-15T09:15:12Z</time>
      </trkpt>
      <trkpt lat="43.92041" lon="5.1431">
        <ele>344.2</ele>
        <time>2015-11-15T09:15:26Z</time>
      </trkpt>
      <trkpt lat="43.92051" lon="5.14313">
        <ele>345.1</ele>
        <time>2015-11-15T09:15:33Z</time>
      </trkpt>
      <trkpt lat="43.92061" lon="5.14317">
        <ele>345.7</ele>
        <time>2015-11-15T09:15:39Z</time>
      </trkpt>
      <trkpt lat="43.92068" lon="5.14325">
        <ele>346.2</ele>
        <time>2015-11-15T09:15:45Z</time>
      </trkpt>
      <trkpt lat="43.92076" lon="5.14334">
        <ele>347.2</ele>
        <time>2015-11-15T09:15:55Z</time>
      </trkpt>
      <trkpt lat="43.92085" lon="5.14341">
        <ele>348.2</ele>
        <time>2015-11-15T09:16:04Z</time>
      </trkpt>
      <trkpt lat="43.92094" lon="5.14345">
        <ele>348.9</ele>
        <time>2015-11-15T09:16:12Z</time>
      </trkpt>
      <trkpt lat="43.92105" lon="5.14349">
        <ele>349.6</ele>
        <time>2015-11-15T09:16:22Z</time>
      </trkpt>
      <trkpt lat="43.92114" lon="5.1435">
        <ele>350.5</ele>
        <time>2015-11-15T09:16:30Z</time>
      </trkpt>
      <trkpt lat="43.92123" lon="5.14349">
        <ele>351.6</ele>
        <time>2015-11-15T09:16:38Z</time>
      </trkpt>
      <trkpt lat="43.92132" lon="5.14346">
        <ele>352.5</ele>
        <time>2015-11-15T09:16:45Z</time>
      </trkpt>
      <trkpt lat="43.92142" lon="5.14349">
        <ele>353.2</ele>
        <time>2015-11-15T09:16:50Z</time>
      </trkpt>
      <trkpt lat="43.92151" lon="5.14353">
        <ele>354.2</ele>
        <time>2015-11-15T09:16:57Z</time>
      </trkpt>
      <trkpt lat="43.92162" lon="5.14352">
        <ele>355.3</ele>
        <time>2015-11-15T09:17:06Z</time>
      </trkpt>
      <trkpt lat="43.92171" lon="5.14354">
        <ele>355.9</ele>
        <time>2015-11-15T09:17:10Z</time>
      </trkpt>
      <trkpt lat="43.92179" lon="5.1436">
        <ele>357.3</ele>
        <time>2015-11-15T09:17:19Z</time>
      </trkpt>
      <trkpt lat="43.92187" lon="5.14368">
        <ele>358.4</ele>
        <time>2015-11-15T09:17:27Z</time>
      </trkpt>
      <trkpt lat="43.92197" lon="5.14365">
        <ele>359.8</ele>
        <time>2015-11-15T09:17:36Z</time>
      </trkpt>
      <trkpt lat="43.92208" lon="5.1436">
        <ele>360.9</ele>
        <time>2015-11-15T09:17:43Z</time>
      </trkpt>
      <trkpt lat="43.92217" lon="5.14353">
        <ele>361.5</ele>
        <time>2015-11-15T09:17:47Z</time>
      </trkpt>
      <trkpt lat="43.92227" lon="5.14352">
        <ele>362.4</ele>
        <time>2015-11-15T09:17:53Z</time>
      </trkpt>
      <trkpt lat="43.92235" lon="5.14347">
        <ele>363.4</ele>
        <time>2015-11-15T09:18:00Z</time>
      </trkpt>
      <trkpt lat="43.92243" lon="5.14355">
        <ele>364.3</ele>
        <time>2015-11-15T09:18:07Z</time>
      </trkpt>
      <trkpt lat="43.92253" lon="5.14357">
        <ele>365.3</ele>
        <time>2015-11-15T09:18:16Z</time>
      </trkpt>
      <trkpt lat="43.92262" lon="5.14357">
        <ele>365.8</ele>
        <time>2015-11-15T09:18:21Z</time>
      </trkpt>
      <trkpt lat="43.92272" lon="5.1436">
        <ele>366.7</ele>
        <time>2015-11-15T09:18:29Z</time>
      </trkpt>
      <trkpt lat="43.9228" lon="5.14368">
        <ele>367.7</ele>
        <time>2015-11-15T09:18:38Z</time>
      </trkpt>
      <trkpt lat="43.9229" lon="5.1437">
        <ele>368.6</ele>
        <time>2015-11-15T09:18:45Z</time>
      </trkpt>
      <trkpt lat="43.92301" lon="5.14368">
        <ele>369.2</ele>
        <time>2015-11-15T09:18:50Z</time>
      </trkpt>
      <trkpt lat="43.92309" lon="5.14371">
        <ele>370.2</ele>
        <time>2015-11-15T09:18:58Z</time>
      </trkpt>
      <trkpt lat="43.92319" lon="5.14375">
        <ele>371.4</ele>
        <time>2015-11-15T09:19:08Z</time>
      </trkpt>
      <trkpt lat="43.92328" lon="5.14373">
        <ele>372.2</ele>
        <time>2015-11-15T09:19:15Z</time>
      </trkpt>
      <trkpt lat="43.92337" lon="5.14376">
        <ele>373</ele>
        <time>2015-11-15T09:19:21Z</time>
      </trkpt>
      <trkpt lat="43.92347" lon="5.14377">
        <ele>373.7</ele>
        <time>2015-11-15T09:19:27Z</time>
      </trkpt>
      <trkpt lat="43.92357" lon="5.14377">
        <ele>374.2</ele>
        <time>2015-11-15T09:19:34Z</time>
      </trkpt>
      <trkpt lat="43.92366" lon="5.14378">
        <ele>374.6</ele>
        <time>2015-11-15T09:19:40Z</time>
      </trkpt>
      <trkpt lat="43.92375" lon="5.14381">
        <ele>375.1</ele>
        <time>2015-11-15T09:19:47Z</time>
      </trkpt>
      <trkpt lat="43.92384" lon="5.14385">
        <ele>375.6</ele>
        <time>2015-11-15T09:19:54Z</time>
      </trkpt>
      <trkpt lat="43.92394" lon="5.14382">
        <ele>376.2</ele>
        <time>2015-11-15T09:20:01Z</time>
      </trkpt>
      <trkpt lat="43.92404" lon="5.14385">
        <ele>376.9</ele>
        <time>2015-11-15T09:20:08Z</time>
      </trkpt>
      <trkpt lat="43.92414" lon="5.14386">
        <ele>377.7</ele>
        <time>2015-11-15T09:20:14Z</time>
      </trkpt>
      <trkpt lat="43.92423" lon="5.1439">
        <ele>378.4</ele>
        <time>2015-11-15T09:20:21Z</time>
      </trkpt>
      <trkpt lat="43.92432" lon="5.14394">
        <ele>379.1</ele>
        <time>2015-11-15T09:20:27Z</time>
      </trkpt>
      <trkpt lat="43.92442" lon="5.1439">
        <ele>380.3</ele>
        <time>2015-11-15T09:20:38Z</time>
      </trkpt>
      <trkpt lat="43.92451" lon="5.14388">
        <ele>381</ele>
        <time>2015-11-15T09:20:44Z</time>
      </trkpt>
      <trkpt lat="43.92457" lon="5.14379">
        <ele>382.1</ele>
        <time>2015-11-15T09:20:53Z</time>
      </trkpt>
      <trkpt lat="43.92466" lon="5.14372">
        <ele>382.8</ele>
        <time>2015-11-15T09:20:59Z</time>
      </trkpt>
      <trkpt lat="43.92475" lon="5.14368">
        <ele>383.1</ele>
        <time>2015-11-15T09:21:03Z</time>
      </trkpt>
      <trkpt lat="43.925" lon="5.14359">
        <ele>388</ele>
        <time>2015-11-15T09:21:52Z</time>
      </trkpt>
      <trkpt lat="43.92513" lon="5.14355">
        <ele>389.2</ele>
        <time>2015-11-15T09:21:57Z</time>
      </trkpt>
      <trkpt lat="43.92524" lon="5.14353">
        <ele>390.2</ele>
        <time>2015-11-15T09:22:04Z</time>
      </trkpt>
      <trkpt lat="43.92533" lon="5.1435">
        <ele>391</ele>
        <time>2015-11-15T09:22:11Z</time>
      </trkpt>
      <trkpt lat="43.92544" lon="5.14344">
        <ele>391.8</ele>
        <time>2015-11-15T09:22:17Z</time>
      </trkpt>
      <trkpt lat="43.92554" lon="5.14345">
        <ele>392.5</ele>
        <time>2015-11-15T09:22:23Z</time>
      </trkpt>
      <trkpt lat="43.92563" lon="5.14341">
        <ele>393.2</ele>
        <time>2015-11-15T09:22:28Z</time>
      </trkpt>
      <trkpt lat="43.92572" lon="5.14338">
        <ele>394</ele>
        <time>2015-11-15T09:22:34Z</time>
      </trkpt>
      <trkpt lat="43.92582" lon="5.14335">
        <ele>394.7</ele>
        <time>2015-11-15T09:22:40Z</time>
      </trkpt>
      <trkpt lat="43.92592" lon="5.14329">
        <ele>395.4</ele>
        <time>2015-11-15T09:22:46Z</time>
      </trkpt>
      <trkpt lat="43.92601" lon="5.14327">
        <ele>395.9</ele>
        <time>2015-11-15T09:22:49Z</time>
      </trkpt>
      <trkpt lat="43.9261" lon="5.14326">
        <ele>396.7</ele>
        <time>2015-11-15T09:22:54Z</time>
      </trkpt>
      <trkpt lat="43.92621" lon="5.14325">
        <ele>397.2</ele>
        <time>2015-11-15T09:22:58Z</time>
      </trkpt>
      <trkpt lat="43.9263" lon="5.14322">
        <ele>397.6</ele>
        <time>2015-11-15T09:23:02Z</time>
      </trkpt>
      <trkpt lat="43.9264" lon="5.14321">
        <ele>398.4</ele>
        <time>2015-11-15T09:23:08Z</time>
      </trkpt>
      <trkpt lat="43.92649" lon="5.14321">
        <ele>399.2</ele>
        <time>2015-11-15T09:23:13Z</time>
      </trkpt>
      <trkpt lat="43.92658" lon="5.14318">
        <ele>400.4</ele>
        <time>2015-11-15T09:23:20Z</time>
      </trkpt>
      <trkpt lat="43.92668" lon="5.14318">
        <ele>401.3</ele>
        <time>2015-11-15T09:23:26Z</time>
      </trkpt>
      <trkpt lat="43.92678" lon="5.14316">
        <ele>402</ele>
        <time>2015-11-15T09:23:32Z</time>
      </trkpt>
      <trkpt lat="43.92688" lon="5.14321">
        <ele>403.1</ele>
        <time>2015-11-15T09:23:40Z</time>
      </trkpt>
      <trkpt lat="43.92697" lon="5.14319">
        <ele>403.9</ele>
        <time>2015-11-15T09:23:47Z</time>
      </trkpt>
      <trkpt lat="43.92707" lon="5.1432">
        <ele>404.5</ele>
        <time>2015-11-15T09:23:53Z</time>
      </trkpt>
      <trkpt lat="43.92716" lon="5.14319">
        <ele>405.3</ele>
        <time>2015-11-15T09:23:59Z</time>
      </trkpt>
      <trkpt lat="43.92724" lon="5.14327">
        <ele>406.2</ele>
        <time>2015-11-15T09:24:05Z</time>
      </trkpt>
      <trkpt lat="43.92735" lon="5.14328">
        <ele>407.4</ele>
        <time>2015-11-15T09:24:14Z</time>
      </trkpt>
      <trkpt lat="43.92744" lon="5.14326">
        <ele>408.1</ele>
        <time>2015-11-15T09:24:21Z</time>
      </trkpt>
      <trkpt lat="43.92755" lon="5.14328">
        <ele>408.6</ele>
        <time>2015-11-15T09:24:26Z</time>
      </trkpt>
      <trkpt lat="43.92765" lon="5.14327">
        <ele>408.9</ele>
        <time>2015-11-15T09:24:30Z</time>
      </trkpt>
      <trkpt lat="43.92774" lon="5.14322">
        <ele>409.4</ele>
        <time>2015-11-15T09:24:35Z</time>
      </trkpt>
      <trkpt lat="43.92781" lon="5.14314">
        <ele>409.9</ele>
        <time>2015-11-15T09:24:40Z</time>
      </trkpt>
      <trkpt lat="43.92787" lon="5.14303">
        <ele>410.4</ele>
        <time>2015-11-15T09:24:46Z</time>
      </trkpt>
      <trkpt lat="43.92794" lon="5.14294">
        <ele>411</ele>
        <time>2015-11-15T09:24:53Z</time>
      </trkpt>
      <trkpt lat="43.92802" lon="5.14301">
        <ele>412</ele>
        <time>2015-11-15T09:25:05Z</time>
      </trkpt>
      <trkpt lat="43.92812" lon="5.14307">
        <ele>412.5</ele>
        <time>2015-11-15T09:25:11Z</time>
      </trkpt>
      <trkpt lat="43.92822" lon="5.14305">
        <ele>413.3</ele>
        <time>2015-11-15T09:25:19Z</time>
      </trkpt>
      <trkpt lat="43.92829" lon="5.14297">
        <ele>413.9</ele>
        <time>2015-11-15T09:25:25Z</time>
      </trkpt>
      <trkpt lat="43.92835" lon="5.14286">
        <ele>414.8</ele>
        <time>2015-11-15T09:25:33Z</time>
      </trkpt>
      <trkpt lat="43.92837" lon="5.14269">
        <ele>416.1</ele>
        <time>2015-11-15T09:25:41Z</time>
      </trkpt>
      <trkpt lat="43.9284" lon="5.14257">
        <ele>417.2</ele>
        <time>2015-11-15T09:25:48Z</time>
      </trkpt>
      <trkpt lat="43.92849" lon="5.14253">
        <ele>418.3</ele>
        <time>2015-11-15T09:25:56Z</time>
      </trkpt>
      <trkpt lat="43.92858" lon="5.14251">
        <ele>419.1</ele>
        <time>2015-11-15T09:26:05Z</time>
      </trkpt>
      <trkpt lat="43.92867" lon="5.1425">
        <ele>419.7</ele>
        <time>2015-11-15T09:26:11Z</time>
      </trkpt>
      <trkpt lat="43.92876" lon="5.14252">
        <ele>420.5</ele>
        <time>2015-11-15T09:26:17Z</time>
      </trkpt>
      <trkpt lat="43.92884" lon="5.14258">
        <ele>421.4</ele>
        <time>2015-11-15T09:26:25Z</time>
      </trkpt>
      <trkpt lat="43.92894" lon="5.14259">
        <ele>422.3</ele>
        <time>2015-11-15T09:26:32Z</time>
      </trkpt>
      <trkpt lat="43.92901" lon="5.14266">
        <ele>423</ele>
        <time>2015-11-15T09:26:38Z</time>
      </trkpt>
      <trkpt lat="43.92911" lon="5.14264">
        <ele>423.6</ele>
        <time>2015-11-15T09:26:43Z</time>
      </trkpt>
      <trkpt lat="43.9292" lon="5.14261">
        <ele>424.6</ele>
        <time>2015-11-15T09:26:52Z</time>
      </trkpt>
      <trkpt lat="43.92926" lon="5.1427">
        <ele>425.7</ele>
        <time>2015-11-15T09:27:02Z</time>
      </trkpt>
      <trkpt lat="43.92936" lon="5.14273">
        <ele>426.5</ele>
        <time>2015-11-15T09:27:10Z</time>
      </trkpt>
      <trkpt lat="43.92945" lon="5.14268">
        <ele>427.3</ele>
        <time>2015-11-15T09:27:19Z</time>
      </trkpt>
      <trkpt lat="43.92956" lon="5.14274">
        <ele>428.1</ele>
        <time>2015-11-15T09:27:28Z</time>
      </trkpt>
      <trkpt lat="43.92965" lon="5.14268">
        <ele>428.7</ele>
        <time>2015-11-15T09:27:34Z</time>
      </trkpt>
      <trkpt lat="43.92985" lon="5.14296">
        <ele>430</ele>
        <time>2015-11-15T09:30:23Z</time>
      </trkpt>
      <trkpt lat="43.92995" lon="5.14292">
        <ele>430.3</ele>
        <time>2015-11-15T09:30:35Z</time>
      </trkpt>
      <trkpt lat="43.93003" lon="5.14286">
        <ele>431.1</ele>
        <time>2015-11-15T09:30:47Z</time>
      </trkpt>
      <trkpt lat="43.93012" lon="5.14281">
        <ele>431.8</ele>
        <time>2015-11-15T09:30:54Z</time>
      </trkpt>
      <trkpt lat="43.93022" lon="5.14278">
        <ele>432.5</ele>
        <time>2015-11-15T09:31:01Z</time>
      </trkpt>
      <trkpt lat="43.93031" lon="5.14278">
        <ele>433.1</ele>
        <time>2015-11-15T09:31:06Z</time>
      </trkpt>
      <trkpt lat="43.9304" lon="5.14279">
        <ele>433.7</ele>
        <time>2015-11-15T09:31:11Z</time>
      </trkpt>
      <trkpt lat="43.93049" lon="5.14282">
        <ele>434.4</ele>
        <time>2015-11-15T09:31:18Z</time>
      </trkpt>
      <trkpt lat="43.93057" lon="5.1429">
        <ele>435.2</ele>
        <time>2015-11-15T09:31:27Z</time>
      </trkpt>
      <trkpt lat="43.93066" lon="5.14295">
        <ele>436.2</ele>
        <time>2015-11-15T09:31:35Z</time>
      </trkpt>
      <trkpt lat="43.93072" lon="5.14307">
        <ele>436.9</ele>
        <time>2015-11-15T09:31:41Z</time>
      </trkpt>
      <trkpt lat="43.93076" lon="5.14321">
        <ele>437.4</ele>
        <time>2015-11-15T09:31:46Z</time>
      </trkpt>
      <trkpt lat="43.93081" lon="5.14333">
        <ele>438</ele>
        <time>2015-11-15T09:31:51Z</time>
      </trkpt>
      <trkpt lat="43.93086" lon="5.14343">
        <ele>438.7</ele>
        <time>2015-11-15T09:31:57Z</time>
      </trkpt>
      <trkpt lat="43.93095" lon="5.1435">
        <ele>439.9</ele>
        <time>2015-11-15T09:32:07Z</time>
      </trkpt>
      <trkpt lat="43.93104" lon="5.14355">
        <ele>440.6</ele>
        <time>2015-11-15T09:32:14Z</time>
      </trkpt>
      <trkpt lat="43.93112" lon="5.14361">
        <ele>441.6</ele>
        <time>2015-11-15T09:32:22Z</time>
      </trkpt>
      <trkpt lat="43.9312" lon="5.14369">
        <ele>442.7</ele>
        <time>2015-11-15T09:32:31Z</time>
      </trkpt>
      <trkpt lat="43.93129" lon="5.14373">
        <ele>443.6</ele>
        <time>2015-11-15T09:32:37Z</time>
      </trkpt>
      <trkpt lat="43.93138" lon="5.14377">
        <ele>445.4</ele>
        <time>2015-11-15T09:32:45Z</time>
      </trkpt>
      <trkpt lat="43.93147" lon="5.1438">
        <ele>446.5</ele>
        <time>2015-11-15T09:32:52Z</time>
      </trkpt>
      <trkpt lat="43.93156" lon="5.14383">
        <ele>447.2</ele>
        <time>2015-11-15T09:32:58Z</time>
      </trkpt>
      <trkpt lat="43.93166" lon="5.1439">
        <ele>448.2</ele>
        <time>2015-11-15T09:33:03Z</time>
      </trkpt>
      <trkpt lat="43.93168" lon="5.14402">
        <ele>450.2</ele>
        <time>2015-11-15T09:33:10Z</time>
      </trkpt>
      <trkpt lat="43.93178" lon="5.14402">
        <ele>451.6</ele>
        <time>2015-11-15T09:33:17Z</time>
      </trkpt>
      <trkpt lat="43.93186" lon="5.14394">
        <ele>453.9</ele>
        <time>2015-11-15T09:33:29Z</time>
      </trkpt>
      <trkpt lat="43.93187" lon="5.1441">
        <ele>454.7</ele>
        <time>2015-11-15T09:33:37Z</time>
      </trkpt>
      <trkpt lat="43.93187" lon="5.14424">
        <ele>455.1</ele>
        <time>2015-11-15T09:33:41Z</time>
      </trkpt>
      <trkpt lat="43.9319" lon="5.14437">
        <ele>455.3</ele>
        <time>2015-11-15T09:33:45Z</time>
      </trkpt>
      <trkpt lat="43.93191" lon="5.1445">
        <ele>455.6</ele>
        <time>2015-11-15T09:33:50Z</time>
      </trkpt>
      <trkpt lat="43.93197" lon="5.14459">
        <ele>455.9</ele>
        <time>2015-11-15T09:33:56Z</time>
      </trkpt>
      <trkpt lat="43.93204" lon="5.14471">
        <ele>456.4</ele>
        <time>2015-11-15T09:34:02Z</time>
      </trkpt>
      <trkpt lat="43.93211" lon="5.14481">
        <ele>457</ele>
        <time>2015-11-15T09:34:08Z</time>
      </trkpt>
      <trkpt lat="43.93218" lon="5.14488">
        <ele>458.1</ele>
        <time>2015-11-15T09:34:18Z</time>
      </trkpt>
      <trkpt lat="43.93223" lon="5.145">
        <ele>459.2</ele>
        <time>2015-11-15T09:34:25Z</time>
      </trkpt>
      <trkpt lat="43.93227" lon="5.14513">
        <ele>460.2</ele>
        <time>2015-11-15T09:34:32Z</time>
      </trkpt>
      <trkpt lat="43.93234" lon="5.14521">
        <ele>461.2</ele>
        <time>2015-11-15T09:34:38Z</time>
      </trkpt>
      <trkpt lat="43.93242" lon="5.14529">
        <ele>461.9</ele>
        <time>2015-11-15T09:34:42Z</time>
      </trkpt>
      <trkpt lat="43.93251" lon="5.14532">
        <ele>462.6</ele>
        <time>2015-11-15T09:34:47Z</time>
      </trkpt>
      <trkpt lat="43.93261" lon="5.14534">
        <ele>463.1</ele>
        <time>2015-11-15T09:34:51Z</time>
      </trkpt>
      <trkpt lat="43.93271" lon="5.14537">
        <ele>463.6</ele>
        <time>2015-11-15T09:34:55Z</time>
      </trkpt>
      <trkpt lat="43.93281" lon="5.14538">
        <ele>464.1</ele>
        <time>2015-11-15T09:35:00Z</time>
      </trkpt>
      <trkpt lat="43.93291" lon="5.14538">
        <ele>464.7</ele>
        <time>2015-11-15T09:35:06Z</time>
      </trkpt>
      <trkpt lat="43.933" lon="5.14543">
        <ele>465.6</ele>
        <time>2015-11-15T09:35:13Z</time>
      </trkpt>
      <trkpt lat="43.93309" lon="5.14551">
        <ele>466.2</ele>
        <time>2015-11-15T09:35:18Z</time>
      </trkpt>
      <trkpt lat="43.93317" lon="5.14557">
        <ele>466.7</ele>
        <time>2015-11-15T09:35:23Z</time>
      </trkpt>
      <trkpt lat="43.93326" lon="5.14563">
        <ele>467.7</ele>
        <time>2015-11-15T09:35:34Z</time>
      </trkpt>
      <trkpt lat="43.93334" lon="5.14572">
        <ele>469</ele>
        <time>2015-11-15T09:35:44Z</time>
      </trkpt>
      <trkpt lat="43.9334" lon="5.14581">
        <ele>469.9</ele>
        <time>2015-11-15T09:35:51Z</time>
      </trkpt>
      <trkpt lat="43.93346" lon="5.1459">
        <ele>470.9</ele>
        <time>2015-11-15T09:35:58Z</time>
      </trkpt>
      <trkpt lat="43.93353" lon="5.14599">
        <ele>471.9</ele>
        <time>2015-11-15T09:36:05Z</time>
      </trkpt>
      <trkpt lat="43.93361" lon="5.14605">
        <ele>472.4</ele>
        <time>2015-11-15T09:36:09Z</time>
      </trkpt>
      <trkpt lat="43.93368" lon="5.14613">
        <ele>472.9</ele>
        <time>2015-11-15T09:36:13Z</time>
      </trkpt>
      <trkpt lat="43.93377" lon="5.14621">
        <ele>473.4</ele>
        <time>2015-11-15T09:36:17Z</time>
      </trkpt>
      <trkpt lat="43.93385" lon="5.14628">
        <ele>474.3</ele>
        <time>2015-11-15T09:36:23Z</time>
      </trkpt>
      <trkpt lat="43.93392" lon="5.14638">
        <ele>475.4</ele>
        <time>2015-11-15T09:36:30Z</time>
      </trkpt>
      <trkpt lat="43.93398" lon="5.14648">
        <ele>476.2</ele>
        <time>2015-11-15T09:36:36Z</time>
      </trkpt>
      <trkpt lat="43.93406" lon="5.14657">
        <ele>477.3</ele>
        <time>2015-11-15T09:36:43Z</time>
      </trkpt>
      <trkpt lat="43.93414" lon="5.14666">
        <ele>478.2</ele>
        <time>2015-11-15T09:36:49Z</time>
      </trkpt>
      <trkpt lat="43.93419" lon="5.14678">
        <ele>479.1</ele>
        <time>2015-11-15T09:36:55Z</time>
      </trkpt>
      <trkpt lat="43.93425" lon="5.14689">
        <ele>479.9</ele>
        <time>2015-11-15T09:37:01Z</time>
      </trkpt>
      <trkpt lat="43.93431" lon="5.14701">
        <ele>480.8</ele>
        <time>2015-11-15T09:37:07Z</time>
      </trkpt>
      <trkpt lat="43.93436" lon="5.14713">
        <ele>482</ele>
        <time>2015-11-15T09:37:14Z</time>
      </trkpt>
      <trkpt lat="43.93442" lon="5.14722">
        <ele>483</ele>
        <time>2015-11-15T09:37:20Z</time>
      </trkpt>
      <trkpt lat="43.93449" lon="5.14733">
        <ele>483.9</ele>
        <time>2015-11-15T09:37:26Z</time>
      </trkpt>
      <trkpt lat="43.93454" lon="5.14744">
        <ele>484.9</ele>
        <time>2015-11-15T09:37:32Z</time>
      </trkpt>
      <trkpt lat="43.93461" lon="5.14754">
        <ele>486</ele>
        <time>2015-11-15T09:37:39Z</time>
      </trkpt>
      <trkpt lat="43.93471" lon="5.1476">
        <ele>486.8</ele>
        <time>2015-11-15T09:37:44Z</time>
      </trkpt>
      <trkpt lat="43.93479" lon="5.14769">
        <ele>487.6</ele>
        <time>2015-11-15T09:37:49Z</time>
      </trkpt>
      <trkpt lat="43.93486" lon="5.14779">
        <ele>488.6</ele>
        <time>2015-11-15T09:37:55Z</time>
      </trkpt>
      <trkpt lat="43.93491" lon="5.14791">
        <ele>489.7</ele>
        <time>2015-11-15T09:38:02Z</time>
      </trkpt>
      <trkpt lat="43.93495" lon="5.14804">
        <ele>490.9</ele>
        <time>2015-11-15T09:38:08Z</time>
      </trkpt>
      <trkpt lat="43.935" lon="5.14817">
        <ele>492</ele>
        <time>2015-11-15T09:38:15Z</time>
      </trkpt>
      <trkpt lat="43.93506" lon="5.14829">
        <ele>492.8</ele>
        <time>2015-11-15T09:38:19Z</time>
      </trkpt>
      <trkpt lat="43.93511" lon="5.1484">
        <ele>494.2</ele>
        <time>2015-11-15T09:38:27Z</time>
      </trkpt>
      <trkpt lat="43.93516" lon="5.14852">
        <ele>495.2</ele>
        <time>2015-11-15T09:38:33Z</time>
      </trkpt>
      <trkpt lat="43.93522" lon="5.14863">
        <ele>497.3</ele>
        <time>2015-11-15T09:38:43Z</time>
      </trkpt>
      <trkpt lat="43.93529" lon="5.14874">
        <ele>498.7</ele>
        <time>2015-11-15T09:38:51Z</time>
      </trkpt>
      <trkpt lat="43.93539" lon="5.1488">
        <ele>499.9</ele>
        <time>2015-11-15T09:38:58Z</time>
      </trkpt>
      <trkpt lat="43.93548" lon="5.14879">
        <ele>501.4</ele>
        <time>2015-11-15T09:39:06Z</time>
      </trkpt>
      <trkpt lat="43.93555" lon="5.14888">
        <ele>502.9</ele>
        <time>2015-11-15T09:39:14Z</time>
      </trkpt>
      <trkpt lat="43.93564" lon="5.14886">
        <ele>503.9</ele>
        <time>2015-11-15T09:39:19Z</time>
      </trkpt>
      <trkpt lat="43.93573" lon="5.14883">
        <ele>505.4</ele>
        <time>2015-11-15T09:39:26Z</time>
      </trkpt>
      <trkpt lat="43.93572" lon="5.14897">
        <ele>506.2</ele>
        <time>2015-11-15T09:39:30Z</time>
      </trkpt>
      <trkpt lat="43.93567" lon="5.14908">
        <ele>506.8</ele>
        <time>2015-11-15T09:39:33Z</time>
      </trkpt>
      <trkpt lat="43.93573" lon="5.14917">
        <ele>507.4</ele>
        <time>2015-11-15T09:39:36Z</time>
      </trkpt>
      <trkpt lat="43.93582" lon="5.14925">
        <ele>508.5</ele>
        <time>2015-11-15T09:39:41Z</time>
      </trkpt>
      <trkpt lat="43.93588" lon="5.14935">
        <ele>509.8</ele>
        <time>2015-11-15T09:39:47Z</time>
      </trkpt>
      <trkpt lat="43.93591" lon="5.14948">
        <ele>511</ele>
        <time>2015-11-15T09:39:53Z</time>
      </trkpt>
      <trkpt lat="43.93591" lon="5.14962">
        <ele>512.5</ele>
        <time>2015-11-15T09:40:00Z</time>
      </trkpt>
      <trkpt lat="43.9359" lon="5.14975">
        <ele>515</ele>
        <time>2015-11-15T09:40:12Z</time>
      </trkpt>
      <trkpt lat="43.93595" lon="5.14986">
        <ele>516.5</ele>
        <time>2015-11-15T09:40:19Z</time>
      </trkpt>
      <trkpt lat="43.93603" lon="5.14995">
        <ele>518.3</ele>
        <time>2015-11-15T09:40:27Z</time>
      </trkpt>
      <trkpt lat="43.93608" lon="5.15007">
        <ele>520.6</ele>
        <time>2015-11-15T09:40:36Z</time>
      </trkpt>
      <trkpt lat="43.93616" lon="5.15015">
        <ele>522.4</ele>
        <time>2015-11-15T09:40:43Z</time>
      </trkpt>
      <trkpt lat="43.93626" lon="5.15017">
        <ele>526.5</ele>
        <time>2015-11-15T09:41:01Z</time>
      </trkpt>
      <trkpt lat="43.93636" lon="5.1502">
        <ele>527.5</ele>
        <time>2015-11-15T09:41:07Z</time>
      </trkpt>
      <trkpt lat="43.93646" lon="5.15021">
        <ele>528.6</ele>
        <time>2015-11-15T09:41:13Z</time>
      </trkpt>
      <trkpt lat="43.93655" lon="5.15018">
        <ele>530.1</ele>
        <time>2015-11-15T09:41:21Z</time>
      </trkpt>
      <trkpt lat="43.93664" lon="5.15013">
        <ele>531.4</ele>
        <time>2015-11-15T09:41:28Z</time>
      </trkpt>
      <trkpt lat="43.93673" lon="5.15011">
        <ele>532.5</ele>
        <time>2015-11-15T09:41:33Z</time>
      </trkpt>
      <trkpt lat="43.93684" lon="5.15012">
        <ele>533.8</ele>
        <time>2015-11-15T09:41:38Z</time>
      </trkpt>
      <trkpt lat="43.93694" lon="5.15013">
        <ele>535.5</ele>
        <time>2015-11-15T09:41:44Z</time>
      </trkpt>
      <trkpt lat="43.93704" lon="5.15012">
        <ele>536.9</ele>
        <time>2015-11-15T09:41:50Z</time>
      </trkpt>
      <trkpt lat="43.93713" lon="5.15014">
        <ele>537.9</ele>
        <time>2015-11-15T09:41:55Z</time>
      </trkpt>
      <trkpt lat="43.93722" lon="5.15013">
        <ele>538.9</ele>
        <time>2015-11-15T09:42:01Z</time>
      </trkpt>
      <trkpt lat="43.93732" lon="5.15015">
        <ele>540.3</ele>
        <time>2015-11-15T09:42:09Z</time>
      </trkpt>
      <trkpt lat="43.93742" lon="5.15014">
        <ele>541.4</ele>
        <time>2015-11-15T09:42:15Z</time>
      </trkpt>
      <trkpt lat="43.93752" lon="5.15013">
        <ele>542.6</ele>
        <time>2015-11-15T09:42:21Z</time>
      </trkpt>
      <trkpt lat="43.93761" lon="5.15015">
        <ele>543.9</ele>
        <time>2015-11-15T09:42:27Z</time>
      </trkpt>
      <trkpt lat="43.93772" lon="5.15019">
        <ele>545.1</ele>
        <time>2015-11-15T09:42:34Z</time>
      </trkpt>
      <trkpt lat="43.93781" lon="5.15022">
        <ele>546.1</ele>
        <time>2015-11-15T09:42:39Z</time>
      </trkpt>
      <trkpt lat="43.9379" lon="5.15028">
        <ele>547.3</ele>
        <time>2015-11-15T09:42:45Z</time>
      </trkpt>
      <trkpt lat="43.93797" lon="5.15038">
        <ele>548.4</ele>
        <time>2015-11-15T09:42:51Z</time>
      </trkpt>
      <trkpt lat="43.93803" lon="5.15049">
        <ele>549.2</ele>
        <time>2015-11-15T09:42:56Z</time>
      </trkpt>
      <trkpt lat="43.93811" lon="5.15054">
        <ele>550.3</ele>
        <time>2015-11-15T09:43:03Z</time>
      </trkpt>
      <trkpt lat="43.93819" lon="5.1506">
        <ele>551.4</ele>
        <time>2015-11-15T09:43:12Z</time>
      </trkpt>
      <trkpt lat="43.93829" lon="5.15064">
        <ele>552.8</ele>
        <time>2015-11-15T09:43:21Z</time>
      </trkpt>
      <trkpt lat="43.93838" lon="5.15071">
        <ele>553.6</ele>
        <time>2015-11-15T09:43:27Z</time>
      </trkpt>
      <trkpt lat="43.93847" lon="5.15077">
        <ele>554.5</ele>
        <time>2015-11-15T09:43:34Z</time>
      </trkpt>
      <trkpt lat="43.93855" lon="5.15083">
        <ele>555.4</ele>
        <time>2015-11-15T09:43:40Z</time>
      </trkpt>
      <trkpt lat="43.93861" lon="5.15092">
        <ele>556.4</ele>
        <time>2015-11-15T09:43:47Z</time>
      </trkpt>
      <trkpt lat="43.93867" lon="5.15102">
        <ele>557.2</ele>
        <time>2015-11-15T09:43:53Z</time>
      </trkpt>
      <trkpt lat="43.9387" lon="5.15115">
        <ele>558</ele>
        <time>2015-11-15T09:43:58Z</time>
      </trkpt>
      <trkpt lat="43.93875" lon="5.15126">
        <ele>559.2</ele>
        <time>2015-11-15T09:44:05Z</time>
      </trkpt>
      <trkpt lat="43.93881" lon="5.15137">
        <ele>560.8</ele>
        <time>2015-11-15T09:44:13Z</time>
      </trkpt>
      <trkpt lat="43.93884" lon="5.15149">
        <ele>561.6</ele>
        <time>2015-11-15T09:44:17Z</time>
      </trkpt>
      <trkpt lat="43.9389" lon="5.1516">
        <ele>562.5</ele>
        <time>2015-11-15T09:44:21Z</time>
      </trkpt>
      <trkpt lat="43.93895" lon="5.15171">
        <ele>563.1</ele>
        <time>2015-11-15T09:44:24Z</time>
      </trkpt>
      <trkpt lat="43.93899" lon="5.15184">
        <ele>564.4</ele>
        <time>2015-11-15T09:44:31Z</time>
      </trkpt>
      <trkpt lat="43.93902" lon="5.15197">
        <ele>565.9</ele>
        <time>2015-11-15T09:44:38Z</time>
      </trkpt>
      <trkpt lat="43.93906" lon="5.15209">
        <ele>568</ele>
        <time>2015-11-15T09:44:47Z</time>
      </trkpt>
      <trkpt lat="43.93911" lon="5.15221">
        <ele>569.4</ele>
        <time>2015-11-15T09:44:52Z</time>
      </trkpt>
      <trkpt lat="43.93915" lon="5.15233">
        <ele>571.4</ele>
        <time>2015-11-15T09:44:59Z</time>
      </trkpt>
      <trkpt lat="43.93922" lon="5.15241">
        <ele>573.8</ele>
        <time>2015-11-15T09:45:08Z</time>
      </trkpt>
      <trkpt lat="43.93926" lon="5.15252">
        <ele>576.2</ele>
        <time>2015-11-15T09:45:17Z</time>
      </trkpt>
      <trkpt lat="43.93928" lon="5.15265">
        <ele>578.5</ele>
        <time>2015-11-15T09:45:28Z</time>
      </trkpt>
      <trkpt lat="43.93935" lon="5.15275">
        <ele>580</ele>
        <time>2015-11-15T09:45:35Z</time>
      </trkpt>
      <trkpt lat="43.93941" lon="5.15286">
        <ele>581.9</ele>
        <time>2015-11-15T09:45:43Z</time>
      </trkpt>
      <trkpt lat="43.93945" lon="5.15299">
        <ele>584</ele>
        <time>2015-11-15T09:45:51Z</time>
      </trkpt>
      <trkpt lat="43.93951" lon="5.15309">
        <ele>585.2</ele>
        <time>2015-11-15T09:45:57Z</time>
      </trkpt>
      <trkpt lat="43.93954" lon="5.15322">
        <ele>586.7</ele>
        <time>2015-11-15T09:46:05Z</time>
      </trkpt>
      <trkpt lat="43.93955" lon="5.15335">
        <ele>588.1</ele>
        <time>2015-11-15T09:46:13Z</time>
      </trkpt>
      <trkpt lat="43.93958" lon="5.15348">
        <ele>589.6</ele>
        <time>2015-11-15T09:46:22Z</time>
      </trkpt>
      <trkpt lat="43.93967" lon="5.15356">
        <ele>591</ele>
        <time>2015-11-15T09:46:31Z</time>
      </trkpt>
      <trkpt lat="43.93976" lon="5.15357">
        <ele>592</ele>
        <time>2015-11-15T09:46:37Z</time>
      </trkpt>
      <trkpt lat="43.93986" lon="5.15363">
        <ele>593</ele>
        <time>2015-11-15T09:46:43Z</time>
      </trkpt>
      <trkpt lat="43.93996" lon="5.15363">
        <ele>594.4</ele>
        <time>2015-11-15T09:46:53Z</time>
      </trkpt>
      <trkpt lat="43.94006" lon="5.15366">
        <ele>595.6</ele>
        <time>2015-11-15T09:47:01Z</time>
      </trkpt>
      <trkpt lat="43.94016" lon="5.15366">
        <ele>596.1</ele>
        <time>2015-11-15T09:47:06Z</time>
      </trkpt>
      <trkpt lat="43.94025" lon="5.15371">
        <ele>597</ele>
        <time>2015-11-15T09:47:14Z</time>
      </trkpt>
      <trkpt lat="43.94034" lon="5.15376">
        <ele>598.2</ele>
        <time>2015-11-15T09:47:22Z</time>
      </trkpt>
      <trkpt lat="43.94044" lon="5.15379">
        <ele>599.1</ele>
        <time>2015-11-15T09:47:29Z</time>
      </trkpt>
      <trkpt lat="43.94054" lon="5.15384">
        <ele>599.9</ele>
        <time>2015-11-15T09:47:35Z</time>
      </trkpt>
      <trkpt lat="43.94062" lon="5.15391">
        <ele>600.8</ele>
        <time>2015-11-15T09:47:41Z</time>
      </trkpt>
      <trkpt lat="43.94071" lon="5.15397">
        <ele>601.6</ele>
        <time>2015-11-15T09:47:46Z</time>
      </trkpt>
      <trkpt lat="43.94079" lon="5.15404">
        <ele>602.5</ele>
        <time>2015-11-15T09:47:53Z</time>
      </trkpt>
      <trkpt lat="43.94105" lon="5.15415">
        <ele>606</ele>
        <time>2015-11-15T09:58:22Z</time>
      </trkpt>
      <trkpt lat="43.94114" lon="5.15412">
        <ele>606.7</ele>
        <time>2015-11-15T09:58:29Z</time>
      </trkpt>
      <trkpt lat="43.94123" lon="5.15407">
        <ele>606.7</ele>
        <time>2015-11-15T09:58:36Z</time>
      </trkpt>
      <trkpt lat="43.94132" lon="5.15402">
        <ele>606.6</ele>
        <time>2015-11-15T09:58:44Z</time>
      </trkpt>
      <trkpt lat="43.94141" lon="5.15396">
        <ele>606.8</ele>
        <time>2015-11-15T09:58:52Z</time>
      </trkpt>
      <trkpt lat="43.94148" lon="5.15387">
        <ele>607.3</ele>
        <time>2015-11-15T09:59:00Z</time>
      </trkpt>
      <trkpt lat="43.94157" lon="5.15379">
        <ele>607.7</ele>
        <time>2015-11-15T09:59:07Z</time>
      </trkpt>
      <trkpt lat="43.94164" lon="5.1537">
        <ele>608.7</ele>
        <time>2015-11-15T09:59:16Z</time>
      </trkpt>
      <trkpt lat="43.94172" lon="5.15364">
        <ele>609.4</ele>
        <time>2015-11-15T09:59:23Z</time>
      </trkpt>
      <trkpt lat="43.9418" lon="5.15358">
        <ele>610.1</ele>
        <time>2015-11-15T09:59:30Z</time>
      </trkpt>
      <trkpt lat="43.94187" lon="5.15349">
        <ele>612.9</ele>
        <time>2015-11-15T10:00:13Z</time>
      </trkpt>
      <trkpt lat="43.94193" lon="5.15339">
        <ele>613.1</ele>
        <time>2015-11-15T10:00:24Z</time>
      </trkpt>
      <trkpt lat="43.94201" lon="5.15332">
        <ele>613.5</ele>
        <time>2015-11-15T10:00:31Z</time>
      </trkpt>
      <trkpt lat="43.94209" lon="5.15325">
        <ele>613.9</ele>
        <time>2015-11-15T10:00:39Z</time>
      </trkpt>
      <trkpt lat="43.94219" lon="5.15319">
        <ele>614.5</ele>
        <time>2015-11-15T10:00:51Z</time>
      </trkpt>
      <trkpt lat="43.94225" lon="5.15308">
        <ele>615</ele>
        <time>2015-11-15T10:00:58Z</time>
      </trkpt>
      <trkpt lat="43.94233" lon="5.15303">
        <ele>615.5</ele>
        <time>2015-11-15T10:01:05Z</time>
      </trkpt>
      <trkpt lat="43.94239" lon="5.15291">
        <ele>616.1</ele>
        <time>2015-11-15T10:01:11Z</time>
      </trkpt>
      <trkpt lat="43.94247" lon="5.15284">
        <ele>616.7</ele>
        <time>2015-11-15T10:01:18Z</time>
      </trkpt>
      <trkpt lat="43.94256" lon="5.15276">
        <ele>617.4</ele>
        <time>2015-11-15T10:01:25Z</time>
      </trkpt>
      <trkpt lat="43.94262" lon="5.15267">
        <ele>619.7</ele>
        <time>2015-11-15T10:01:46Z</time>
      </trkpt>
      <trkpt lat="43.94269" lon="5.15258">
        <ele>620.3</ele>
        <time>2015-11-15T10:01:53Z</time>
      </trkpt>
      <trkpt lat="43.94278" lon="5.15254">
        <ele>620.9</ele>
        <time>2015-11-15T10:02:02Z</time>
      </trkpt>
      <trkpt lat="43.94288" lon="5.1525">
        <ele>621.8</ele>
        <time>2015-11-15T10:02:10Z</time>
      </trkpt>
      <trkpt lat="43.94296" lon="5.15244">
        <ele>623.2</ele>
        <time>2015-11-15T10:02:20Z</time>
      </trkpt>
      <trkpt lat="43.94305" lon="5.15238">
        <ele>624.7</ele>
        <time>2015-11-15T10:02:29Z</time>
      </trkpt>
      <trkpt lat="43.94314" lon="5.15234">
        <ele>625.9</ele>
        <time>2015-11-15T10:02:39Z</time>
      </trkpt>
      <trkpt lat="43.94323" lon="5.15229">
        <ele>626.9</ele>
        <time>2015-11-15T10:02:45Z</time>
      </trkpt>
      <trkpt lat="43.94331" lon="5.15225">
        <ele>628.4</ele>
        <time>2015-11-15T10:02:57Z</time>
      </trkpt>
      <trkpt lat="43.9434" lon="5.1522">
        <ele>629.1</ele>
        <time>2015-11-15T10:03:04Z</time>
      </trkpt>
      <trkpt lat="43.94349" lon="5.15217">
        <ele>629.6</ele>
        <time>2015-11-15T10:03:09Z</time>
      </trkpt>
      <trkpt lat="43.94357" lon="5.1521">
        <ele>630.6</ele>
        <time>2015-11-15T10:03:18Z</time>
      </trkpt>
      <trkpt lat="43.94366" lon="5.15208">
        <ele>631.4</ele>
        <time>2015-11-15T10:03:25Z</time>
      </trkpt>
      <trkpt lat="43.94376" lon="5.15206">
        <ele>632.2</ele>
        <time>2015-11-15T10:03:32Z</time>
      </trkpt>
      <trkpt lat="43.94385" lon="5.15203">
        <ele>632.8</ele>
        <time>2015-11-15T10:03:38Z</time>
      </trkpt>
      <trkpt lat="43.94395" lon="5.152">
        <ele>633.4</ele>
        <time>2015-11-15T10:03:45Z</time>
      </trkpt>
      <trkpt lat="43.94404" lon="5.15197">
        <ele>633.9</ele>
        <time>2015-11-15T10:03:51Z</time>
      </trkpt>
      <trkpt lat="43.94415" lon="5.15193">
        <ele>635.7</ele>
        <time>2015-11-15T10:04:28Z</time>
      </trkpt>
      <trkpt lat="43.94421" lon="5.15202">
        <ele>636.5</ele>
        <time>2015-11-15T10:05:28Z</time>
      </trkpt>
      <trkpt lat="43.94424" lon="5.15215">
        <ele>636.3</ele>
        <time>2015-11-15T10:05:39Z</time>
      </trkpt>
      <trkpt lat="43.9443" lon="5.15226">
        <ele>636</ele>
        <time>2015-11-15T10:05:48Z</time>
      </trkpt>
      <trkpt lat="43.94434" lon="5.15237">
        <ele>635.9</ele>
        <time>2015-11-15T10:05:55Z</time>
      </trkpt>
      <trkpt lat="43.94441" lon="5.15249">
        <ele>635.8</ele>
        <time>2015-11-15T10:06:01Z</time>
      </trkpt>
      <trkpt lat="43.94446" lon="5.1526">
        <ele>635.6</ele>
        <time>2015-11-15T10:06:08Z</time>
      </trkpt>
      <trkpt lat="43.94451" lon="5.1527">
        <ele>635.3</ele>
        <time>2015-11-15T10:06:16Z</time>
      </trkpt>
      <trkpt lat="43.94457" lon="5.15282">
        <ele>635</ele>
        <time>2015-11-15T10:06:26Z</time>
      </trkpt>
      <trkpt lat="43.9446" lon="5.15295">
        <ele>634.8</ele>
        <time>2015-11-15T10:06:36Z</time>
      </trkpt>
      <trkpt lat="43.94462" lon="5.15307">
        <ele>634.7</ele>
        <time>2015-11-15T10:06:42Z</time>
      </trkpt>
      <trkpt lat="43.94466" lon="5.15319">
        <ele>634.5</ele>
        <time>2015-11-15T10:06:53Z</time>
      </trkpt>
      <trkpt lat="43.94472" lon="5.15331">
        <ele>634.5</ele>
        <time>2015-11-15T10:07:00Z</time>
      </trkpt>
      <trkpt lat="43.94477" lon="5.15342">
        <ele>634.3</ele>
        <time>2015-11-15T10:07:08Z</time>
      </trkpt>
      <trkpt lat="43.94482" lon="5.15353">
        <ele>634.2</ele>
        <time>2015-11-15T10:07:15Z</time>
      </trkpt>
      <trkpt lat="43.94486" lon="5.15365">
        <ele>634</ele>
        <time>2015-11-15T10:07:22Z</time>
      </trkpt>
      <trkpt lat="43.94491" lon="5.15378">
        <ele>633.7</ele>
        <time>2015-11-15T10:07:33Z</time>
      </trkpt>
      <trkpt lat="43.9449" lon="5.15392">
        <ele>633.6</ele>
        <time>2015-11-15T10:07:37Z</time>
      </trkpt>
      <trkpt lat="43.94498" lon="5.15401">
        <ele>633.1</ele>
        <time>2015-11-15T10:07:43Z</time>
      </trkpt>
      <trkpt lat="43.94506" lon="5.15409">
        <ele>632.8</ele>
        <time>2015-11-15T10:07:50Z</time>
      </trkpt>
      <trkpt lat="43.94511" lon="5.15421">
        <ele>632.6</ele>
        <time>2015-11-15T10:07:57Z</time>
      </trkpt>
      <trkpt lat="43.94518" lon="5.15431">
        <ele>632.5</ele>
        <time>2015-11-15T10:08:03Z</time>
      </trkpt>
      <trkpt lat="43.94522" lon="5.15442">
        <ele>632.4</ele>
        <time>2015-11-15T10:08:08Z</time>
      </trkpt>
      <trkpt lat="43.94524" lon="5.15456">
        <ele>632.4</ele>
        <time>2015-11-15T10:08:15Z</time>
      </trkpt>
      <trkpt lat="43.94529" lon="5.15467">
        <ele>632.3</ele>
        <time>2015-11-15T10:08:28Z</time>
      </trkpt>
      <trkpt lat="43.94536" lon="5.15475">
        <ele>632.2</ele>
        <time>2015-11-15T10:08:35Z</time>
      </trkpt>
      <trkpt lat="43.94543" lon="5.15483">
        <ele>632.2</ele>
        <time>2015-11-15T10:08:41Z</time>
      </trkpt>
      <trkpt lat="43.94547" lon="5.15496">
        <ele>632</ele>
        <time>2015-11-15T10:08:48Z</time>
      </trkpt>
      <trkpt lat="43.94553" lon="5.15506">
        <ele>631.9</ele>
        <time>2015-11-15T10:08:56Z</time>
      </trkpt>
      <trkpt lat="43.9456" lon="5.15514">
        <ele>631.9</ele>
        <time>2015-11-15T10:09:03Z</time>
      </trkpt>
      <trkpt lat="43.94567" lon="5.15522">
        <ele>631.7</ele>
        <time>2015-11-15T10:09:12Z</time>
      </trkpt>
      <trkpt lat="43.94576" lon="5.15531">
        <ele>631.5</ele>
        <time>2015-11-15T10:09:18Z</time>
      </trkpt>
      <trkpt lat="43.94583" lon="5.15542">
        <ele>631.3</ele>
        <time>2015-11-15T10:09:26Z</time>
      </trkpt>
      <trkpt lat="43.94591" lon="5.1555">
        <ele>631.3</ele>
        <time>2015-11-15T10:09:31Z</time>
      </trkpt>
      <trkpt lat="43.94598" lon="5.15557">
        <ele>631.2</ele>
        <time>2015-11-15T10:09:37Z</time>
      </trkpt>
      <trkpt lat="43.94607" lon="5.15568">
        <ele>631.2</ele>
        <time>2015-11-15T10:09:43Z</time>
      </trkpt>
      <trkpt lat="43.94613" lon="5.15578">
        <ele>631.3</ele>
        <time>2015-11-15T10:09:50Z</time>
      </trkpt>
      <trkpt lat="43.9462" lon="5.15587">
        <ele>631.4</ele>
        <time>2015-11-15T10:10:01Z</time>
      </trkpt>
      <trkpt lat="43.94624" lon="5.156">
        <ele>631.4</ele>
        <time>2015-11-15T10:10:08Z</time>
      </trkpt>
      <trkpt lat="43.94631" lon="5.15611">
        <ele>631.4</ele>
        <time>2015-11-15T10:10:14Z</time>
      </trkpt>
      <trkpt lat="43.94639" lon="5.15618">
        <ele>631.4</ele>
        <time>2015-11-15T10:10:20Z</time>
      </trkpt>
      <trkpt lat="43.94649" lon="5.15621">
        <ele>631.4</ele>
        <time>2015-11-15T10:10:26Z</time>
      </trkpt>
      <trkpt lat="43.94658" lon="5.15627">
        <ele>631.3</ele>
        <time>2015-11-15T10:10:32Z</time>
      </trkpt>
      <trkpt lat="43.94666" lon="5.15633">
        <ele>631.4</ele>
        <time>2015-11-15T10:10:38Z</time>
      </trkpt>
      <trkpt lat="43.94674" lon="5.15641">
        <ele>631.5</ele>
        <time>2015-11-15T10:10:44Z</time>
      </trkpt>
      <trkpt lat="43.94677" lon="5.15655">
        <ele>631.6</ele>
        <time>2015-11-15T10:10:52Z</time>
      </trkpt>
      <trkpt lat="43.94683" lon="5.15666">
        <ele>631.6</ele>
        <time>2015-11-15T10:11:01Z</time>
      </trkpt>
      <trkpt lat="43.94689" lon="5.15676">
        <ele>631.5</ele>
        <time>2015-11-15T10:11:09Z</time>
      </trkpt>
      <trkpt lat="43.94699" lon="5.15686">
        <ele>631.4</ele>
        <time>2015-11-15T10:11:13Z</time>
      </trkpt>
      <trkpt lat="43.94706" lon="5.15694">
        <ele>631.2</ele>
        <time>2015-11-15T10:11:20Z</time>
      </trkpt>
      <trkpt lat="43.94715" lon="5.15702">
        <ele>630.9</ele>
        <time>2015-11-15T10:11:28Z</time>
      </trkpt>
      <trkpt lat="43.94723" lon="5.15708">
        <ele>630.8</ele>
        <time>2015-11-15T10:11:33Z</time>
      </trkpt>
      <trkpt lat="43.94731" lon="5.15713">
        <ele>630.7</ele>
        <time>2015-11-15T10:11:39Z</time>
      </trkpt>
      <trkpt lat="43.9474" lon="5.15718">
        <ele>630.5</ele>
        <time>2015-11-15T10:11:44Z</time>
      </trkpt>
      <trkpt lat="43.94749" lon="5.15723">
        <ele>630.4</ele>
        <time>2015-11-15T10:11:48Z</time>
      </trkpt>
      <trkpt lat="43.94758" lon="5.15725">
        <ele>630.3</ele>
        <time>2015-11-15T10:11:54Z</time>
      </trkpt>
      <trkpt lat="43.94767" lon="5.15729">
        <ele>630.2</ele>
        <time>2015-11-15T10:12:00Z</time>
      </trkpt>
      <trkpt lat="43.94776" lon="5.15736">
        <ele>629.9</ele>
        <time>2015-11-15T10:12:08Z</time>
      </trkpt>
      <trkpt lat="43.94787" lon="5.15739">
        <ele>629.8</ele>
        <time>2015-11-15T10:12:13Z</time>
      </trkpt>
      <trkpt lat="43.94796" lon="5.15741">
        <ele>629.4</ele>
        <time>2015-11-15T10:12:18Z</time>
      </trkpt>
      <trkpt lat="43.94806" lon="5.1574">
        <ele>629.1</ele>
        <time>2015-11-15T10:12:24Z</time>
      </trkpt>
      <trkpt lat="43.94816" lon="5.1574">
        <ele>628.8</ele>
        <time>2015-11-15T10:12:31Z</time>
      </trkpt>
      <trkpt lat="43.94826" lon="5.15739">
        <ele>628.5</ele>
        <time>2015-11-15T10:12:37Z</time>
      </trkpt>
      <trkpt lat="43.94835" lon="5.15739">
        <ele>628.2</ele>
        <time>2015-11-15T10:12:42Z</time>
      </trkpt>
      <trkpt lat="43.94845" lon="5.15736">
        <ele>627.8</ele>
        <time>2015-11-15T10:12:48Z</time>
      </trkpt>
      <trkpt lat="43.94855" lon="5.15736">
        <ele>627.3</ele>
        <time>2015-11-15T10:12:54Z</time>
      </trkpt>
      <trkpt lat="43.94865" lon="5.15737">
        <ele>626.9</ele>
        <time>2015-11-15T10:13:01Z</time>
      </trkpt>
      <trkpt lat="43.94875" lon="5.15736">
        <ele>626.6</ele>
        <time>2015-11-15T10:13:07Z</time>
      </trkpt>
      <trkpt lat="43.94885" lon="5.15734">
        <ele>626.4</ele>
        <time>2015-11-15T10:13:12Z</time>
      </trkpt>
      <trkpt lat="43.94893" lon="5.15729">
        <ele>626.2</ele>
        <time>2015-11-15T10:13:16Z</time>
      </trkpt>
      <trkpt lat="43.94902" lon="5.15727">
        <ele>626</ele>
        <time>2015-11-15T10:13:23Z</time>
      </trkpt>
      <trkpt lat="43.94912" lon="5.15732">
        <ele>625.6</ele>
        <time>2015-11-15T10:13:29Z</time>
      </trkpt>
      <trkpt lat="43.94922" lon="5.1573">
        <ele>625.2</ele>
        <time>2015-11-15T10:13:34Z</time>
      </trkpt>
      <trkpt lat="43.94929" lon="5.1572">
        <ele>624.7</ele>
        <time>2015-11-15T10:13:40Z</time>
      </trkpt>
      <trkpt lat="43.94934" lon="5.15709">
        <ele>624.2</ele>
        <time>2015-11-15T10:13:45Z</time>
      </trkpt>
      <trkpt lat="43.94936" lon="5.15695">
        <ele>623.8</ele>
        <time>2015-11-15T10:13:51Z</time>
      </trkpt>
      <trkpt lat="43.94938" lon="5.15683">
        <ele>623.5</ele>
        <time>2015-11-15T10:13:56Z</time>
      </trkpt>
      <trkpt lat="43.94941" lon="5.15669">
        <ele>623.3</ele>
        <time>2015-11-15T10:14:03Z</time>
      </trkpt>
      <trkpt lat="43.94944" lon="5.15655">
        <ele>623.1</ele>
        <time>2015-11-15T10:14:09Z</time>
      </trkpt>
      <trkpt lat="43.94945" lon="5.15642">
        <ele>623</ele>
        <time>2015-11-15T10:14:15Z</time>
      </trkpt>
      <trkpt lat="43.94947" lon="5.15627">
        <ele>622.7</ele>
        <time>2015-11-15T10:14:23Z</time>
      </trkpt>
      <trkpt lat="43.94951" lon="5.15613">
        <ele>622.1</ele>
        <time>2015-11-15T10:14:30Z</time>
      </trkpt>
      <trkpt lat="43.94956" lon="5.15602">
        <ele>621.7</ele>
        <time>2015-11-15T10:14:36Z</time>
      </trkpt>
      <trkpt lat="43.94962" lon="5.15591">
        <ele>621.3</ele>
        <time>2015-11-15T10:14:41Z</time>
      </trkpt>
      <trkpt lat="43.94969" lon="5.15583">
        <ele>620.9</ele>
        <time>2015-11-15T10:14:48Z</time>
      </trkpt>
      <trkpt lat="43.94974" lon="5.15573">
        <ele>620.5</ele>
        <time>2015-11-15T10:14:53Z</time>
      </trkpt>
      <trkpt lat="43.94983" lon="5.15565">
        <ele>619</ele>
        <time>2015-11-15T10:15:55Z</time>
      </trkpt>
      <trkpt lat="43.94986" lon="5.15579">
        <ele>618.9</ele>
        <time>2015-11-15T10:16:03Z</time>
      </trkpt>
      <trkpt lat="43.94988" lon="5.15592">
        <ele>618.9</ele>
        <time>2015-11-15T10:16:09Z</time>
      </trkpt>
      <trkpt lat="43.94989" lon="5.15606">
        <ele>618.8</ele>
        <time>2015-11-15T10:16:15Z</time>
      </trkpt>
      <trkpt lat="43.94991" lon="5.1562">
        <ele>618.7</ele>
        <time>2015-11-15T10:16:22Z</time>
      </trkpt>
      <trkpt lat="43.94995" lon="5.15632">
        <ele>618.7</ele>
        <time>2015-11-15T10:16:29Z</time>
      </trkpt>
      <trkpt lat="43.95004" lon="5.15638">
        <ele>618.9</ele>
        <time>2015-11-15T10:16:36Z</time>
      </trkpt>
      <trkpt lat="43.95013" lon="5.15644">
        <ele>619</ele>
        <time>2015-11-15T10:16:41Z</time>
      </trkpt>
      <trkpt lat="43.95022" lon="5.15649">
        <ele>619.2</ele>
        <time>2015-11-15T10:16:47Z</time>
      </trkpt>
      <trkpt lat="43.9503" lon="5.15654">
        <ele>619.6</ele>
        <time>2015-11-15T10:16:55Z</time>
      </trkpt>
      <trkpt lat="43.95039" lon="5.15658">
        <ele>619.8</ele>
        <time>2015-11-15T10:17:00Z</time>
      </trkpt>
      <trkpt lat="43.95048" lon="5.15666">
        <ele>620</ele>
        <time>2015-11-15T10:17:05Z</time>
      </trkpt>
      <trkpt lat="43.95057" lon="5.1567">
        <ele>620.3</ele>
        <time>2015-11-15T10:17:13Z</time>
      </trkpt>
      <trkpt lat="43.95067" lon="5.15675">
        <ele>620.7</ele>
        <time>2015-11-15T10:17:20Z</time>
      </trkpt>
      <trkpt lat="43.95076" lon="5.15679">
        <ele>621.5</ele>
        <time>2015-11-15T10:17:29Z</time>
      </trkpt>
      <trkpt lat="43.95085" lon="5.15679">
        <ele>622.1</ele>
        <time>2015-11-15T10:17:34Z</time>
      </trkpt>
      <trkpt lat="43.95095" lon="5.15684">
        <ele>622.4</ele>
        <time>2015-11-15T10:17:38Z</time>
      </trkpt>
      <trkpt lat="43.95104" lon="5.15683">
        <ele>623</ele>
        <time>2015-11-15T10:17:50Z</time>
      </trkpt>
      <trkpt lat="43.95113" lon="5.15681">
        <ele>623.7</ele>
        <time>2015-11-15T10:18:01Z</time>
      </trkpt>
      <trkpt lat="43.95122" lon="5.15682">
        <ele>624.4</ele>
        <time>2015-11-15T10:18:08Z</time>
      </trkpt>
      <trkpt lat="43.95133" lon="5.15683">
        <ele>625</ele>
        <time>2015-11-15T10:18:15Z</time>
      </trkpt>
      <trkpt lat="43.95143" lon="5.15683">
        <ele>625.6</ele>
        <time>2015-11-15T10:18:23Z</time>
      </trkpt>
      <trkpt lat="43.95152" lon="5.15686">
        <ele>625.9</ele>
        <time>2015-11-15T10:18:30Z</time>
      </trkpt>
      <trkpt lat="43.95162" lon="5.15689">
        <ele>626.5</ele>
        <time>2015-11-15T10:18:37Z</time>
      </trkpt>
      <trkpt lat="43.95171" lon="5.15692">
        <ele>626.9</ele>
        <time>2015-11-15T10:18:45Z</time>
      </trkpt>
      <trkpt lat="43.95181" lon="5.15692">
        <ele>627</ele>
        <time>2015-11-15T10:18:50Z</time>
      </trkpt>
      <trkpt lat="43.95191" lon="5.15691">
        <ele>627.1</ele>
        <time>2015-11-15T10:18:57Z</time>
      </trkpt>
      <trkpt lat="43.95202" lon="5.15689">
        <ele>627.1</ele>
        <time>2015-11-15T10:19:04Z</time>
      </trkpt>
      <trkpt lat="43.95211" lon="5.1569">
        <ele>627</ele>
        <time>2015-11-15T10:19:09Z</time>
      </trkpt>
      <trkpt lat="43.95221" lon="5.15691">
        <ele>626.9</ele>
        <time>2015-11-15T10:19:15Z</time>
      </trkpt>
      <trkpt lat="43.95228" lon="5.157">
        <ele>626.8</ele>
        <time>2015-11-15T10:19:22Z</time>
      </trkpt>
      <trkpt lat="43.95236" lon="5.15707">
        <ele>626.5</ele>
        <time>2015-11-15T10:19:28Z</time>
      </trkpt>
      <trkpt lat="43.95245" lon="5.15711">
        <ele>625.9</ele>
        <time>2015-11-15T10:19:34Z</time>
      </trkpt>
      <trkpt lat="43.95255" lon="5.15713">
        <ele>625.3</ele>
        <time>2015-11-15T10:19:40Z</time>
      </trkpt>
      <trkpt lat="43.95265" lon="5.15711">
        <ele>625</ele>
        <time>2015-11-15T10:19:46Z</time>
      </trkpt>
      <trkpt lat="43.95274" lon="5.15707">
        <ele>624.7</ele>
        <time>2015-11-15T10:19:51Z</time>
      </trkpt>
      <trkpt lat="43.95284" lon="5.15704">
        <ele>624.5</ele>
        <time>2015-11-15T10:19:57Z</time>
      </trkpt>
      <trkpt lat="43.95294" lon="5.15703">
        <ele>624.4</ele>
        <time>2015-11-15T10:20:03Z</time>
      </trkpt>
      <trkpt lat="43.95304" lon="5.15702">
        <ele>624</ele>
        <time>2015-11-15T10:20:10Z</time>
      </trkpt>
      <trkpt lat="43.95314" lon="5.15705">
        <ele>623.8</ele>
        <time>2015-11-15T10:20:15Z</time>
      </trkpt>
      <trkpt lat="43.95324" lon="5.15707">
        <ele>623.4</ele>
        <time>2015-11-15T10:20:21Z</time>
      </trkpt>
      <trkpt lat="43.95333" lon="5.15708">
        <ele>623</ele>
        <time>2015-11-15T10:20:27Z</time>
      </trkpt>
      <trkpt lat="43.95343" lon="5.1571">
        <ele>622.6</ele>
        <time>2015-11-15T10:20:34Z</time>
      </trkpt>
      <trkpt lat="43.95352" lon="5.15712">
        <ele>622.1</ele>
        <time>2015-11-15T10:20:41Z</time>
      </trkpt>
      <trkpt lat="43.95362" lon="5.15715">
        <ele>621.8</ele>
        <time>2015-11-15T10:20:47Z</time>
      </trkpt>
      <trkpt lat="43.95372" lon="5.15717">
        <ele>621.3</ele>
        <time>2015-11-15T10:20:54Z</time>
      </trkpt>
      <trkpt lat="43.95382" lon="5.15719">
        <ele>620.9</ele>
        <time>2015-11-15T10:20:59Z</time>
      </trkpt>
      <trkpt lat="43.95392" lon="5.1572">
        <ele>620.6</ele>
        <time>2015-11-15T10:21:05Z</time>
      </trkpt>
      <trkpt lat="43.95402" lon="5.15719">
        <ele>620.3</ele>
        <time>2015-11-15T10:21:12Z</time>
      </trkpt>
      <trkpt lat="43.95412" lon="5.1572">
        <ele>620.1</ele>
        <time>2015-11-15T10:21:17Z</time>
      </trkpt>
      <trkpt lat="43.95421" lon="5.15721">
        <ele>620</ele>
        <time>2015-11-15T10:21:22Z</time>
      </trkpt>
      <trkpt lat="43.95431" lon="5.1572">
        <ele>619.8</ele>
        <time>2015-11-15T10:21:29Z</time>
      </trkpt>
      <trkpt lat="43.95441" lon="5.1572">
        <ele>619.6</ele>
        <time>2015-11-15T10:21:36Z</time>
      </trkpt>
      <trkpt lat="43.9545" lon="5.15719">
        <ele>619.4</ele>
        <time>2015-11-15T10:21:44Z</time>
      </trkpt>
      <trkpt lat="43.95459" lon="5.15719">
        <ele>619.3</ele>
        <time>2015-11-15T10:21:51Z</time>
      </trkpt>
      <trkpt lat="43.95469" lon="5.15721">
        <ele>619.2</ele>
        <time>2015-11-15T10:21:57Z</time>
      </trkpt>
      <trkpt lat="43.95478" lon="5.15726">
        <ele>619.1</ele>
        <time>2015-11-15T10:22:04Z</time>
      </trkpt>
      <trkpt lat="43.95487" lon="5.1573">
        <ele>619</ele>
        <time>2015-11-15T10:22:15Z</time>
      </trkpt>
      <trkpt lat="43.95497" lon="5.15733">
        <ele>618.9</ele>
        <time>2015-11-15T10:22:30Z</time>
      </trkpt>
      <trkpt lat="43.9549" lon="5.15744">
        <ele>616.2</ele>
        <time>2015-11-15T10:26:09Z</time>
      </trkpt>
      <trkpt lat="43.95488" lon="5.15759">
        <ele>616</ele>
        <time>2015-11-15T10:26:14Z</time>
      </trkpt>
      <trkpt lat="43.95486" lon="5.15773">
        <ele>615.9</ele>
        <time>2015-11-15T10:26:21Z</time>
      </trkpt>
      <trkpt lat="43.95492" lon="5.15782">
        <ele>615.8</ele>
        <time>2015-11-15T10:26:26Z</time>
      </trkpt>
      <trkpt lat="43.95497" lon="5.15794">
        <ele>615.8</ele>
        <time>2015-11-15T10:26:34Z</time>
      </trkpt>
      <trkpt lat="43.95498" lon="5.15807">
        <ele>615.8</ele>
        <time>2015-11-15T10:26:39Z</time>
      </trkpt>
      <trkpt lat="43.95498" lon="5.1582">
        <ele>615.8</ele>
        <time>2015-11-15T10:26:47Z</time>
      </trkpt>
      <trkpt lat="43.95496" lon="5.15833">
        <ele>615.9</ele>
        <time>2015-11-15T10:26:56Z</time>
      </trkpt>
      <trkpt lat="43.95492" lon="5.15845">
        <ele>615.9</ele>
        <time>2015-11-15T10:27:04Z</time>
      </trkpt>
      <trkpt lat="43.95488" lon="5.15856">
        <ele>616.1</ele>
        <time>2015-11-15T10:27:12Z</time>
      </trkpt>
      <trkpt lat="43.95483" lon="5.15868">
        <ele>616.1</ele>
        <time>2015-11-15T10:27:18Z</time>
      </trkpt>
      <trkpt lat="43.95479" lon="5.1588">
        <ele>616.3</ele>
        <time>2015-11-15T10:27:23Z</time>
      </trkpt>
      <trkpt lat="43.95473" lon="5.15891">
        <ele>616.4</ele>
        <time>2015-11-15T10:27:29Z</time>
      </trkpt>
      <trkpt lat="43.95468" lon="5.15903">
        <ele>616.5</ele>
        <time>2015-11-15T10:27:36Z</time>
      </trkpt>
      <trkpt lat="43.95465" lon="5.15916">
        <ele>616.5</ele>
        <time>2015-11-15T10:27:45Z</time>
      </trkpt>
      <trkpt lat="43.95464" lon="5.15929">
        <ele>616.6</ele>
        <time>2015-11-15T10:27:52Z</time>
      </trkpt>
      <trkpt lat="43.95461" lon="5.15941">
        <ele>616.6</ele>
        <time>2015-11-15T10:27:58Z</time>
      </trkpt>
      <trkpt lat="43.95458" lon="5.15953">
        <ele>616.7</ele>
        <time>2015-11-15T10:28:04Z</time>
      </trkpt>
      <trkpt lat="43.95457" lon="5.15966">
        <ele>616.8</ele>
        <time>2015-11-15T10:28:12Z</time>
      </trkpt>
      <trkpt lat="43.95454" lon="5.15979">
        <ele>616.9</ele>
        <time>2015-11-15T10:28:17Z</time>
      </trkpt>
      <trkpt lat="43.95456" lon="5.15992">
        <ele>617.1</ele>
        <time>2015-11-15T10:28:25Z</time>
      </trkpt>
      <trkpt lat="43.95456" lon="5.16005">
        <ele>617.2</ele>
        <time>2015-11-15T10:28:30Z</time>
      </trkpt>
      <trkpt lat="43.95457" lon="5.16018">
        <ele>617.3</ele>
        <time>2015-11-15T10:28:35Z</time>
      </trkpt>
      <trkpt lat="43.95461" lon="5.16031">
        <ele>617.4</ele>
        <time>2015-11-15T10:28:41Z</time>
      </trkpt>
      <trkpt lat="43.95464" lon="5.16043">
        <ele>617.5</ele>
        <time>2015-11-15T10:28:48Z</time>
      </trkpt>
      <trkpt lat="43.95469" lon="5.16055">
        <ele>617.6</ele>
        <time>2015-11-15T10:28:56Z</time>
      </trkpt>
      <trkpt lat="43.95477" lon="5.16064">
        <ele>617.6</ele>
        <time>2015-11-15T10:29:01Z</time>
      </trkpt>
      <trkpt lat="43.95482" lon="5.16075">
        <ele>617.6</ele>
        <time>2015-11-15T10:29:08Z</time>
      </trkpt>
      <trkpt lat="43.95488" lon="5.16085">
        <ele>617.6</ele>
        <time>2015-11-15T10:29:14Z</time>
      </trkpt>
      <trkpt lat="43.95494" lon="5.16095">
        <ele>617.6</ele>
        <time>2015-11-15T10:29:20Z</time>
      </trkpt>
      <trkpt lat="43.95502" lon="5.16105">
        <ele>617.6</ele>
        <time>2015-11-15T10:29:27Z</time>
      </trkpt>
      <trkpt lat="43.95507" lon="5.16115">
        <ele>617.5</ele>
        <time>2015-11-15T10:29:33Z</time>
      </trkpt>
      <trkpt lat="43.95512" lon="5.16127">
        <ele>617.4</ele>
        <time>2015-11-15T10:29:38Z</time>
      </trkpt>
      <trkpt lat="43.95518" lon="5.16138">
        <ele>617.3</ele>
        <time>2015-11-15T10:29:45Z</time>
      </trkpt>
      <trkpt lat="43.95526" lon="5.16148">
        <ele>617.2</ele>
        <time>2015-11-15T10:29:52Z</time>
      </trkpt>
      <trkpt lat="43.95532" lon="5.16158">
        <ele>617.2</ele>
        <time>2015-11-15T10:29:58Z</time>
      </trkpt>
      <trkpt lat="43.95537" lon="5.1617">
        <ele>617.3</ele>
        <time>2015-11-15T10:30:04Z</time>
      </trkpt>
      <trkpt lat="43.95542" lon="5.16182">
        <ele>617.4</ele>
        <time>2015-11-15T10:30:11Z</time>
      </trkpt>
      <trkpt lat="43.95549" lon="5.16192">
        <ele>617.9</ele>
        <time>2015-11-15T10:30:18Z</time>
      </trkpt>
      <trkpt lat="43.95557" lon="5.162">
        <ele>618.2</ele>
        <time>2015-11-15T10:30:24Z</time>
      </trkpt>
      <trkpt lat="43.95567" lon="5.16203">
        <ele>618.4</ele>
        <time>2015-11-15T10:30:29Z</time>
      </trkpt>
      <trkpt lat="43.95576" lon="5.16209">
        <ele>618.5</ele>
        <time>2015-11-15T10:30:35Z</time>
      </trkpt>
      <trkpt lat="43.95585" lon="5.16214">
        <ele>618.6</ele>
        <time>2015-11-15T10:30:40Z</time>
      </trkpt>
      <trkpt lat="43.95592" lon="5.16223">
        <ele>618.7</ele>
        <time>2015-11-15T10:30:47Z</time>
      </trkpt>
      <trkpt lat="43.95595" lon="5.16235">
        <ele>618.7</ele>
        <time>2015-11-15T10:30:54Z</time>
      </trkpt>
      <trkpt lat="43.95602" lon="5.16247">
        <ele>618.3</ele>
        <time>2015-11-15T10:31:01Z</time>
      </trkpt>
      <trkpt lat="43.95606" lon="5.16258">
        <ele>617.8</ele>
        <time>2015-11-15T10:31:05Z</time>
      </trkpt>
      <trkpt lat="43.95611" lon="5.16269">
        <ele>617</ele>
        <time>2015-11-15T10:31:11Z</time>
      </trkpt>
      <trkpt lat="43.95615" lon="5.16283">
        <ele>616</ele>
        <time>2015-11-15T10:31:18Z</time>
      </trkpt>
      <trkpt lat="43.9562" lon="5.16296">
        <ele>615.4</ele>
        <time>2015-11-15T10:31:22Z</time>
      </trkpt>
      <trkpt lat="43.95628" lon="5.16304">
        <ele>614.1</ele>
        <time>2015-11-15T10:31:29Z</time>
      </trkpt>
      <trkpt lat="43.9563" lon="5.16317">
        <ele>611.7</ele>
        <time>2015-11-15T10:31:45Z</time>
      </trkpt>
      <trkpt lat="43.95638" lon="5.16325">
        <ele>610.8</ele>
        <time>2015-11-15T10:31:52Z</time>
      </trkpt>
      <trkpt lat="43.95648" lon="5.16327">
        <ele>610</ele>
        <time>2015-11-15T10:31:57Z</time>
      </trkpt>
      <trkpt lat="43.95657" lon="5.16333">
        <ele>609.1</ele>
        <time>2015-11-15T10:32:03Z</time>
      </trkpt>
      <trkpt lat="43.95664" lon="5.16343">
        <ele>607.8</ele>
        <time>2015-11-15T10:32:10Z</time>
      </trkpt>
      <trkpt lat="43.9567" lon="5.16354">
        <ele>606.6</ele>
        <time>2015-11-15T10:32:17Z</time>
      </trkpt>
      <trkpt lat="43.95667" lon="5.16368">
        <ele>605.7</ele>
        <time>2015-11-15T10:32:22Z</time>
      </trkpt>
      <trkpt lat="43.95665" lon="5.16382">
        <ele>604.7</ele>
        <time>2015-11-15T10:32:27Z</time>
      </trkpt>
      <trkpt lat="43.95661" lon="5.16395">
        <ele>603.8</ele>
        <time>2015-11-15T10:32:32Z</time>
      </trkpt>
      <trkpt lat="43.95655" lon="5.16406">
        <ele>602.7</ele>
        <time>2015-11-15T10:32:38Z</time>
      </trkpt>
      <trkpt lat="43.95649" lon="5.16418">
        <ele>601.6</ele>
        <time>2015-11-15T10:32:44Z</time>
      </trkpt>
      <trkpt lat="43.95648" lon="5.16431">
        <ele>600.2</ele>
        <time>2015-11-15T10:32:51Z</time>
      </trkpt>
      <trkpt lat="43.95649" lon="5.16445">
        <ele>598.8</ele>
        <time>2015-11-15T10:32:58Z</time>
      </trkpt>
      <trkpt lat="43.95651" lon="5.16458">
        <ele>597.4</ele>
        <time>2015-11-15T10:33:05Z</time>
      </trkpt>
      <trkpt lat="43.95646" lon="5.16471">
        <ele>596.1</ele>
        <time>2015-11-15T10:33:12Z</time>
      </trkpt>
      <trkpt lat="43.95645" lon="5.16484">
        <ele>595.2</ele>
        <time>2015-11-15T10:33:18Z</time>
      </trkpt>
      <trkpt lat="43.95644" lon="5.16501">
        <ele>594.6</ele>
        <time>2015-11-15T10:33:23Z</time>
      </trkpt>
      <trkpt lat="43.9564" lon="5.16514">
        <ele>594.2</ele>
        <time>2015-11-15T10:33:27Z</time>
      </trkpt>
      <trkpt lat="43.95637" lon="5.16527">
        <ele>593.5</ele>
        <time>2015-11-15T10:33:32Z</time>
      </trkpt>
      <trkpt lat="43.95637" lon="5.16541">
        <ele>592.9</ele>
        <time>2015-11-15T10:33:39Z</time>
      </trkpt>
      <trkpt lat="43.95634" lon="5.16553">
        <ele>592.2</ele>
        <time>2015-11-15T10:33:44Z</time>
      </trkpt>
      <trkpt lat="43.9563" lon="5.16565">
        <ele>591.3</ele>
        <time>2015-11-15T10:33:53Z</time>
      </trkpt>
      <trkpt lat="43.95623" lon="5.16576">
        <ele>590.8</ele>
        <time>2015-11-15T10:34:00Z</time>
      </trkpt>
      <trkpt lat="43.95616" lon="5.16584">
        <ele>590.5</ele>
        <time>2015-11-15T10:34:06Z</time>
      </trkpt>
      <trkpt lat="43.95609" lon="5.16596">
        <ele>590.1</ele>
        <time>2015-11-15T10:34:12Z</time>
      </trkpt>
      <trkpt lat="43.95603" lon="5.16605">
        <ele>589.5</ele>
        <time>2015-11-15T10:34:20Z</time>
      </trkpt>
      <trkpt lat="43.95598" lon="5.16618">
        <ele>588.9</ele>
        <time>2015-11-15T10:34:28Z</time>
      </trkpt>
      <trkpt lat="43.95607" lon="5.16624">
        <ele>588.4</ele>
        <time>2015-11-15T10:34:36Z</time>
      </trkpt>
      <trkpt lat="43.95618" lon="5.16627">
        <ele>588.2</ele>
        <time>2015-11-15T10:34:42Z</time>
      </trkpt>
      <trkpt lat="43.95627" lon="5.16626">
        <ele>588.1</ele>
        <time>2015-11-15T10:34:46Z</time>
      </trkpt>
      <trkpt lat="43.95636" lon="5.16625">
        <ele>588</ele>
        <time>2015-11-15T10:34:51Z</time>
      </trkpt>
      <trkpt lat="43.95646" lon="5.16624">
        <ele>588</ele>
        <time>2015-11-15T10:34:57Z</time>
      </trkpt>
      <trkpt lat="43.95654" lon="5.16618">
        <ele>587.9</ele>
        <time>2015-11-15T10:35:04Z</time>
      </trkpt>
      <trkpt lat="43.95661" lon="5.1661">
        <ele>588</ele>
        <time>2015-11-15T10:35:12Z</time>
      </trkpt>
      <trkpt lat="43.9567" lon="5.16609">
        <ele>588</ele>
        <time>2015-11-15T10:35:18Z</time>
      </trkpt>
      <trkpt lat="43.95679" lon="5.16608">
        <ele>588.2</ele>
        <time>2015-11-15T10:35:27Z</time>
      </trkpt>
      <trkpt lat="43.95689" lon="5.166">
        <ele>588.3</ele>
        <time>2015-11-15T10:35:33Z</time>
      </trkpt>
      <trkpt lat="43.95696" lon="5.16591">
        <ele>588.3</ele>
        <time>2015-11-15T10:35:39Z</time>
      </trkpt>
      <trkpt lat="43.95702" lon="5.16583">
        <ele>588.3</ele>
        <time>2015-11-15T10:35:45Z</time>
      </trkpt>
      <trkpt lat="43.95711" lon="5.16575">
        <ele>588.1</ele>
        <time>2015-11-15T10:35:51Z</time>
      </trkpt>
      <trkpt lat="43.95721" lon="5.16569">
        <ele>588</ele>
        <time>2015-11-15T10:35:56Z</time>
      </trkpt>
      <trkpt lat="43.95727" lon="5.1656">
        <ele>587.9</ele>
        <time>2015-11-15T10:36:02Z</time>
      </trkpt>
      <trkpt lat="43.95735" lon="5.16554">
        <ele>587.8</ele>
        <time>2015-11-15T10:36:07Z</time>
      </trkpt>
      <trkpt lat="43.95746" lon="5.16551">
        <ele>587.6</ele>
        <time>2015-11-15T10:36:12Z</time>
      </trkpt>
      <trkpt lat="43.95756" lon="5.16549">
        <ele>587.3</ele>
        <time>2015-11-15T10:36:17Z</time>
      </trkpt>
      <trkpt lat="43.95766" lon="5.16545">
        <ele>586.9</ele>
        <time>2015-11-15T10:36:22Z</time>
      </trkpt>
      <trkpt lat="43.95775" lon="5.16542">
        <ele>586.6</ele>
        <time>2015-11-15T10:36:26Z</time>
      </trkpt>
      <trkpt lat="43.95781" lon="5.16529">
        <ele>586</ele>
        <time>2015-11-15T10:36:34Z</time>
      </trkpt>
      <trkpt lat="43.95788" lon="5.16521">
        <ele>585.3</ele>
        <time>2015-11-15T10:36:40Z</time>
      </trkpt>
      <trkpt lat="43.95798" lon="5.16515">
        <ele>584.7</ele>
        <time>2015-11-15T10:36:46Z</time>
      </trkpt>
      <trkpt lat="43.95806" lon="5.1651">
        <ele>584.2</ele>
        <time>2015-11-15T10:36:51Z</time>
      </trkpt>
      <trkpt lat="43.95815" lon="5.16501">
        <ele>583.8</ele>
        <time>2015-11-15T10:36:56Z</time>
      </trkpt>
      <trkpt lat="43.9582" lon="5.16491">
        <ele>583</ele>
        <time>2015-11-15T10:37:04Z</time>
      </trkpt>
      <trkpt lat="43.95829" lon="5.16487">
        <ele>582.5</ele>
        <time>2015-11-15T10:37:10Z</time>
      </trkpt>
      <trkpt lat="43.95838" lon="5.1648">
        <ele>581.9</ele>
        <time>2015-11-15T10:37:17Z</time>
      </trkpt>
      <trkpt lat="43.95847" lon="5.16474">
        <ele>581.4</ele>
        <time>2015-11-15T10:37:23Z</time>
      </trkpt>
      <trkpt lat="43.95854" lon="5.16465">
        <ele>580.9</ele>
        <time>2015-11-15T10:37:30Z</time>
      </trkpt>
      <trkpt lat="43.95854" lon="5.16452">
        <ele>580.6</ele>
        <time>2015-11-15T10:37:35Z</time>
      </trkpt>
      <trkpt lat="43.95859" lon="5.16441">
        <ele>580.1</ele>
        <time>2015-11-15T10:37:40Z</time>
      </trkpt>
      <trkpt lat="43.95868" lon="5.16434">
        <ele>579.5</ele>
        <time>2015-11-15T10:37:46Z</time>
      </trkpt>
      <trkpt lat="43.95877" lon="5.16432">
        <ele>578.9</ele>
        <time>2015-11-15T10:37:50Z</time>
      </trkpt>
      <trkpt lat="43.95887" lon="5.16429">
        <ele>577.7</ele>
        <time>2015-11-15T10:37:56Z</time>
      </trkpt>
      <trkpt lat="43.95897" lon="5.16425">
        <ele>576.6</ele>
        <time>2015-11-15T10:38:01Z</time>
      </trkpt>
      <trkpt lat="43.95904" lon="5.16414">
        <ele>575.4</ele>
        <time>2015-11-15T10:38:08Z</time>
      </trkpt>
      <trkpt lat="43.95912" lon="5.16407">
        <ele>574.6</ele>
        <time>2015-11-15T10:38:13Z</time>
      </trkpt>
      <trkpt lat="43.95921" lon="5.164">
        <ele>574</ele>
        <time>2015-11-15T10:38:18Z</time>
      </trkpt>
      <trkpt lat="43.95932" lon="5.16395">
        <ele>573.2</ele>
        <time>2015-11-15T10:38:23Z</time>
      </trkpt>
      <trkpt lat="43.9594" lon="5.16389">
        <ele>572.4</ele>
        <time>2015-11-15T10:38:29Z</time>
      </trkpt>
      <trkpt lat="43.95949" lon="5.16383">
        <ele>571.8</ele>
        <time>2015-11-15T10:38:33Z</time>
      </trkpt>
      <trkpt lat="43.95958" lon="5.16376">
        <ele>570.9</ele>
        <time>2015-11-15T10:38:40Z</time>
      </trkpt>
      <trkpt lat="43.95968" lon="5.16374">
        <ele>570.1</ele>
        <time>2015-11-15T10:38:47Z</time>
      </trkpt>
      <trkpt lat="43.95978" lon="5.16373">
        <ele>569.8</ele>
        <time>2015-11-15T10:38:52Z</time>
      </trkpt>
      <trkpt lat="43.95986" lon="5.16367">
        <ele>569.4</ele>
        <time>2015-11-15T10:38:59Z</time>
      </trkpt>
      <trkpt lat="43.95995" lon="5.16363">
        <ele>569.2</ele>
        <time>2015-11-15T10:39:06Z</time>
      </trkpt>
      <trkpt lat="43.96004" lon="5.16356">
        <ele>569</ele>
        <time>2015-11-15T10:39:14Z</time>
      </trkpt>
      <trkpt lat="43.9601" lon="5.16348">
        <ele>569</ele>
        <time>2015-11-15T10:39:24Z</time>
      </trkpt>
      <trkpt lat="43.9602" lon="5.16346">
        <ele>569</ele>
        <time>2015-11-15T10:39:30Z</time>
      </trkpt>
      <trkpt lat="43.9603" lon="5.16345">
        <ele>569</ele>
        <time>2015-11-15T10:39:38Z</time>
      </trkpt>
      <trkpt lat="43.9604" lon="5.16343">
        <ele>569</ele>
        <time>2015-11-15T10:39:45Z</time>
      </trkpt>
      <trkpt lat="43.96049" lon="5.16342">
        <ele>569</ele>
        <time>2015-11-15T10:39:50Z</time>
      </trkpt>
      <trkpt lat="43.96059" lon="5.16339">
        <ele>569.1</ele>
        <time>2015-11-15T10:39:58Z</time>
      </trkpt>
      <trkpt lat="43.96068" lon="5.16335">
        <ele>569.2</ele>
        <time>2015-11-15T10:40:03Z</time>
      </trkpt>
      <trkpt lat="43.96077" lon="5.16335">
        <ele>569.4</ele>
        <time>2015-11-15T10:40:08Z</time>
      </trkpt>
      <trkpt lat="43.96087" lon="5.16339">
        <ele>569.5</ele>
        <time>2015-11-15T10:40:14Z</time>
      </trkpt>
      <trkpt lat="43.96096" lon="5.16342">
        <ele>569.7</ele>
        <time>2015-11-15T10:40:20Z</time>
      </trkpt>
      <trkpt lat="43.96106" lon="5.16342">
        <ele>570</ele>
        <time>2015-11-15T10:40:27Z</time>
      </trkpt>
      <trkpt lat="43.96115" lon="5.16344">
        <ele>570.1</ele>
        <time>2015-11-15T10:40:32Z</time>
      </trkpt>
      <trkpt lat="43.96125" lon="5.1634">
        <ele>570.2</ele>
        <time>2015-11-15T10:40:39Z</time>
      </trkpt>
      <trkpt lat="43.96135" lon="5.16336">
        <ele>570.3</ele>
        <time>2015-11-15T10:40:44Z</time>
      </trkpt>
      <trkpt lat="43.96143" lon="5.16331">
        <ele>570.4</ele>
        <time>2015-11-15T10:40:51Z</time>
      </trkpt>
      <trkpt lat="43.96153" lon="5.1633">
        <ele>570.4</ele>
        <time>2015-11-15T10:40:58Z</time>
      </trkpt>
      <trkpt lat="43.96163" lon="5.16331">
        <ele>570.2</ele>
        <time>2015-11-15T10:41:03Z</time>
      </trkpt>
      <trkpt lat="43.96174" lon="5.16332">
        <ele>570</ele>
        <time>2015-11-15T10:41:09Z</time>
      </trkpt>
      <trkpt lat="43.96184" lon="5.16333">
        <ele>569.5</ele>
        <time>2015-11-15T10:41:18Z</time>
      </trkpt>
      <trkpt lat="43.96193" lon="5.16333">
        <ele>569.1</ele>
        <time>2015-11-15T10:41:25Z</time>
      </trkpt>
      <trkpt lat="43.96202" lon="5.16335">
        <ele>568.7</ele>
        <time>2015-11-15T10:41:30Z</time>
      </trkpt>
      <trkpt lat="43.96212" lon="5.16334">
        <ele>568.2</ele>
        <time>2015-11-15T10:41:37Z</time>
      </trkpt>
      <trkpt lat="43.96221" lon="5.16332">
        <ele>568</ele>
        <time>2015-11-15T10:41:42Z</time>
      </trkpt>
      <trkpt lat="43.96231" lon="5.16331">
        <ele>567.6</ele>
        <time>2015-11-15T10:41:48Z</time>
      </trkpt>
      <trkpt lat="43.96241" lon="5.1633">
        <ele>567.2</ele>
        <time>2015-11-15T10:41:55Z</time>
      </trkpt>
      <trkpt lat="43.9625" lon="5.16327">
        <ele>566.9</ele>
        <time>2015-11-15T10:42:01Z</time>
      </trkpt>
      <trkpt lat="43.96259" lon="5.16323">
        <ele>566.5</ele>
        <time>2015-11-15T10:42:07Z</time>
      </trkpt>
      <trkpt lat="43.96269" lon="5.1632">
        <ele>565.9</ele>
        <time>2015-11-15T10:42:16Z</time>
      </trkpt>
      <trkpt lat="43.96278" lon="5.16314">
        <ele>565.3</ele>
        <time>2015-11-15T10:42:24Z</time>
      </trkpt>
      <trkpt lat="43.96286" lon="5.16307">
        <ele>564.9</ele>
        <time>2015-11-15T10:42:30Z</time>
      </trkpt>
      <trkpt lat="43.96294" lon="5.16301">
        <ele>564.2</ele>
        <time>2015-11-15T10:42:36Z</time>
      </trkpt>
      <trkpt lat="43.96304" lon="5.16297">
        <ele>563.3</ele>
        <time>2015-11-15T10:42:44Z</time>
      </trkpt>
      <trkpt lat="43.96313" lon="5.16298">
        <ele>562.6</ele>
        <time>2015-11-15T10:42:50Z</time>
      </trkpt>
      <trkpt lat="43.96322" lon="5.16298">
        <ele>562</ele>
        <time>2015-11-15T10:42:55Z</time>
      </trkpt>
      <trkpt lat="43.96331" lon="5.16297">
        <ele>561.3</ele>
        <time>2015-11-15T10:43:00Z</time>
      </trkpt>
      <trkpt lat="43.96341" lon="5.16298">
        <ele>560.6</ele>
        <time>2015-11-15T10:43:06Z</time>
      </trkpt>
      <trkpt lat="43.9635" lon="5.16298">
        <ele>559.9</ele>
        <time>2015-11-15T10:43:13Z</time>
      </trkpt>
      <trkpt lat="43.96359" lon="5.16301">
        <ele>559.5</ele>
        <time>2015-11-15T10:43:19Z</time>
      </trkpt>
      <trkpt lat="43.96369" lon="5.16302">
        <ele>559.1</ele>
        <time>2015-11-15T10:43:26Z</time>
      </trkpt>
      <trkpt lat="43.96378" lon="5.16304">
        <ele>558.9</ele>
        <time>2015-11-15T10:43:33Z</time>
      </trkpt>
      <trkpt lat="43.96388" lon="5.16306">
        <ele>558.7</ele>
        <time>2015-11-15T10:43:41Z</time>
      </trkpt>
      <trkpt lat="43.96398" lon="5.16307">
        <ele>558.6</ele>
        <time>2015-11-15T10:43:48Z</time>
      </trkpt>
      <trkpt lat="43.96409" lon="5.16309">
        <ele>558.5</ele>
        <time>2015-11-15T10:43:54Z</time>
      </trkpt>
      <trkpt lat="43.96419" lon="5.1631">
        <ele>558.4</ele>
        <time>2015-11-15T10:43:59Z</time>
      </trkpt>
      <trkpt lat="43.9643" lon="5.16311">
        <ele>558.3</ele>
        <time>2015-11-15T10:44:05Z</time>
      </trkpt>
      <trkpt lat="43.96439" lon="5.16314">
        <ele>557.8</ele>
        <time>2015-11-15T10:44:14Z</time>
      </trkpt>
      <trkpt lat="43.96449" lon="5.16315">
        <ele>557.5</ele>
        <time>2015-11-15T10:44:21Z</time>
      </trkpt>
      <trkpt lat="43.96457" lon="5.16322">
        <ele>557.1</ele>
        <time>2015-11-15T10:44:34Z</time>
      </trkpt>
      <trkpt lat="43.96466" lon="5.16321">
        <ele>556.9</ele>
        <time>2015-11-15T10:44:45Z</time>
      </trkpt>
      <trkpt lat="43.96476" lon="5.16319">
        <ele>556.4</ele>
        <time>2015-11-15T10:44:55Z</time>
      </trkpt>
      <trkpt lat="43.96486" lon="5.16322">
        <ele>556</ele>
        <time>2015-11-15T10:45:02Z</time>
      </trkpt>
      <trkpt lat="43.96497" lon="5.16323">
        <ele>555.7</ele>
        <time>2015-11-15T10:45:09Z</time>
      </trkpt>
      <trkpt lat="43.96505" lon="5.16328">
        <ele>555.5</ele>
        <time>2015-11-15T10:45:15Z</time>
      </trkpt>
      <trkpt lat="43.96514" lon="5.16328">
        <ele>555.2</ele>
        <time>2015-11-15T10:45:20Z</time>
      </trkpt>
      <trkpt lat="43.96524" lon="5.16325">
        <ele>554.9</ele>
        <time>2015-11-15T10:45:26Z</time>
      </trkpt>
      <trkpt lat="43.96534" lon="5.16324">
        <ele>554.4</ele>
        <time>2015-11-15T10:45:33Z</time>
      </trkpt>
      <trkpt lat="43.96543" lon="5.16324">
        <ele>553.8</ele>
        <time>2015-11-15T10:45:39Z</time>
      </trkpt>
      <trkpt lat="43.96553" lon="5.16324">
        <ele>553.3</ele>
        <time>2015-11-15T10:45:46Z</time>
      </trkpt>
      <trkpt lat="43.96564" lon="5.16324">
        <ele>552.9</ele>
        <time>2015-11-15T10:45:52Z</time>
      </trkpt>
      <trkpt lat="43.96573" lon="5.16323">
        <ele>552.5</ele>
        <time>2015-11-15T10:45:58Z</time>
      </trkpt>
      <trkpt lat="43.96582" lon="5.16322">
        <ele>551.7</ele>
        <time>2015-11-15T10:46:06Z</time>
      </trkpt>
      <trkpt lat="43.96592" lon="5.1632">
        <ele>551.1</ele>
        <time>2015-11-15T10:46:12Z</time>
      </trkpt>
      <trkpt lat="43.96603" lon="5.16319">
        <ele>550.5</ele>
        <time>2015-11-15T10:46:18Z</time>
      </trkpt>
      <trkpt lat="43.96612" lon="5.16316">
        <ele>550.2</ele>
        <time>2015-11-15T10:46:22Z</time>
      </trkpt>
      <trkpt lat="43.96622" lon="5.16314">
        <ele>549.8</ele>
        <time>2015-11-15T10:46:28Z</time>
      </trkpt>
      <trkpt lat="43.96632" lon="5.16312">
        <ele>548.9</ele>
        <time>2015-11-15T10:46:35Z</time>
      </trkpt>
      <trkpt lat="43.96643" lon="5.16312">
        <ele>548.4</ele>
        <time>2015-11-15T10:46:41Z</time>
      </trkpt>
      <trkpt lat="43.96653" lon="5.16311">
        <ele>548</ele>
        <time>2015-11-15T10:46:46Z</time>
      </trkpt>
      <trkpt lat="43.96663" lon="5.16309">
        <ele>547.7</ele>
        <time>2015-11-15T10:46:50Z</time>
      </trkpt>
      <trkpt lat="43.96675" lon="5.16305">
        <ele>547.3</ele>
        <time>2015-11-15T10:46:55Z</time>
      </trkpt>
      <trkpt lat="43.96684" lon="5.16302">
        <ele>547</ele>
        <time>2015-11-15T10:46:59Z</time>
      </trkpt>
      <trkpt lat="43.96693" lon="5.16294">
        <ele>546.7</ele>
        <time>2015-11-15T10:47:03Z</time>
      </trkpt>
      <trkpt lat="43.96703" lon="5.16285">
        <ele>546.5</ele>
        <time>2015-11-15T10:47:07Z</time>
      </trkpt>
      <trkpt lat="43.96711" lon="5.16276">
        <ele>546.3</ele>
        <time>2015-11-15T10:47:10Z</time>
      </trkpt>
      <trkpt lat="43.96718" lon="5.16266">
        <ele>546.1</ele>
        <time>2015-11-15T10:47:14Z</time>
      </trkpt>
      <trkpt lat="43.96726" lon="5.16258">
        <ele>545.9</ele>
        <time>2015-11-15T10:47:20Z</time>
      </trkpt>
      <trkpt lat="43.96733" lon="5.16248">
        <ele>545.6</ele>
        <time>2015-11-15T10:47:29Z</time>
      </trkpt>
      <trkpt lat="43.96743" lon="5.16242">
        <ele>545.4</ele>
        <time>2015-11-15T10:47:35Z</time>
      </trkpt>
      <trkpt lat="43.96751" lon="5.16236">
        <ele>545.3</ele>
        <time>2015-11-15T10:47:41Z</time>
      </trkpt>
      <trkpt lat="43.9676" lon="5.16231">
        <ele>545.1</ele>
        <time>2015-11-15T10:47:46Z</time>
      </trkpt>
      <trkpt lat="43.96769" lon="5.16224">
        <ele>544.9</ele>
        <time>2015-11-15T10:47:51Z</time>
      </trkpt>
      <trkpt lat="43.96779" lon="5.1622">
        <ele>544.8</ele>
        <time>2015-11-15T10:47:55Z</time>
      </trkpt>
      <trkpt lat="43.96788" lon="5.16215">
        <ele>544.7</ele>
        <time>2015-11-15T10:48:01Z</time>
      </trkpt>
      <trkpt lat="43.96798" lon="5.16211">
        <ele>544.6</ele>
        <time>2015-11-15T10:48:06Z</time>
      </trkpt>
      <trkpt lat="43.96809" lon="5.16211">
        <ele>544.5</ele>
        <time>2015-11-15T10:48:10Z</time>
      </trkpt>
      <trkpt lat="43.9682" lon="5.16211">
        <ele>544.4</ele>
        <time>2015-11-15T10:48:14Z</time>
      </trkpt>
      <trkpt lat="43.96829" lon="5.16211">
        <ele>544.2</ele>
        <time>2015-11-15T10:48:20Z</time>
      </trkpt>
      <trkpt lat="43.96838" lon="5.16214">
        <ele>544.1</ele>
        <time>2015-11-15T10:48:26Z</time>
      </trkpt>
      <trkpt lat="43.96847" lon="5.16216">
        <ele>544</ele>
        <time>2015-11-15T10:48:30Z</time>
      </trkpt>
      <trkpt lat="43.96856" lon="5.16219">
        <ele>543.9</ele>
        <time>2015-11-15T10:48:36Z</time>
      </trkpt>
      <trkpt lat="43.96865" lon="5.16221">
        <ele>543.7</ele>
        <time>2015-11-15T10:48:41Z</time>
      </trkpt>
      <trkpt lat="43.96875" lon="5.16225">
        <ele>543.3</ele>
        <time>2015-11-15T10:48:48Z</time>
      </trkpt>
      <trkpt lat="43.96885" lon="5.16228">
        <ele>543</ele>
        <time>2015-11-15T10:48:54Z</time>
      </trkpt>
      <trkpt lat="43.96895" lon="5.16229">
        <ele>542.8</ele>
        <time>2015-11-15T10:48:59Z</time>
      </trkpt>
      <trkpt lat="43.96904" lon="5.16233">
        <ele>542.3</ele>
        <time>2015-11-15T10:49:07Z</time>
      </trkpt>
      <trkpt lat="43.96913" lon="5.16235">
        <ele>541.9</ele>
        <time>2015-11-15T10:49:14Z</time>
      </trkpt>
      <trkpt lat="43.96923" lon="5.16237">
        <ele>541.3</ele>
        <time>2015-11-15T10:49:21Z</time>
      </trkpt>
      <trkpt lat="43.96933" lon="5.1624">
        <ele>540.2</ele>
        <time>2015-11-15T10:49:29Z</time>
      </trkpt>
      <trkpt lat="43.96942" lon="5.16244">
        <ele>539.3</ele>
        <time>2015-11-15T10:49:36Z</time>
      </trkpt>
      <trkpt lat="43.96952" lon="5.1625">
        <ele>538.2</ele>
        <time>2015-11-15T10:49:43Z</time>
      </trkpt>
      <trkpt lat="43.96957" lon="5.16261">
        <ele>536.9</ele>
        <time>2015-11-15T10:49:51Z</time>
      </trkpt>
      <trkpt lat="43.96961" lon="5.16273">
        <ele>536</ele>
        <time>2015-11-15T10:49:56Z</time>
      </trkpt>
      <trkpt lat="43.96965" lon="5.16285">
        <ele>534.6</ele>
        <time>2015-11-15T10:50:04Z</time>
      </trkpt>
      <trkpt lat="43.96968" lon="5.16297">
        <ele>533.4</ele>
        <time>2015-11-15T10:50:10Z</time>
      </trkpt>
      <trkpt lat="43.96974" lon="5.16307">
        <ele>532.5</ele>
        <time>2015-11-15T10:50:16Z</time>
      </trkpt>
      <trkpt lat="43.96978" lon="5.1632">
        <ele>530.9</ele>
        <time>2015-11-15T10:50:23Z</time>
      </trkpt>
      <trkpt lat="43.96981" lon="5.16333">
        <ele>529.6</ele>
        <time>2015-11-15T10:50:30Z</time>
      </trkpt>
      <trkpt lat="43.96986" lon="5.16345">
        <ele>528.1</ele>
        <time>2015-11-15T10:50:38Z</time>
      </trkpt>
      <trkpt lat="43.96992" lon="5.16355">
        <ele>526.8</ele>
        <time>2015-11-15T10:50:46Z</time>
      </trkpt>
      <trkpt lat="43.97" lon="5.16365">
        <ele>525.6</ele>
        <time>2015-11-15T10:50:54Z</time>
      </trkpt>
      <trkpt lat="43.97006" lon="5.16376">
        <ele>524.4</ele>
        <time>2015-11-15T10:51:00Z</time>
      </trkpt>
      <trkpt lat="43.97014" lon="5.16384">
        <ele>523.1</ele>
        <time>2015-11-15T10:51:06Z</time>
      </trkpt>
      <trkpt lat="43.97022" lon="5.16391">
        <ele>522.1</ele>
        <time>2015-11-15T10:51:12Z</time>
      </trkpt>
      <trkpt lat="43.97031" lon="5.16397">
        <ele>521.2</ele>
        <time>2015-11-15T10:51:17Z</time>
      </trkpt>
      <trkpt lat="43.97039" lon="5.16405">
        <ele>520.1</ele>
        <time>2015-11-15T10:51:23Z</time>
      </trkpt>
      <trkpt lat="43.97047" lon="5.16412">
        <ele>519.2</ele>
        <time>2015-11-15T10:51:29Z</time>
      </trkpt>
      <trkpt lat="43.97055" lon="5.16418">
        <ele>518.6</ele>
        <time>2015-11-15T10:51:34Z</time>
      </trkpt>
      <trkpt lat="43.97064" lon="5.16423">
        <ele>518.1</ele>
        <time>2015-11-15T10:51:39Z</time>
      </trkpt>
      <trkpt lat="43.97074" lon="5.16428">
        <ele>517.4</ele>
        <time>2015-11-15T10:51:45Z</time>
      </trkpt>
      <trkpt lat="43.97084" lon="5.16425">
        <ele>516.9</ele>
        <time>2015-11-15T10:51:51Z</time>
      </trkpt>
      <trkpt lat="43.97093" lon="5.16421">
        <ele>516.5</ele>
        <time>2015-11-15T10:51:58Z</time>
      </trkpt>
      <trkpt lat="43.97101" lon="5.16413">
        <ele>516.3</ele>
        <time>2015-11-15T10:52:03Z</time>
      </trkpt>
      <trkpt lat="43.97108" lon="5.16403">
        <ele>516.1</ele>
        <time>2015-11-15T10:52:10Z</time>
      </trkpt>
      <trkpt lat="43.97114" lon="5.16393">
        <ele>516</ele>
        <time>2015-11-15T10:52:16Z</time>
      </trkpt>
      <trkpt lat="43.97122" lon="5.16382">
        <ele>515.9</ele>
        <time>2015-11-15T10:52:23Z</time>
      </trkpt>
      <trkpt lat="43.97129" lon="5.16373">
        <ele>515.8</ele>
        <time>2015-11-15T10:52:28Z</time>
      </trkpt>
      <trkpt lat="43.97136" lon="5.16365">
        <ele>515.7</ele>
        <time>2015-11-15T10:52:35Z</time>
      </trkpt>
      <trkpt lat="43.97144" lon="5.16356">
        <ele>515.6</ele>
        <time>2015-11-15T10:52:41Z</time>
      </trkpt>
      <trkpt lat="43.97151" lon="5.16348">
        <ele>515.3</ele>
        <time>2015-11-15T10:52:47Z</time>
      </trkpt>
      <trkpt lat="43.97158" lon="5.16338">
        <ele>514.8</ele>
        <time>2015-11-15T10:52:54Z</time>
      </trkpt>
      <trkpt lat="43.97164" lon="5.16328">
        <ele>514.5</ele>
        <time>2015-11-15T10:53:00Z</time>
      </trkpt>
      <trkpt lat="43.97171" lon="5.16316">
        <ele>514</ele>
        <time>2015-11-15T10:53:06Z</time>
      </trkpt>
      <trkpt lat="43.97176" lon="5.16306">
        <ele>513.5</ele>
        <time>2015-11-15T10:53:11Z</time>
      </trkpt>
      <trkpt lat="43.97183" lon="5.16295">
        <ele>512.9</ele>
        <time>2015-11-15T10:53:17Z</time>
      </trkpt>
      <trkpt lat="43.9719" lon="5.16286">
        <ele>512.4</ele>
        <time>2015-11-15T10:53:23Z</time>
      </trkpt>
      <trkpt lat="43.97197" lon="5.16278">
        <ele>511.9</ele>
        <time>2015-11-15T10:53:29Z</time>
      </trkpt>
      <trkpt lat="43.97204" lon="5.16268">
        <ele>511.3</ele>
        <time>2015-11-15T10:53:34Z</time>
      </trkpt>
      <trkpt lat="43.97211" lon="5.16259">
        <ele>510.3</ele>
        <time>2015-11-15T10:53:42Z</time>
      </trkpt>
      <trkpt lat="43.9722" lon="5.16252">
        <ele>509.3</ele>
        <time>2015-11-15T10:53:49Z</time>
      </trkpt>
      <trkpt lat="43.97228" lon="5.16246">
        <ele>508.4</ele>
        <time>2015-11-15T10:53:55Z</time>
      </trkpt>
      <trkpt lat="43.97235" lon="5.16236">
        <ele>507</ele>
        <time>2015-11-15T10:54:03Z</time>
      </trkpt>
      <trkpt lat="43.97242" lon="5.16225">
        <ele>505.7</ele>
        <time>2015-11-15T10:54:10Z</time>
      </trkpt>
      <trkpt lat="43.97244" lon="5.16211">
        <ele>504.4</ele>
        <time>2015-11-15T10:54:17Z</time>
      </trkpt>
      <trkpt lat="43.97243" lon="5.16197">
        <ele>503.4</ele>
        <time>2015-11-15T10:54:23Z</time>
      </trkpt>
      <trkpt lat="43.97241" lon="5.16184">
        <ele>502.3</ele>
        <time>2015-11-15T10:54:28Z</time>
      </trkpt>
      <trkpt lat="43.97243" lon="5.16169">
        <ele>501.1</ele>
        <time>2015-11-15T10:54:35Z</time>
      </trkpt>
      <trkpt lat="43.97242" lon="5.16155">
        <ele>500.1</ele>
        <time>2015-11-15T10:54:41Z</time>
      </trkpt>
      <trkpt lat="43.97242" lon="5.16143">
        <ele>499.2</ele>
        <time>2015-11-15T10:54:47Z</time>
      </trkpt>
      <trkpt lat="43.97242" lon="5.1613">
        <ele>498</ele>
        <time>2015-11-15T10:54:54Z</time>
      </trkpt>
      <trkpt lat="43.97243" lon="5.16116">
        <ele>496.7</ele>
        <time>2015-11-15T10:55:02Z</time>
      </trkpt>
      <trkpt lat="43.97241" lon="5.16103">
        <ele>495.6</ele>
        <time>2015-11-15T10:55:08Z</time>
      </trkpt>
      <trkpt lat="43.97236" lon="5.16092">
        <ele>494.7</ele>
        <time>2015-11-15T10:55:13Z</time>
      </trkpt>
      <trkpt lat="43.97232" lon="5.1608">
        <ele>493.8</ele>
        <time>2015-11-15T10:55:18Z</time>
      </trkpt>
      <trkpt lat="43.97228" lon="5.16068">
        <ele>492.8</ele>
        <time>2015-11-15T10:55:24Z</time>
      </trkpt>
      <trkpt lat="43.97226" lon="5.16054">
        <ele>491.5</ele>
        <time>2015-11-15T10:55:32Z</time>
      </trkpt>
      <trkpt lat="43.97226" lon="5.16041">
        <ele>490.4</ele>
        <time>2015-11-15T10:55:38Z</time>
      </trkpt>
      <trkpt lat="43.97225" lon="5.16029">
        <ele>489</ele>
        <time>2015-11-15T10:55:46Z</time>
      </trkpt>
      <trkpt lat="43.97222" lon="5.16015">
        <ele>487.6</ele>
        <time>2015-11-15T10:55:54Z</time>
      </trkpt>
      <trkpt lat="43.9722" lon="5.15999">
        <ele>486.4</ele>
        <time>2015-11-15T10:56:01Z</time>
      </trkpt>
      <trkpt lat="43.97221" lon="5.15986">
        <ele>484.1</ele>
        <time>2015-11-15T10:56:10Z</time>
      </trkpt>
      <trkpt lat="43.9723" lon="5.15982">
        <ele>483.3</ele>
        <time>2015-11-15T10:56:17Z</time>
      </trkpt>
      <trkpt lat="43.97239" lon="5.15978">
        <ele>482.6</ele>
        <time>2015-11-15T10:56:23Z</time>
      </trkpt>
      <trkpt lat="43.97248" lon="5.15975">
        <ele>481.6</ele>
        <time>2015-11-15T10:56:31Z</time>
      </trkpt>
      <trkpt lat="43.97259" lon="5.15971">
        <ele>479.9</ele>
        <time>2015-11-15T10:56:41Z</time>
      </trkpt>
      <trkpt lat="43.97269" lon="5.15968">
        <ele>478.7</ele>
        <time>2015-11-15T10:56:49Z</time>
      </trkpt>
      <trkpt lat="43.97279" lon="5.15965">
        <ele>477.4</ele>
        <time>2015-11-15T10:56:56Z</time>
      </trkpt>
      <trkpt lat="43.97288" lon="5.15962">
        <ele>475.9</ele>
        <time>2015-11-15T10:57:04Z</time>
      </trkpt>
      <trkpt lat="43.97298" lon="5.15958">
        <ele>474.3</ele>
        <time>2015-11-15T10:57:12Z</time>
      </trkpt>
      <trkpt lat="43.97307" lon="5.15961">
        <ele>472.9</ele>
        <time>2015-11-15T10:57:19Z</time>
      </trkpt>
      <trkpt lat="43.97314" lon="5.1597">
        <ele>471.1</ele>
        <time>2015-11-15T10:57:28Z</time>
      </trkpt>
      <trkpt lat="43.97317" lon="5.15981">
        <ele>470</ele>
        <time>2015-11-15T10:57:35Z</time>
      </trkpt>
      <trkpt lat="43.97322" lon="5.15993">
        <ele>469</ele>
        <time>2015-11-15T10:57:42Z</time>
      </trkpt>
      <trkpt lat="43.97331" lon="5.15989">
        <ele>467.8</ele>
        <time>2015-11-15T10:57:50Z</time>
      </trkpt>
      <trkpt lat="43.97337" lon="5.15979">
        <ele>466.5</ele>
        <time>2015-11-15T10:57:58Z</time>
      </trkpt>
      <trkpt lat="43.97337" lon="5.15965">
        <ele>464.9</ele>
        <time>2015-11-15T10:58:07Z</time>
      </trkpt>
      <trkpt lat="43.97337" lon="5.15952">
        <ele>463.7</ele>
        <time>2015-11-15T10:58:14Z</time>
      </trkpt>
      <trkpt lat="43.97336" lon="5.1594">
        <ele>462.2</ele>
        <time>2015-11-15T10:58:22Z</time>
      </trkpt>
      <trkpt lat="43.97336" lon="5.15927">
        <ele>460.2</ele>
        <time>2015-11-15T10:58:31Z</time>
      </trkpt>
      <trkpt lat="43.97335" lon="5.15914">
        <ele>459.1</ele>
        <time>2015-11-15T10:58:36Z</time>
      </trkpt>
      <trkpt lat="43.97334" lon="5.15902">
        <ele>457.9</ele>
        <time>2015-11-15T10:58:41Z</time>
      </trkpt>
      <trkpt lat="43.9733" lon="5.1589">
        <ele>456.6</ele>
        <time>2015-11-15T10:58:47Z</time>
      </trkpt>
      <trkpt lat="43.97328" lon="5.15877">
        <ele>454.9</ele>
        <time>2015-11-15T10:58:54Z</time>
      </trkpt>
      <trkpt lat="43.97325" lon="5.15863">
        <ele>453.2</ele>
        <time>2015-11-15T10:59:00Z</time>
      </trkpt>
      <trkpt lat="43.9733" lon="5.1585">
        <ele>450.9</ele>
        <time>2015-11-15T10:59:09Z</time>
      </trkpt>
      <trkpt lat="43.97334" lon="5.15838">
        <ele>449.6</ele>
        <time>2015-11-15T10:59:15Z</time>
      </trkpt>
      <trkpt lat="43.97336" lon="5.15822">
        <ele>448.3</ele>
        <time>2015-11-15T10:59:21Z</time>
      </trkpt>
      <trkpt lat="43.97335" lon="5.15809">
        <ele>447.1</ele>
        <time>2015-11-15T10:59:26Z</time>
      </trkpt>
      <trkpt lat="43.97337" lon="5.15796">
        <ele>446.1</ele>
        <time>2015-11-15T10:59:31Z</time>
      </trkpt>
      <trkpt lat="43.97343" lon="5.15785">
        <ele>445</ele>
        <time>2015-11-15T10:59:37Z</time>
      </trkpt>
      <trkpt lat="43.97348" lon="5.15773">
        <ele>444</ele>
        <time>2015-11-15T10:59:43Z</time>
      </trkpt>
      <trkpt lat="43.97355" lon="5.15763">
        <ele>443.3</ele>
        <time>2015-11-15T10:59:49Z</time>
      </trkpt>
      <trkpt lat="43.97359" lon="5.15752">
        <ele>442.6</ele>
        <time>2015-11-15T10:59:55Z</time>
      </trkpt>
      <trkpt lat="43.97366" lon="5.15743">
        <ele>441.9</ele>
        <time>2015-11-15T11:00:01Z</time>
      </trkpt>
      <trkpt lat="43.97371" lon="5.1573">
        <ele>441.2</ele>
        <time>2015-11-15T11:00:07Z</time>
      </trkpt>
      <trkpt lat="43.97374" lon="5.15715">
        <ele>440.7</ele>
        <time>2015-11-15T11:00:13Z</time>
      </trkpt>
      <trkpt lat="43.97376" lon="5.15702">
        <ele>439.9</ele>
        <time>2015-11-15T11:00:19Z</time>
      </trkpt>
      <trkpt lat="43.97379" lon="5.1569">
        <ele>439.3</ele>
        <time>2015-11-15T11:00:25Z</time>
      </trkpt>
      <trkpt lat="43.97382" lon="5.15678">
        <ele>438.8</ele>
        <time>2015-11-15T11:00:30Z</time>
      </trkpt>
      <trkpt lat="43.97382" lon="5.15664">
        <ele>438</ele>
        <time>2015-11-15T11:00:36Z</time>
      </trkpt>
      <trkpt lat="43.97384" lon="5.15652">
        <ele>437.2</ele>
        <time>2015-11-15T11:00:42Z</time>
      </trkpt>
      <trkpt lat="43.97384" lon="5.15639">
        <ele>436.3</ele>
        <time>2015-11-15T11:00:48Z</time>
      </trkpt>
      <trkpt lat="43.97382" lon="5.15626">
        <ele>435.7</ele>
        <time>2015-11-15T11:00:52Z</time>
      </trkpt>
      <trkpt lat="43.9738" lon="5.15613">
        <ele>435</ele>
        <time>2015-11-15T11:00:57Z</time>
      </trkpt>
      <trkpt lat="43.97378" lon="5.15601">
        <ele>434.3</ele>
        <time>2015-11-15T11:01:01Z</time>
      </trkpt>
      <trkpt lat="43.97375" lon="5.15588">
        <ele>433</ele>
        <time>2015-11-15T11:01:07Z</time>
      </trkpt>
      <trkpt lat="43.97372" lon="5.15574">
        <ele>431.9</ele>
        <time>2015-11-15T11:01:15Z</time>
      </trkpt>
      <trkpt lat="43.97369" lon="5.1556">
        <ele>431.2</ele>
        <time>2015-11-15T11:01:21Z</time>
      </trkpt>
      <trkpt lat="43.97368" lon="5.15548">
        <ele>430.4</ele>
        <time>2015-11-15T11:01:27Z</time>
      </trkpt>
      <trkpt lat="43.97368" lon="5.15534">
        <ele>429.6</ele>
        <time>2015-11-15T11:01:33Z</time>
      </trkpt>
      <trkpt lat="43.9737" lon="5.1552">
        <ele>429</ele>
        <time>2015-11-15T11:01:39Z</time>
      </trkpt>
      <trkpt lat="43.97373" lon="5.15508">
        <ele>428.4</ele>
        <time>2015-11-15T11:01:44Z</time>
      </trkpt>
      <trkpt lat="43.97375" lon="5.15494">
        <ele>427.7</ele>
        <time>2015-11-15T11:01:51Z</time>
      </trkpt>
      <trkpt lat="43.97375" lon="5.1548">
        <ele>427.2</ele>
        <time>2015-11-15T11:01:56Z</time>
      </trkpt>
      <trkpt lat="43.97376" lon="5.15467">
        <ele>426.9</ele>
        <time>2015-11-15T11:02:00Z</time>
      </trkpt>
      <trkpt lat="43.97376" lon="5.15454">
        <ele>426.5</ele>
        <time>2015-11-15T11:02:06Z</time>
      </trkpt>
      <trkpt lat="43.97376" lon="5.15441">
        <ele>425.6</ele>
        <time>2015-11-15T11:02:14Z</time>
      </trkpt>
      <trkpt lat="43.97375" lon="5.15427">
        <ele>424.9</ele>
        <time>2015-11-15T11:02:22Z</time>
      </trkpt>
      <trkpt lat="43.97375" lon="5.15413">
        <ele>424.5</ele>
        <time>2015-11-15T11:02:30Z</time>
      </trkpt>
      <trkpt lat="43.97377" lon="5.15401">
        <ele>424.3</ele>
        <time>2015-11-15T11:02:37Z</time>
      </trkpt>
      <trkpt lat="43.97379" lon="5.15387">
        <ele>424</ele>
        <time>2015-11-15T11:02:44Z</time>
      </trkpt>
      <trkpt lat="43.9738" lon="5.15375">
        <ele>423.6</ele>
        <time>2015-11-15T11:02:50Z</time>
      </trkpt>
      <trkpt lat="43.97381" lon="5.15361">
        <ele>423.1</ele>
        <time>2015-11-15T11:02:57Z</time>
      </trkpt>
      <trkpt lat="43.97383" lon="5.15347">
        <ele>422.7</ele>
        <time>2015-11-15T11:03:03Z</time>
      </trkpt>
      <trkpt lat="43.97386" lon="5.15335">
        <ele>422.1</ele>
        <time>2015-11-15T11:03:09Z</time>
      </trkpt>
      <trkpt lat="43.97388" lon="5.15322">
        <ele>421.5</ele>
        <time>2015-11-15T11:03:14Z</time>
      </trkpt>
      <trkpt lat="43.97389" lon="5.1531">
        <ele>421</ele>
        <time>2015-11-15T11:03:19Z</time>
      </trkpt>
      <trkpt lat="43.97389" lon="5.15297">
        <ele>420.6</ele>
        <time>2015-11-15T11:03:25Z</time>
      </trkpt>
      <trkpt lat="43.97387" lon="5.15284">
        <ele>420</ele>
        <time>2015-11-15T11:03:31Z</time>
      </trkpt>
      <trkpt lat="43.97388" lon="5.15271">
        <ele>419.6</ele>
        <time>2015-11-15T11:03:36Z</time>
      </trkpt>
      <trkpt lat="43.97391" lon="5.15257">
        <ele>418.8</ele>
        <time>2015-11-15T11:03:44Z</time>
      </trkpt>
      <trkpt lat="43.97397" lon="5.15246">
        <ele>418.1</ele>
        <time>2015-11-15T11:03:51Z</time>
      </trkpt>
      <trkpt lat="43.97401" lon="5.15233">
        <ele>417.6</ele>
        <time>2015-11-15T11:03:56Z</time>
      </trkpt>
      <trkpt lat="43.97403" lon="5.1522">
        <ele>417.1</ele>
        <time>2015-11-15T11:04:01Z</time>
      </trkpt>
      <trkpt lat="43.97405" lon="5.15205">
        <ele>416.4</ele>
        <time>2015-11-15T11:04:07Z</time>
      </trkpt>
      <trkpt lat="43.97409" lon="5.15192">
        <ele>415.7</ele>
        <time>2015-11-15T11:04:13Z</time>
      </trkpt>
      <trkpt lat="43.97415" lon="5.15182">
        <ele>414.9</ele>
        <time>2015-11-15T11:04:20Z</time>
      </trkpt>
      <trkpt lat="43.97421" lon="5.15171">
        <ele>414.1</ele>
        <time>2015-11-15T11:04:27Z</time>
      </trkpt>
      <trkpt lat="43.97426" lon="5.1516">
        <ele>413.5</ele>
        <time>2015-11-15T11:04:33Z</time>
      </trkpt>
      <trkpt lat="43.97432" lon="5.15151">
        <ele>412.9</ele>
        <time>2015-11-15T11:04:39Z</time>
      </trkpt>
      <trkpt lat="43.9744" lon="5.15143">
        <ele>412.2</ele>
        <time>2015-11-15T11:04:46Z</time>
      </trkpt>
      <trkpt lat="43.97448" lon="5.15134">
        <ele>411.4</ele>
        <time>2015-11-15T11:04:53Z</time>
      </trkpt>
      <trkpt lat="43.97454" lon="5.15124">
        <ele>410.7</ele>
        <time>2015-11-15T11:05:00Z</time>
      </trkpt>
      <trkpt lat="43.97458" lon="5.15112">
        <ele>409.8</ele>
        <time>2015-11-15T11:05:07Z</time>
      </trkpt>
      <trkpt lat="43.97464" lon="5.15101">
        <ele>408.6</ele>
        <time>2015-11-15T11:05:15Z</time>
      </trkpt>
      <trkpt lat="43.97471" lon="5.15091">
        <ele>407.7</ele>
        <time>2015-11-15T11:05:21Z</time>
      </trkpt>
      <trkpt lat="43.97478" lon="5.15082">
        <ele>407</ele>
        <time>2015-11-15T11:05:27Z</time>
      </trkpt>
      <trkpt lat="43.97485" lon="5.15072">
        <ele>406.3</ele>
        <time>2015-11-15T11:05:33Z</time>
      </trkpt>
      <trkpt lat="43.97488" lon="5.15057">
        <ele>405.4</ele>
        <time>2015-11-15T11:05:40Z</time>
      </trkpt>
      <trkpt lat="43.97489" lon="5.15044">
        <ele>404.9</ele>
        <time>2015-11-15T11:05:45Z</time>
      </trkpt>
      <trkpt lat="43.97492" lon="5.15032">
        <ele>404.3</ele>
        <time>2015-11-15T11:05:51Z</time>
      </trkpt>
      <trkpt lat="43.97497" lon="5.15022">
        <ele>401.9</ele>
        <time>2015-11-15T11:08:50Z</time>
      </trkpt>
      <trkpt lat="43.97501" lon="5.1501">
        <ele>401.3</ele>
        <time>2015-11-15T11:09:00Z</time>
      </trkpt>
      <trkpt lat="43.97505" lon="5.14998">
        <ele>400.8</ele>
        <time>2015-11-15T11:09:07Z</time>
      </trkpt>
      <trkpt lat="43.97506" lon="5.14983">
        <ele>400.1</ele>
        <time>2015-11-15T11:09:14Z</time>
      </trkpt>
      <trkpt lat="43.97506" lon="5.1497">
        <ele>399.3</ele>
        <time>2015-11-15T11:09:21Z</time>
      </trkpt>
      <trkpt lat="43.97504" lon="5.14954">
        <ele>398.3</ele>
        <time>2015-11-15T11:09:28Z</time>
      </trkpt>
      <trkpt lat="43.97501" lon="5.14942">
        <ele>396.8</ele>
        <time>2015-11-15T11:09:48Z</time>
      </trkpt>
      <trkpt lat="43.97493" lon="5.14935">
        <ele>396.5</ele>
        <time>2015-11-15T11:09:55Z</time>
      </trkpt>
      <trkpt lat="43.97484" lon="5.14929">
        <ele>396.4</ele>
        <time>2015-11-15T11:09:59Z</time>
      </trkpt>
      <trkpt lat="43.97475" lon="5.14928">
        <ele>396.2</ele>
        <time>2015-11-15T11:10:05Z</time>
      </trkpt>
      <trkpt lat="43.97466" lon="5.14931">
        <ele>396.3</ele>
        <time>2015-11-15T11:10:12Z</time>
      </trkpt>
      <trkpt lat="43.97459" lon="5.1492">
        <ele>396.8</ele>
        <time>2015-11-15T11:10:19Z</time>
      </trkpt>
      <trkpt lat="43.97455" lon="5.14909">
        <ele>397.1</ele>
        <time>2015-11-15T11:10:26Z</time>
      </trkpt>
      <trkpt lat="43.97452" lon="5.14897">
        <ele>397.4</ele>
        <time>2015-11-15T11:10:34Z</time>
      </trkpt>
      <trkpt lat="43.97448" lon="5.14886">
        <ele>397.5</ele>
        <time>2015-11-15T11:10:41Z</time>
      </trkpt>
      <trkpt lat="43.97445" lon="5.14871">
        <ele>397.4</ele>
        <time>2015-11-15T11:10:47Z</time>
      </trkpt>
      <trkpt lat="43.97442" lon="5.14859">
        <ele>397</ele>
        <time>2015-11-15T11:10:53Z</time>
      </trkpt>
      <trkpt lat="43.97437" lon="5.14844">
        <ele>396.3</ele>
        <time>2015-11-15T11:11:02Z</time>
      </trkpt>
      <trkpt lat="43.97435" lon="5.1483">
        <ele>395.5</ele>
        <time>2015-11-15T11:11:10Z</time>
      </trkpt>
      <trkpt lat="43.97433" lon="5.14818">
        <ele>394.6</ele>
        <time>2015-11-15T11:11:17Z</time>
      </trkpt>
      <trkpt lat="43.97435" lon="5.14805">
        <ele>393.2</ele>
        <time>2015-11-15T11:11:27Z</time>
      </trkpt>
      <trkpt lat="43.97436" lon="5.14792">
        <ele>392.2</ele>
        <time>2015-11-15T11:11:34Z</time>
      </trkpt>
      <trkpt lat="43.97432" lon="5.14781">
        <ele>390.8</ele>
        <time>2015-11-15T11:11:43Z</time>
      </trkpt>
      <trkpt lat="43.97436" lon="5.14769">
        <ele>388</ele>
        <time>2015-11-15T11:12:07Z</time>
      </trkpt>
      <trkpt lat="43.97441" lon="5.14758">
        <ele>387.2</ele>
        <time>2015-11-15T11:12:16Z</time>
      </trkpt>
      <trkpt lat="43.97448" lon="5.14749">
        <ele>386.4</ele>
        <time>2015-11-15T11:12:25Z</time>
      </trkpt>
      <trkpt lat="43.97443" lon="5.14739">
        <ele>384.3</ele>
        <time>2015-11-15T11:12:55Z</time>
      </trkpt>
      <trkpt lat="43.97436" lon="5.1473">
        <ele>383.3</ele>
        <time>2015-11-15T11:13:03Z</time>
      </trkpt>
      <trkpt lat="43.97414" lon="5.14723">
        <ele>379</ele>
        <time>2015-11-15T11:13:52Z</time>
      </trkpt>
      <trkpt lat="43.97405" lon="5.14729">
        <ele>378.2</ele>
        <time>2015-11-15T11:14:06Z</time>
      </trkpt>
      <trkpt lat="43.97397" lon="5.14735">
        <ele>376.6</ele>
        <time>2015-11-15T11:14:15Z</time>
      </trkpt>
      <trkpt lat="43.97394" lon="5.14748">
        <ele>373.9</ele>
        <time>2015-11-15T11:14:52Z</time>
      </trkpt>
      <trkpt lat="43.97394" lon="5.14761">
        <ele>373.8</ele>
        <time>2015-11-15T11:15:05Z</time>
      </trkpt>
      <trkpt lat="43.97396" lon="5.14775">
        <ele>374.3</ele>
        <time>2015-11-15T11:15:33Z</time>
      </trkpt>
      <trkpt lat="43.97394" lon="5.14788">
        <ele>374.8</ele>
        <time>2015-11-15T11:15:42Z</time>
      </trkpt>
      <trkpt lat="43.97391" lon="5.148">
        <ele>375.1</ele>
        <time>2015-11-15T11:15:51Z</time>
      </trkpt>
      <trkpt lat="43.97389" lon="5.14814">
        <ele>375</ele>
        <time>2015-11-15T11:15:59Z</time>
      </trkpt>
      <trkpt lat="43.97388" lon="5.14828">
        <ele>374.7</ele>
        <time>2015-11-15T11:16:06Z</time>
      </trkpt>
      <trkpt lat="43.97385" lon="5.1484">
        <ele>374.4</ele>
        <time>2015-11-15T11:16:13Z</time>
      </trkpt>
      <trkpt lat="43.97381" lon="5.14852">
        <ele>374.4</ele>
        <time>2015-11-15T11:16:17Z</time>
      </trkpt>
      <trkpt lat="43.97378" lon="5.14865">
        <ele>374</ele>
        <time>2015-11-15T11:16:21Z</time>
      </trkpt>
      <trkpt lat="43.97376" lon="5.14878">
        <ele>373.5</ele>
        <time>2015-11-15T11:16:27Z</time>
      </trkpt>
      <trkpt lat="43.97377" lon="5.1489">
        <ele>372.6</ele>
        <time>2015-11-15T11:16:42Z</time>
      </trkpt>
      <trkpt lat="43.97372" lon="5.14901">
        <ele>370.6</ele>
        <time>2015-11-15T11:17:09Z</time>
      </trkpt>
      <trkpt lat="43.97366" lon="5.14912">
        <ele>368.8</ele>
        <time>2015-11-15T11:17:22Z</time>
      </trkpt>
      <trkpt lat="43.97364" lon="5.14924">
        <ele>367.8</ele>
        <time>2015-11-15T11:17:29Z</time>
      </trkpt>
      <trkpt lat="43.97355" lon="5.14927">
        <ele>366.6</ele>
        <time>2015-11-15T11:17:35Z</time>
      </trkpt>
      <trkpt lat="43.97346" lon="5.14929">
        <ele>365.5</ele>
        <time>2015-11-15T11:17:40Z</time>
      </trkpt>
      <trkpt lat="43.97337" lon="5.14936">
        <ele>363.4</ele>
        <time>2015-11-15T11:17:51Z</time>
      </trkpt>
      <trkpt lat="43.97328" lon="5.14942">
        <ele>362</ele>
        <time>2015-11-15T11:17:58Z</time>
      </trkpt>
      <trkpt lat="43.97317" lon="5.14941">
        <ele>360.9</ele>
        <time>2015-11-15T11:18:05Z</time>
      </trkpt>
      <trkpt lat="43.97307" lon="5.14939">
        <ele>360</ele>
        <time>2015-11-15T11:18:11Z</time>
      </trkpt>
      <trkpt lat="43.97298" lon="5.14941">
        <ele>358.9</ele>
        <time>2015-11-15T11:18:18Z</time>
      </trkpt>
      <trkpt lat="43.97289" lon="5.14947">
        <ele>358.2</ele>
        <time>2015-11-15T11:18:27Z</time>
      </trkpt>
      <trkpt lat="43.97281" lon="5.14954">
        <ele>357.7</ele>
        <time>2015-11-15T11:18:37Z</time>
      </trkpt>
      <trkpt lat="43.97275" lon="5.14964">
        <ele>357.6</ele>
        <time>2015-11-15T11:18:46Z</time>
      </trkpt>
      <trkpt lat="43.97268" lon="5.14978">
        <ele>358.8</ele>
        <time>2015-11-15T11:19:11Z</time>
      </trkpt>
      <trkpt lat="43.9726" lon="5.14985">
        <ele>359.8</ele>
        <time>2015-11-15T11:19:38Z</time>
      </trkpt>
      <trkpt lat="43.97253" lon="5.14994">
        <ele>360.4</ele>
        <time>2015-11-15T11:20:00Z</time>
      </trkpt>
      <trkpt lat="43.97244" lon="5.14995">
        <ele>361.6</ele>
        <time>2015-11-15T11:20:12Z</time>
      </trkpt>
      <trkpt lat="43.97239" lon="5.14985">
        <ele>363</ele>
        <time>2015-11-15T11:20:41Z</time>
      </trkpt>
      <trkpt lat="43.97241" lon="5.14972">
        <ele>363.7</ele>
        <time>2015-11-15T11:21:05Z</time>
      </trkpt>
      <trkpt lat="43.97248" lon="5.14963">
        <ele>365.4</ele>
        <time>2015-11-15T11:22:15Z</time>
      </trkpt>
      <trkpt lat="43.97242" lon="5.14954">
        <ele>365.5</ele>
        <time>2015-11-15T11:22:24Z</time>
      </trkpt>
      <trkpt lat="43.97232" lon="5.14953">
        <ele>366.1</ele>
        <time>2015-11-15T11:22:34Z</time>
      </trkpt>
      <trkpt lat="43.97223" lon="5.14955">
        <ele>367.1</ele>
        <time>2015-11-15T11:22:47Z</time>
      </trkpt>
      <trkpt lat="43.97217" lon="5.14966">
        <ele>367.8</ele>
        <time>2015-11-15T11:22:55Z</time>
      </trkpt>
      <trkpt lat="43.97214" lon="5.14977">
        <ele>368.8</ele>
        <time>2015-11-15T11:23:01Z</time>
      </trkpt>
      <trkpt lat="43.97206" lon="5.14989">
        <ele>369.9</ele>
        <time>2015-11-15T11:23:08Z</time>
      </trkpt>
      <trkpt lat="43.97198" lon="5.14996">
        <ele>371.2</ele>
        <time>2015-11-15T11:23:16Z</time>
      </trkpt>
      <trkpt lat="43.97189" lon="5.14992">
        <ele>372.4</ele>
        <time>2015-11-15T11:23:24Z</time>
      </trkpt>
      <trkpt lat="43.97183" lon="5.1498">
        <ele>373.6</ele>
        <time>2015-11-15T11:23:32Z</time>
      </trkpt>
      <trkpt lat="43.97184" lon="5.14967">
        <ele>374.7</ele>
        <time>2015-11-15T11:23:39Z</time>
      </trkpt>
      <trkpt lat="43.97184" lon="5.14953">
        <ele>375.8</ele>
        <time>2015-11-15T11:23:47Z</time>
      </trkpt>
      <trkpt lat="43.97183" lon="5.14939">
        <ele>376.5</ele>
        <time>2015-11-15T11:23:52Z</time>
      </trkpt>
      <trkpt lat="43.97182" lon="5.14924">
        <ele>377.5</ele>
        <time>2015-11-15T11:23:58Z</time>
      </trkpt>
      <trkpt lat="43.9718" lon="5.14912">
        <ele>378.4</ele>
        <time>2015-11-15T11:24:04Z</time>
      </trkpt>
      <trkpt lat="43.97179" lon="5.14899">
        <ele>379.4</ele>
        <time>2015-11-15T11:24:10Z</time>
      </trkpt>
      <trkpt lat="43.97175" lon="5.14884">
        <ele>380.2</ele>
        <time>2015-11-15T11:24:17Z</time>
      </trkpt>
      <trkpt lat="43.97175" lon="5.14871">
        <ele>381.2</ele>
        <time>2015-11-15T11:24:25Z</time>
      </trkpt>
      <trkpt lat="43.97175" lon="5.14858">
        <ele>381.7</ele>
        <time>2015-11-15T11:24:29Z</time>
      </trkpt>
      <trkpt lat="43.97174" lon="5.14844">
        <ele>382.4</ele>
        <time>2015-11-15T11:24:34Z</time>
      </trkpt>
      <trkpt lat="43.97174" lon="5.14828">
        <ele>383</ele>
        <time>2015-11-15T11:24:40Z</time>
      </trkpt>
      <trkpt lat="43.97173" lon="5.14816">
        <ele>384</ele>
        <time>2015-11-15T11:24:49Z</time>
      </trkpt>
      <trkpt lat="43.97178" lon="5.14805">
        <ele>385.9</ele>
        <time>2015-11-15T11:25:06Z</time>
      </trkpt>
      <trkpt lat="43.97168" lon="5.14799">
        <ele>386.3</ele>
        <time>2015-11-15T11:25:12Z</time>
      </trkpt>
      <trkpt lat="43.97166" lon="5.14784">
        <ele>386.8</ele>
        <time>2015-11-15T11:25:20Z</time>
      </trkpt>
      <trkpt lat="43.97172" lon="5.14773">
        <ele>387</ele>
        <time>2015-11-15T11:25:24Z</time>
      </trkpt>
      <trkpt lat="43.97178" lon="5.14763">
        <ele>387.5</ele>
        <time>2015-11-15T11:25:29Z</time>
      </trkpt>
      <trkpt lat="43.97182" lon="5.14751">
        <ele>388.1</ele>
        <time>2015-11-15T11:25:34Z</time>
      </trkpt>
      <trkpt lat="43.9718" lon="5.14736">
        <ele>388.8</ele>
        <time>2015-11-15T11:25:39Z</time>
      </trkpt>
      <trkpt lat="43.9718" lon="5.14723">
        <ele>389.8</ele>
        <time>2015-11-15T11:25:44Z</time>
      </trkpt>
      <trkpt lat="43.97186" lon="5.14713">
        <ele>390.8</ele>
        <time>2015-11-15T11:25:49Z</time>
      </trkpt>
      <trkpt lat="43.97187" lon="5.14697">
        <ele>392</ele>
        <time>2015-11-15T11:25:57Z</time>
      </trkpt>
      <trkpt lat="43.97186" lon="5.14685">
        <ele>392.9</ele>
        <time>2015-11-15T11:26:02Z</time>
      </trkpt>
      <trkpt lat="43.9719" lon="5.14671">
        <ele>394.3</ele>
        <time>2015-11-15T11:26:08Z</time>
      </trkpt>
      <trkpt lat="43.9719" lon="5.14657">
        <ele>395.3</ele>
        <time>2015-11-15T11:26:12Z</time>
      </trkpt>
      <trkpt lat="43.97194" lon="5.14645">
        <ele>396.4</ele>
        <time>2015-11-15T11:26:17Z</time>
      </trkpt>
      <trkpt lat="43.97195" lon="5.14631">
        <ele>397.8</ele>
        <time>2015-11-15T11:26:23Z</time>
      </trkpt>
      <trkpt lat="43.97196" lon="5.14618">
        <ele>399.9</ele>
        <time>2015-11-15T11:26:31Z</time>
      </trkpt>
      <trkpt lat="43.97185" lon="5.14616">
        <ele>401.4</ele>
        <time>2015-11-15T11:26:37Z</time>
      </trkpt>
      <trkpt lat="43.97182" lon="5.14628">
        <ele>402.8</ele>
        <time>2015-11-15T11:26:43Z</time>
      </trkpt>
      <trkpt lat="43.97175" lon="5.14639">
        <ele>404.2</ele>
        <time>2015-11-15T11:26:50Z</time>
      </trkpt>
      <trkpt lat="43.97165" lon="5.1464">
        <ele>405.2</ele>
        <time>2015-11-15T11:26:56Z</time>
      </trkpt>
      <trkpt lat="43.97156" lon="5.14636">
        <ele>406.2</ele>
        <time>2015-11-15T11:27:01Z</time>
      </trkpt>
      <trkpt lat="43.97146" lon="5.14638">
        <ele>407.1</ele>
        <time>2015-11-15T11:27:07Z</time>
      </trkpt>
      <trkpt lat="43.97137" lon="5.14643">
        <ele>407.9</ele>
        <time>2015-11-15T11:27:13Z</time>
      </trkpt>
      <trkpt lat="43.97128" lon="5.14648">
        <ele>408.9</ele>
        <time>2015-11-15T11:27:20Z</time>
      </trkpt>
      <trkpt lat="43.97118" lon="5.14652">
        <ele>409.8</ele>
        <time>2015-11-15T11:27:26Z</time>
      </trkpt>
      <trkpt lat="43.97108" lon="5.14656">
        <ele>410.6</ele>
        <time>2015-11-15T11:27:33Z</time>
      </trkpt>
      <trkpt lat="43.97099" lon="5.1466">
        <ele>411.9</ele>
        <time>2015-11-15T11:27:40Z</time>
      </trkpt>
      <trkpt lat="43.97089" lon="5.14656">
        <ele>412.8</ele>
        <time>2015-11-15T11:27:47Z</time>
      </trkpt>
      <trkpt lat="43.9708" lon="5.14655">
        <ele>413.6</ele>
        <time>2015-11-15T11:27:54Z</time>
      </trkpt>
      <trkpt lat="43.9707" lon="5.14652">
        <ele>414.3</ele>
        <time>2015-11-15T11:28:00Z</time>
      </trkpt>
      <trkpt lat="43.97058" lon="5.14649">
        <ele>415.4</ele>
        <time>2015-11-15T11:28:13Z</time>
      </trkpt>
      <trkpt lat="43.9705" lon="5.14642">
        <ele>415.7</ele>
        <time>2015-11-15T11:28:16Z</time>
      </trkpt>
      <trkpt lat="43.97044" lon="5.14631">
        <ele>416</ele>
        <time>2015-11-15T11:28:21Z</time>
      </trkpt>
      <trkpt lat="43.97036" lon="5.14619">
        <ele>416.7</ele>
        <time>2015-11-15T11:28:26Z</time>
      </trkpt>
      <trkpt lat="43.97031" lon="5.14609">
        <ele>417.1</ele>
        <time>2015-11-15T11:28:31Z</time>
      </trkpt>
      <trkpt lat="43.97026" lon="5.14597">
        <ele>417.7</ele>
        <time>2015-11-15T11:28:44Z</time>
      </trkpt>
      <trkpt lat="43.97028" lon="5.14584">
        <ele>418.5</ele>
        <time>2015-11-15T11:29:13Z</time>
      </trkpt>
      <trkpt lat="43.97022" lon="5.14573">
        <ele>420.4</ele>
        <time>2015-11-15T11:30:53Z</time>
      </trkpt>
      <trkpt lat="43.97017" lon="5.14557">
        <ele>421.2</ele>
        <time>2015-11-15T11:31:28Z</time>
      </trkpt>
      <trkpt lat="43.97011" lon="5.14548">
        <ele>421.3</ele>
        <time>2015-11-15T11:31:36Z</time>
      </trkpt>
      <trkpt lat="43.97003" lon="5.14539">
        <ele>421.5</ele>
        <time>2015-11-15T11:31:45Z</time>
      </trkpt>
      <trkpt lat="43.96996" lon="5.14529">
        <ele>421.7</ele>
        <time>2015-11-15T11:31:52Z</time>
      </trkpt>
      <trkpt lat="43.96993" lon="5.14516">
        <ele>421.9</ele>
        <time>2015-11-15T11:31:57Z</time>
      </trkpt>
      <trkpt lat="43.96987" lon="5.14506">
        <ele>422</ele>
        <time>2015-11-15T11:32:02Z</time>
      </trkpt>
      <trkpt lat="43.96985" lon="5.14494">
        <ele>422.8</ele>
        <time>2015-11-15T11:32:13Z</time>
      </trkpt>
      <trkpt lat="43.96981" lon="5.14481">
        <ele>422.8</ele>
        <time>2015-11-15T11:32:19Z</time>
      </trkpt>
      <trkpt lat="43.96976" lon="5.14467">
        <ele>422.7</ele>
        <time>2015-11-15T11:32:22Z</time>
      </trkpt>
      <trkpt lat="43.96973" lon="5.14453">
        <ele>422.4</ele>
        <time>2015-11-15T11:32:26Z</time>
      </trkpt>
      <trkpt lat="43.96971" lon="5.14439">
        <ele>421.8</ele>
        <time>2015-11-15T11:32:32Z</time>
      </trkpt>
      <trkpt lat="43.96969" lon="5.14426">
        <ele>421.5</ele>
        <time>2015-11-15T11:32:37Z</time>
      </trkpt>
      <trkpt lat="43.96968" lon="5.14413">
        <ele>421.2</ele>
        <time>2015-11-15T11:32:43Z</time>
      </trkpt>
      <trkpt lat="43.96966" lon="5.14401">
        <ele>421</ele>
        <time>2015-11-15T11:32:49Z</time>
      </trkpt>
      <trkpt lat="43.96959" lon="5.14392">
        <ele>420.9</ele>
        <time>2015-11-15T11:32:56Z</time>
      </trkpt>
      <trkpt lat="43.96952" lon="5.14378">
        <ele>420.8</ele>
        <time>2015-11-15T11:33:00Z</time>
      </trkpt>
      <trkpt lat="43.96944" lon="5.14369">
        <ele>420.7</ele>
        <time>2015-11-15T11:33:05Z</time>
      </trkpt>
      <trkpt lat="43.96936" lon="5.14359">
        <ele>420.7</ele>
        <time>2015-11-15T11:33:14Z</time>
      </trkpt>
      <trkpt lat="43.96931" lon="5.14348">
        <ele>420.7</ele>
        <time>2015-11-15T11:33:18Z</time>
      </trkpt>
      <trkpt lat="43.96923" lon="5.14341">
        <ele>420.7</ele>
        <time>2015-11-15T11:33:24Z</time>
      </trkpt>
      <trkpt lat="43.96917" lon="5.1433">
        <ele>420.8</ele>
        <time>2015-11-15T11:33:30Z</time>
      </trkpt>
      <trkpt lat="43.96909" lon="5.1432">
        <ele>420.8</ele>
        <time>2015-11-15T11:33:37Z</time>
      </trkpt>
      <trkpt lat="43.96902" lon="5.14311">
        <ele>420.9</ele>
        <time>2015-11-15T11:33:41Z</time>
      </trkpt>
      <trkpt lat="43.96895" lon="5.14299">
        <ele>420.9</ele>
        <time>2015-11-15T11:33:46Z</time>
      </trkpt>
      <trkpt lat="43.96888" lon="5.14289">
        <ele>420.9</ele>
        <time>2015-11-15T11:33:53Z</time>
      </trkpt>
      <trkpt lat="43.96882" lon="5.14277">
        <ele>420.7</ele>
        <time>2015-11-15T11:33:59Z</time>
      </trkpt>
      <trkpt lat="43.96875" lon="5.14267">
        <ele>420.6</ele>
        <time>2015-11-15T11:34:05Z</time>
      </trkpt>
      <trkpt lat="43.9687" lon="5.14255">
        <ele>420.6</ele>
        <time>2015-11-15T11:34:13Z</time>
      </trkpt>
      <trkpt lat="43.96864" lon="5.14244">
        <ele>420.7</ele>
        <time>2015-11-15T11:34:18Z</time>
      </trkpt>
      <trkpt lat="43.96859" lon="5.14233">
        <ele>420.8</ele>
        <time>2015-11-15T11:34:23Z</time>
      </trkpt>
      <trkpt lat="43.96853" lon="5.14223">
        <ele>421</ele>
        <time>2015-11-15T11:34:28Z</time>
      </trkpt>
      <trkpt lat="43.96848" lon="5.14212">
        <ele>421.2</ele>
        <time>2015-11-15T11:34:33Z</time>
      </trkpt>
      <trkpt lat="43.96844" lon="5.14196">
        <ele>421.4</ele>
        <time>2015-11-15T11:34:37Z</time>
      </trkpt>
      <trkpt lat="43.9684" lon="5.14179">
        <ele>421.7</ele>
        <time>2015-11-15T11:34:41Z</time>
      </trkpt>
      <trkpt lat="43.96835" lon="5.14166">
        <ele>421.9</ele>
        <time>2015-11-15T11:34:44Z</time>
      </trkpt>
      <trkpt lat="43.96829" lon="5.14154">
        <ele>422.1</ele>
        <time>2015-11-15T11:34:47Z</time>
      </trkpt>
      <trkpt lat="43.96824" lon="5.14142">
        <ele>422.3</ele>
        <time>2015-11-15T11:34:50Z</time>
      </trkpt>
      <trkpt lat="43.96818" lon="5.14132">
        <ele>422.5</ele>
        <time>2015-11-15T11:34:53Z</time>
      </trkpt>
      <trkpt lat="43.9681" lon="5.14125">
        <ele>422.7</ele>
        <time>2015-11-15T11:34:56Z</time>
      </trkpt>
      <trkpt lat="43.96805" lon="5.14111">
        <ele>423.1</ele>
        <time>2015-11-15T11:35:02Z</time>
      </trkpt>
      <trkpt lat="43.96803" lon="5.14097">
        <ele>423.3</ele>
        <time>2015-11-15T11:35:06Z</time>
      </trkpt>
      <trkpt lat="43.96801" lon="5.14083">
        <ele>423.4</ele>
        <time>2015-11-15T11:35:10Z</time>
      </trkpt>
      <trkpt lat="43.96797" lon="5.14071">
        <ele>423.8</ele>
        <time>2015-11-15T11:35:19Z</time>
      </trkpt>
      <trkpt lat="43.96797" lon="5.14056">
        <ele>424.3</ele>
        <time>2015-11-15T11:35:25Z</time>
      </trkpt>
      <trkpt lat="43.96798" lon="5.14043">
        <ele>424.6</ele>
        <time>2015-11-15T11:35:30Z</time>
      </trkpt>
      <trkpt lat="43.968" lon="5.14029">
        <ele>424.8</ele>
        <time>2015-11-15T11:35:35Z</time>
      </trkpt>
      <trkpt lat="43.96807" lon="5.1402">
        <ele>425.2</ele>
        <time>2015-11-15T11:35:42Z</time>
      </trkpt>
      <trkpt lat="43.96814" lon="5.14011">
        <ele>426.2</ele>
        <time>2015-11-15T11:35:52Z</time>
      </trkpt>
      <trkpt lat="43.96821" lon="5.14">
        <ele>426.5</ele>
        <time>2015-11-15T11:35:57Z</time>
      </trkpt>
      <trkpt lat="43.96828" lon="5.13991">
        <ele>426.7</ele>
        <time>2015-11-15T11:36:01Z</time>
      </trkpt>
      <trkpt lat="43.96831" lon="5.13978">
        <ele>426.9</ele>
        <time>2015-11-15T11:36:07Z</time>
      </trkpt>
      <trkpt lat="43.96833" lon="5.13965">
        <ele>427.2</ele>
        <time>2015-11-15T11:36:13Z</time>
      </trkpt>
      <trkpt lat="43.9684" lon="5.13956">
        <ele>427.3</ele>
        <time>2015-11-15T11:36:17Z</time>
      </trkpt>
      <trkpt lat="43.96847" lon="5.13948">
        <ele>427.4</ele>
        <time>2015-11-15T11:36:22Z</time>
      </trkpt>
      <trkpt lat="43.96855" lon="5.13942">
        <ele>427.5</ele>
        <time>2015-11-15T11:36:27Z</time>
      </trkpt>
      <trkpt lat="43.96863" lon="5.13937">
        <ele>427.7</ele>
        <time>2015-11-15T11:36:36Z</time>
      </trkpt>
      <trkpt lat="43.96873" lon="5.1393">
        <ele>427.8</ele>
        <time>2015-11-15T11:36:42Z</time>
      </trkpt>
      <trkpt lat="43.96882" lon="5.13933">
        <ele>427.9</ele>
        <time>2015-11-15T11:36:49Z</time>
      </trkpt>
      <trkpt lat="43.96891" lon="5.1393">
        <ele>428</ele>
        <time>2015-11-15T11:36:57Z</time>
      </trkpt>
      <trkpt lat="43.96894" lon="5.13918">
        <ele>428.1</ele>
        <time>2015-11-15T11:37:03Z</time>
      </trkpt>
      <trkpt lat="43.96903" lon="5.1392">
        <ele>428.1</ele>
        <time>2015-11-15T11:37:11Z</time>
      </trkpt>
      <trkpt lat="43.96912" lon="5.13915">
        <ele>427.9</ele>
        <time>2015-11-15T11:37:23Z</time>
      </trkpt>
      <trkpt lat="43.96921" lon="5.1392">
        <ele>427.6</ele>
        <time>2015-11-15T11:37:33Z</time>
      </trkpt>
      <trkpt lat="43.9693" lon="5.13915">
        <ele>427.1</ele>
        <time>2015-11-15T11:37:40Z</time>
      </trkpt>
      <trkpt lat="43.96937" lon="5.13906">
        <ele>426.7</ele>
        <time>2015-11-15T11:37:46Z</time>
      </trkpt>
      <trkpt lat="43.96927" lon="5.13905">
        <ele>426.3</ele>
        <time>2015-11-15T11:37:53Z</time>
      </trkpt>
      <trkpt lat="43.96919" lon="5.13912">
        <ele>425.7</ele>
        <time>2015-11-15T11:38:03Z</time>
      </trkpt>
      <trkpt lat="43.9691" lon="5.13916">
        <ele>425.2</ele>
        <time>2015-11-15T11:38:10Z</time>
      </trkpt>
      <trkpt lat="43.96903" lon="5.13926">
        <ele>425</ele>
        <time>2015-11-15T11:38:14Z</time>
      </trkpt>
      <trkpt lat="43.96894" lon="5.13926">
        <ele>424.6</ele>
        <time>2015-11-15T11:38:25Z</time>
      </trkpt>
      <trkpt lat="43.96885" lon="5.13927">
        <ele>424</ele>
        <time>2015-11-15T11:38:34Z</time>
      </trkpt>
      <trkpt lat="43.96875" lon="5.13929">
        <ele>423.3</ele>
        <time>2015-11-15T11:38:42Z</time>
      </trkpt>
      <trkpt lat="43.96866" lon="5.13934">
        <ele>422.6</ele>
        <time>2015-11-15T11:38:48Z</time>
      </trkpt>
      <trkpt lat="43.96857" lon="5.1394">
        <ele>421.8</ele>
        <time>2015-11-15T11:38:56Z</time>
      </trkpt>
      <trkpt lat="43.96848" lon="5.13939">
        <ele>421.1</ele>
        <time>2015-11-15T11:39:03Z</time>
      </trkpt>
      <trkpt lat="43.96837" lon="5.13939">
        <ele>420.1</ele>
        <time>2015-11-15T11:39:11Z</time>
      </trkpt>
      <trkpt lat="43.96828" lon="5.13942">
        <ele>419.1</ele>
        <time>2015-11-15T11:39:20Z</time>
      </trkpt>
      <trkpt lat="43.96819" lon="5.13942">
        <ele>418.2</ele>
        <time>2015-11-15T11:39:30Z</time>
      </trkpt>
      <trkpt lat="43.9681" lon="5.13943">
        <ele>417.5</ele>
        <time>2015-11-15T11:39:38Z</time>
      </trkpt>
      <trkpt lat="43.968" lon="5.13939">
        <ele>416.6</ele>
        <time>2015-11-15T11:39:46Z</time>
      </trkpt>
      <trkpt lat="43.9679" lon="5.13939">
        <ele>415.3</ele>
        <time>2015-11-15T11:39:54Z</time>
      </trkpt>
      <trkpt lat="43.96781" lon="5.13938">
        <ele>413.9</ele>
        <time>2015-11-15T11:40:03Z</time>
      </trkpt>
      <trkpt lat="43.96781" lon="5.13952">
        <ele>413</ele>
        <time>2015-11-15T11:40:10Z</time>
      </trkpt>
      <trkpt lat="43.96771" lon="5.13946">
        <ele>412.5</ele>
        <time>2015-11-15T11:40:18Z</time>
      </trkpt>
      <trkpt lat="43.96763" lon="5.13953">
        <ele>410.9</ele>
        <time>2015-11-15T11:40:39Z</time>
      </trkpt>
      <trkpt lat="43.96757" lon="5.13963">
        <ele>410.2</ele>
        <time>2015-11-15T11:40:54Z</time>
      </trkpt>
      <trkpt lat="43.96748" lon="5.13965">
        <ele>409.6</ele>
        <time>2015-11-15T11:41:03Z</time>
      </trkpt>
      <trkpt lat="43.96739" lon="5.13974">
        <ele>408.4</ele>
        <time>2015-11-15T11:41:18Z</time>
      </trkpt>
      <trkpt lat="43.9673" lon="5.13971">
        <ele>408.2</ele>
        <time>2015-11-15T11:41:21Z</time>
      </trkpt>
      <trkpt lat="43.96721" lon="5.13981">
        <ele>407.8</ele>
        <time>2015-11-15T11:41:28Z</time>
      </trkpt>
      <trkpt lat="43.96713" lon="5.13977">
        <ele>407.9</ele>
        <time>2015-11-15T11:41:31Z</time>
      </trkpt>
      <trkpt lat="43.96704" lon="5.13973">
        <ele>408.1</ele>
        <time>2015-11-15T11:41:45Z</time>
      </trkpt>
      <trkpt lat="43.96695" lon="5.13969">
        <ele>408.2</ele>
        <time>2015-11-15T11:41:48Z</time>
      </trkpt>
      <trkpt lat="43.96686" lon="5.13965">
        <ele>408.2</ele>
        <time>2015-11-15T11:41:54Z</time>
      </trkpt>
      <trkpt lat="43.96679" lon="5.13974">
        <ele>407.7</ele>
        <time>2015-11-15T11:42:03Z</time>
      </trkpt>
      <trkpt lat="43.96678" lon="5.13986">
        <ele>407.4</ele>
        <time>2015-11-15T11:42:08Z</time>
      </trkpt>
      <trkpt lat="43.96668" lon="5.13987">
        <ele>406.9</ele>
        <time>2015-11-15T11:42:15Z</time>
      </trkpt>
      <trkpt lat="43.9666" lon="5.13981">
        <ele>406.4</ele>
        <time>2015-11-15T11:42:20Z</time>
      </trkpt>
      <trkpt lat="43.96651" lon="5.13979">
        <ele>405.9</ele>
        <time>2015-11-15T11:42:28Z</time>
      </trkpt>
      <trkpt lat="43.96642" lon="5.1398">
        <ele>405.5</ele>
        <time>2015-11-15T11:42:36Z</time>
      </trkpt>
      <trkpt lat="43.96632" lon="5.13986">
        <ele>405</ele>
        <time>2015-11-15T11:42:42Z</time>
      </trkpt>
      <trkpt lat="43.96628" lon="5.13998">
        <ele>404.7</ele>
        <time>2015-11-15T11:42:46Z</time>
      </trkpt>
      <trkpt lat="43.96621" lon="5.14006">
        <ele>402.8</ele>
        <time>2015-11-15T11:43:04Z</time>
      </trkpt>
      <trkpt lat="43.96613" lon="5.14015">
        <ele>402.1</ele>
        <time>2015-11-15T11:43:11Z</time>
      </trkpt>
      <trkpt lat="43.96608" lon="5.14029">
        <ele>401.8</ele>
        <time>2015-11-15T11:43:14Z</time>
      </trkpt>
      <trkpt lat="43.966" lon="5.14037">
        <ele>401.4</ele>
        <time>2015-11-15T11:43:18Z</time>
      </trkpt>
      <trkpt lat="43.96591" lon="5.14042">
        <ele>400.8</ele>
        <time>2015-11-15T11:43:25Z</time>
      </trkpt>
      <trkpt lat="43.96583" lon="5.14051">
        <ele>400.4</ele>
        <time>2015-11-15T11:43:35Z</time>
      </trkpt>
      <trkpt lat="43.9658" lon="5.14063">
        <ele>400</ele>
        <time>2015-11-15T11:43:43Z</time>
      </trkpt>
      <trkpt lat="43.96576" lon="5.14076">
        <ele>399.6</ele>
        <time>2015-11-15T11:43:49Z</time>
      </trkpt>
      <trkpt lat="43.96571" lon="5.14087">
        <ele>399</ele>
        <time>2015-11-15T11:43:58Z</time>
      </trkpt>
      <trkpt lat="43.96567" lon="5.14098">
        <ele>397.9</ele>
        <time>2015-11-15T11:44:08Z</time>
      </trkpt>
      <trkpt lat="43.96563" lon="5.1411">
        <ele>397.3</ele>
        <time>2015-11-15T11:44:14Z</time>
      </trkpt>
      <trkpt lat="43.96564" lon="5.14125">
        <ele>397</ele>
        <time>2015-11-15T11:44:19Z</time>
      </trkpt>
      <trkpt lat="43.96563" lon="5.14139">
        <ele>396.8</ele>
        <time>2015-11-15T11:44:24Z</time>
      </trkpt>
      <trkpt lat="43.96561" lon="5.14152">
        <ele>396.6</ele>
        <time>2015-11-15T11:44:29Z</time>
      </trkpt>
      <trkpt lat="43.96553" lon="5.14158">
        <ele>396.4</ele>
        <time>2015-11-15T11:44:35Z</time>
      </trkpt>
      <trkpt lat="43.96545" lon="5.14166">
        <ele>396.2</ele>
        <time>2015-11-15T11:44:43Z</time>
      </trkpt>
      <trkpt lat="43.96535" lon="5.14172">
        <ele>396.1</ele>
        <time>2015-11-15T11:44:50Z</time>
      </trkpt>
      <trkpt lat="43.96525" lon="5.14175">
        <ele>396</ele>
        <time>2015-11-15T11:45:02Z</time>
      </trkpt>
      <trkpt lat="43.96515" lon="5.14173">
        <ele>395.8</ele>
        <time>2015-11-15T11:45:08Z</time>
      </trkpt>
      <trkpt lat="43.96508" lon="5.14163">
        <ele>395.6</ele>
        <time>2015-11-15T11:45:12Z</time>
      </trkpt>
      <trkpt lat="43.96503" lon="5.14146">
        <ele>395.1</ele>
        <time>2015-11-15T11:45:18Z</time>
      </trkpt>
      <trkpt lat="43.96507" lon="5.14133">
        <ele>394.2</ele>
        <time>2015-11-15T11:45:31Z</time>
      </trkpt>
      <trkpt lat="43.96511" lon="5.14122">
        <ele>393.7</ele>
        <time>2015-11-15T11:45:39Z</time>
      </trkpt>
      <trkpt lat="43.96518" lon="5.14115">
        <ele>392.8</ele>
        <time>2015-11-15T11:45:49Z</time>
      </trkpt>
      <trkpt lat="43.9652" lon="5.14102">
        <ele>392.1</ele>
        <time>2015-11-15T11:46:03Z</time>
      </trkpt>
      <trkpt lat="43.96517" lon="5.1409">
        <ele>391.1</ele>
        <time>2015-11-15T11:46:14Z</time>
      </trkpt>
      <trkpt lat="43.96544" lon="5.14073">
        <ele>388</ele>
        <time>2015-11-15T11:46:42Z</time>
      </trkpt>
      <trkpt lat="43.96551" lon="5.14066">
        <ele>387.5</ele>
        <time>2015-11-15T11:47:28Z</time>
      </trkpt>
      <trkpt lat="43.96547" lon="5.14055">
        <ele>387.3</ele>
        <time>2015-11-15T11:47:50Z</time>
      </trkpt>
      <trkpt lat="43.96553" lon="5.14045">
        <ele>386.8</ele>
        <time>2015-11-15T11:48:00Z</time>
      </trkpt>
      <trkpt lat="43.96557" lon="5.14033">
        <ele>386.5</ele>
        <time>2015-11-15T11:48:09Z</time>
      </trkpt>
      <trkpt lat="43.96567" lon="5.14033">
        <ele>386.2</ele>
        <time>2015-11-15T11:48:17Z</time>
      </trkpt>
      <trkpt lat="43.96577" lon="5.14035">
        <ele>386</ele>
        <time>2015-11-15T11:48:22Z</time>
      </trkpt>
      <trkpt lat="43.96574" lon="5.14014">
        <ele>385.8</ele>
        <time>2015-11-15T11:48:47Z</time>
      </trkpt>
      <trkpt lat="43.96582" lon="5.14022">
        <ele>386.1</ele>
        <time>2015-11-15T11:51:11Z</time>
      </trkpt>
      <trkpt lat="43.96572" lon="5.14014">
        <ele>385.3</ele>
        <time>2015-11-15T11:51:28Z</time>
      </trkpt>
      <trkpt lat="43.96572" lon="5.14002">
        <ele>382.4</ele>
        <time>2015-11-15T11:52:12Z</time>
      </trkpt>
      <trkpt lat="43.96579" lon="5.13991">
        <ele>381.6</ele>
        <time>2015-11-15T11:52:22Z</time>
      </trkpt>
      <trkpt lat="43.96586" lon="5.14001">
        <ele>379.1</ele>
        <time>2015-11-15T11:53:01Z</time>
      </trkpt>
      <trkpt lat="43.96577" lon="5.13999">
        <ele>377.9</ele>
        <time>2015-11-15T11:53:22Z</time>
      </trkpt>
      <trkpt lat="43.96569" lon="5.14006">
        <ele>377.6</ele>
        <time>2015-11-15T11:53:27Z</time>
      </trkpt>
      <trkpt lat="43.96565" lon="5.14018">
        <ele>377</ele>
        <time>2015-11-15T11:53:38Z</time>
      </trkpt>
      <trkpt lat="43.96562" lon="5.14031">
        <ele>374.4</ele>
        <time>2015-11-15T11:54:23Z</time>
      </trkpt>
      <trkpt lat="43.96552" lon="5.1403">
        <ele>373.8</ele>
        <time>2015-11-15T11:54:31Z</time>
      </trkpt>
      <trkpt lat="43.96549" lon="5.14029">
        <ele>369.8</ele>
        <time>2015-11-15T11:55:13Z</time>
      </trkpt>
      <trkpt lat="43.96493" lon="5.14073">
        <ele>311.8</ele>
        <time>2015-11-15T13:21:56Z</time>
      </trkpt>
      <trkpt lat="43.96501" lon="5.14067">
        <ele>314.3</ele>
        <time>2015-11-15T13:22:14Z</time>
      </trkpt>
      <trkpt lat="43.96494" lon="5.14078">
        <ele>318.7</ele>
        <time>2015-11-15T13:23:10Z</time>
      </trkpt>
      <trkpt lat="43.96486" lon="5.14092">
        <ele>319.2</ele>
        <time>2015-11-15T13:23:14Z</time>
      </trkpt>
      <trkpt lat="43.96479" lon="5.14102">
        <ele>319.8</ele>
        <time>2015-11-15T13:23:19Z</time>
      </trkpt>
      <trkpt lat="43.96474" lon="5.14115">
        <ele>321</ele>
        <time>2015-11-15T13:23:26Z</time>
      </trkpt>
      <trkpt lat="43.96467" lon="5.14125">
        <ele>322.1</ele>
        <time>2015-11-15T13:23:34Z</time>
      </trkpt>
      <trkpt lat="43.96461" lon="5.14134">
        <ele>323</ele>
        <time>2015-11-15T13:23:40Z</time>
      </trkpt>
      <trkpt lat="43.96455" lon="5.14144">
        <ele>323.8</ele>
        <time>2015-11-15T13:23:46Z</time>
      </trkpt>
      <trkpt lat="43.96447" lon="5.14152">
        <ele>324.5</ele>
        <time>2015-11-15T13:23:53Z</time>
      </trkpt>
      <trkpt lat="43.9644" lon="5.14161">
        <ele>325.4</ele>
        <time>2015-11-15T13:24:00Z</time>
      </trkpt>
      <trkpt lat="43.96436" lon="5.14173">
        <ele>331.6</ele>
        <time>2015-11-15T13:25:19Z</time>
      </trkpt>
      <trkpt lat="43.96428" lon="5.14177">
        <ele>335</ele>
        <time>2015-11-15T13:25:59Z</time>
      </trkpt>
      <trkpt lat="43.96421" lon="5.14168">
        <ele>336.5</ele>
        <time>2015-11-15T13:26:23Z</time>
      </trkpt>
      <trkpt lat="43.96419" lon="5.14155">
        <ele>336.9</ele>
        <time>2015-11-15T13:26:33Z</time>
      </trkpt>
      <trkpt lat="43.96422" lon="5.14142">
        <ele>337.5</ele>
        <time>2015-11-15T13:26:41Z</time>
      </trkpt>
      <trkpt lat="43.96428" lon="5.14132">
        <ele>338.4</ele>
        <time>2015-11-15T13:26:49Z</time>
      </trkpt>
      <trkpt lat="43.96435" lon="5.14121">
        <ele>339.5</ele>
        <time>2015-11-15T13:26:56Z</time>
      </trkpt>
      <trkpt lat="43.96442" lon="5.1411">
        <ele>340.9</ele>
        <time>2015-11-15T13:27:04Z</time>
      </trkpt>
      <trkpt lat="43.96449" lon="5.14101">
        <ele>342.5</ele>
        <time>2015-11-15T13:27:12Z</time>
      </trkpt>
      <trkpt lat="43.96454" lon="5.14089">
        <ele>343.9</ele>
        <time>2015-11-15T13:27:19Z</time>
      </trkpt>
      <trkpt lat="43.96454" lon="5.14076">
        <ele>345.5</ele>
        <time>2015-11-15T13:27:27Z</time>
      </trkpt>
      <trkpt lat="43.96449" lon="5.14064">
        <ele>346.8</ele>
        <time>2015-11-15T13:27:34Z</time>
      </trkpt>
      <trkpt lat="43.96448" lon="5.14051">
        <ele>347.9</ele>
        <time>2015-11-15T13:27:40Z</time>
      </trkpt>
      <trkpt lat="43.96448" lon="5.14039">
        <ele>348.8</ele>
        <time>2015-11-15T13:27:46Z</time>
      </trkpt>
      <trkpt lat="43.9645" lon="5.14024">
        <ele>349.7</ele>
        <time>2015-11-15T13:27:52Z</time>
      </trkpt>
      <trkpt lat="43.96451" lon="5.14011">
        <ele>350.8</ele>
        <time>2015-11-15T13:28:01Z</time>
      </trkpt>
      <trkpt lat="43.9645" lon="5.13997">
        <ele>351.7</ele>
        <time>2015-11-15T13:28:08Z</time>
      </trkpt>
      <trkpt lat="43.96449" lon="5.13983">
        <ele>352.5</ele>
        <time>2015-11-15T13:28:14Z</time>
      </trkpt>
      <trkpt lat="43.96449" lon="5.1397">
        <ele>353.5</ele>
        <time>2015-11-15T13:28:23Z</time>
      </trkpt>
      <trkpt lat="43.9645" lon="5.13956">
        <ele>353.9</ele>
        <time>2015-11-15T13:28:28Z</time>
      </trkpt>
      <trkpt lat="43.96448" lon="5.13943">
        <ele>354.4</ele>
        <time>2015-11-15T13:28:33Z</time>
      </trkpt>
      <trkpt lat="43.96444" lon="5.13932">
        <ele>355</ele>
        <time>2015-11-15T13:28:39Z</time>
      </trkpt>
      <trkpt lat="43.96436" lon="5.13925">
        <ele>355.6</ele>
        <time>2015-11-15T13:28:45Z</time>
      </trkpt>
      <trkpt lat="43.96427" lon="5.13919">
        <ele>356.3</ele>
        <time>2015-11-15T13:28:51Z</time>
      </trkpt>
      <trkpt lat="43.96418" lon="5.13915">
        <ele>357.1</ele>
        <time>2015-11-15T13:28:58Z</time>
      </trkpt>
      <trkpt lat="43.9641" lon="5.1391">
        <ele>358.1</ele>
        <time>2015-11-15T13:29:04Z</time>
      </trkpt>
      <trkpt lat="43.964" lon="5.13907">
        <ele>359.3</ele>
        <time>2015-11-15T13:29:12Z</time>
      </trkpt>
      <trkpt lat="43.96392" lon="5.13901">
        <ele>360.4</ele>
        <time>2015-11-15T13:29:18Z</time>
      </trkpt>
      <trkpt lat="43.96382" lon="5.13899">
        <ele>365.7</ele>
        <time>2015-11-15T13:29:56Z</time>
      </trkpt>
      <trkpt lat="43.96373" lon="5.13893">
        <ele>366.6</ele>
        <time>2015-11-15T13:30:05Z</time>
      </trkpt>
      <trkpt lat="43.96366" lon="5.13887">
        <ele>367.7</ele>
        <time>2015-11-15T13:30:12Z</time>
      </trkpt>
      <trkpt lat="43.96355" lon="5.13887">
        <ele>369.2</ele>
        <time>2015-11-15T13:30:21Z</time>
      </trkpt>
      <trkpt lat="43.96346" lon="5.13882">
        <ele>370.4</ele>
        <time>2015-11-15T13:30:27Z</time>
      </trkpt>
      <trkpt lat="43.96336" lon="5.13876">
        <ele>371.9</ele>
        <time>2015-11-15T13:30:33Z</time>
      </trkpt>
      <trkpt lat="43.96327" lon="5.13872">
        <ele>373.4</ele>
        <time>2015-11-15T13:30:40Z</time>
      </trkpt>
      <trkpt lat="43.96317" lon="5.13867">
        <ele>375</ele>
        <time>2015-11-15T13:30:47Z</time>
      </trkpt>
      <trkpt lat="43.96308" lon="5.13864">
        <ele>376.2</ele>
        <time>2015-11-15T13:30:52Z</time>
      </trkpt>
      <trkpt lat="43.96301" lon="5.13853">
        <ele>377.2</ele>
        <time>2015-11-15T13:30:56Z</time>
      </trkpt>
      <trkpt lat="43.96292" lon="5.13846">
        <ele>378.5</ele>
        <time>2015-11-15T13:31:02Z</time>
      </trkpt>
      <trkpt lat="43.96285" lon="5.13834">
        <ele>380.3</ele>
        <time>2015-11-15T13:31:10Z</time>
      </trkpt>
      <trkpt lat="43.96279" lon="5.13824">
        <ele>381.6</ele>
        <time>2015-11-15T13:31:15Z</time>
      </trkpt>
      <trkpt lat="43.96271" lon="5.13816">
        <ele>383.4</ele>
        <time>2015-11-15T13:31:22Z</time>
      </trkpt>
      <trkpt lat="43.96264" lon="5.13807">
        <ele>385.7</ele>
        <time>2015-11-15T13:31:30Z</time>
      </trkpt>
      <trkpt lat="43.96257" lon="5.13799">
        <ele>387.2</ele>
        <time>2015-11-15T13:31:36Z</time>
      </trkpt>
      <trkpt lat="43.96249" lon="5.13792">
        <ele>388.7</ele>
        <time>2015-11-15T13:31:43Z</time>
      </trkpt>
      <trkpt lat="43.96244" lon="5.13805">
        <ele>390.8</ele>
        <time>2015-11-15T13:31:54Z</time>
      </trkpt>
      <trkpt lat="43.96242" lon="5.13818">
        <ele>391.8</ele>
        <time>2015-11-15T13:31:59Z</time>
      </trkpt>
      <trkpt lat="43.96235" lon="5.1381">
        <ele>392.8</ele>
        <time>2015-11-15T13:32:04Z</time>
      </trkpt>
      <trkpt lat="43.96227" lon="5.13803">
        <ele>394.1</ele>
        <time>2015-11-15T13:32:12Z</time>
      </trkpt>
      <trkpt lat="43.96222" lon="5.13792">
        <ele>395</ele>
        <time>2015-11-15T13:32:17Z</time>
      </trkpt>
      <trkpt lat="43.96214" lon="5.13783">
        <ele>395.7</ele>
        <time>2015-11-15T13:32:21Z</time>
      </trkpt>
      <trkpt lat="43.96207" lon="5.13772">
        <ele>396.5</ele>
        <time>2015-11-15T13:32:25Z</time>
      </trkpt>
      <trkpt lat="43.96198" lon="5.13765">
        <ele>398.1</ele>
        <time>2015-11-15T13:32:32Z</time>
      </trkpt>
      <trkpt lat="43.96189" lon="5.13761">
        <ele>399.9</ele>
        <time>2015-11-15T13:32:40Z</time>
      </trkpt>
      <trkpt lat="43.9618" lon="5.13755">
        <ele>401.2</ele>
        <time>2015-11-15T13:32:46Z</time>
      </trkpt>
      <trkpt lat="43.96174" lon="5.13742">
        <ele>403.1</ele>
        <time>2015-11-15T13:32:54Z</time>
      </trkpt>
      <trkpt lat="43.96166" lon="5.13734">
        <ele>404.3</ele>
        <time>2015-11-15T13:32:59Z</time>
      </trkpt>
      <trkpt lat="43.96159" lon="5.13726">
        <ele>405.8</ele>
        <time>2015-11-15T13:33:05Z</time>
      </trkpt>
      <trkpt lat="43.96155" lon="5.13715">
        <ele>407.1</ele>
        <time>2015-11-15T13:33:10Z</time>
      </trkpt>
      <trkpt lat="43.9615" lon="5.13704">
        <ele>408.4</ele>
        <time>2015-11-15T13:33:15Z</time>
      </trkpt>
      <trkpt lat="43.96141" lon="5.13698">
        <ele>409.9</ele>
        <time>2015-11-15T13:33:21Z</time>
      </trkpt>
      <trkpt lat="43.96132" lon="5.13693">
        <ele>411.4</ele>
        <time>2015-11-15T13:33:28Z</time>
      </trkpt>
      <trkpt lat="43.96122" lon="5.13692">
        <ele>413</ele>
        <time>2015-11-15T13:33:35Z</time>
      </trkpt>
      <trkpt lat="43.96114" lon="5.13685">
        <ele>414.6</ele>
        <time>2015-11-15T13:33:42Z</time>
      </trkpt>
      <trkpt lat="43.96105" lon="5.1368">
        <ele>415.9</ele>
        <time>2015-11-15T13:33:48Z</time>
      </trkpt>
      <trkpt lat="43.96096" lon="5.13676">
        <ele>417.7</ele>
        <time>2015-11-15T13:33:57Z</time>
      </trkpt>
      <trkpt lat="43.96088" lon="5.13669">
        <ele>419.4</ele>
        <time>2015-11-15T13:34:05Z</time>
      </trkpt>
      <trkpt lat="43.9608" lon="5.13662">
        <ele>420.7</ele>
        <time>2015-11-15T13:34:11Z</time>
      </trkpt>
      <trkpt lat="43.96071" lon="5.13657">
        <ele>422.5</ele>
        <time>2015-11-15T13:34:20Z</time>
      </trkpt>
      <trkpt lat="43.96062" lon="5.1365">
        <ele>423.8</ele>
        <time>2015-11-15T13:34:26Z</time>
      </trkpt>
      <trkpt lat="43.96055" lon="5.13642">
        <ele>424.8</ele>
        <time>2015-11-15T13:34:31Z</time>
      </trkpt>
      <trkpt lat="43.96048" lon="5.13633">
        <ele>425.7</ele>
        <time>2015-11-15T13:34:36Z</time>
      </trkpt>
      <trkpt lat="43.96041" lon="5.13622">
        <ele>426.5</ele>
        <time>2015-11-15T13:34:42Z</time>
      </trkpt>
      <trkpt lat="43.96031" lon="5.13617">
        <ele>428</ele>
        <time>2015-11-15T13:34:51Z</time>
      </trkpt>
      <trkpt lat="43.96021" lon="5.13617">
        <ele>428.9</ele>
        <time>2015-11-15T13:34:57Z</time>
      </trkpt>
      <trkpt lat="43.96012" lon="5.13615">
        <ele>430.3</ele>
        <time>2015-11-15T13:35:06Z</time>
      </trkpt>
      <trkpt lat="43.96005" lon="5.13607">
        <ele>431.4</ele>
        <time>2015-11-15T13:35:14Z</time>
      </trkpt>
      <trkpt lat="43.95997" lon="5.13601">
        <ele>432.2</ele>
        <time>2015-11-15T13:35:19Z</time>
      </trkpt>
      <trkpt lat="43.9599" lon="5.13591">
        <ele>433.1</ele>
        <time>2015-11-15T13:35:25Z</time>
      </trkpt>
      <trkpt lat="43.95986" lon="5.1358">
        <ele>434.1</ele>
        <time>2015-11-15T13:35:31Z</time>
      </trkpt>
      <trkpt lat="43.95981" lon="5.13568">
        <ele>435.7</ele>
        <time>2015-11-15T13:35:40Z</time>
      </trkpt>
      <trkpt lat="43.95974" lon="5.13559">
        <ele>437.1</ele>
        <time>2015-11-15T13:35:47Z</time>
      </trkpt>
      <trkpt lat="43.95966" lon="5.13551">
        <ele>438.4</ele>
        <time>2015-11-15T13:35:54Z</time>
      </trkpt>
      <trkpt lat="43.95961" lon="5.13541">
        <ele>439.9</ele>
        <time>2015-11-15T13:36:01Z</time>
      </trkpt>
      <trkpt lat="43.95954" lon="5.13532">
        <ele>441</ele>
        <time>2015-11-15T13:36:07Z</time>
      </trkpt>
      <trkpt lat="43.95947" lon="5.13523">
        <ele>442.2</ele>
        <time>2015-11-15T13:36:13Z</time>
      </trkpt>
      <trkpt lat="43.95943" lon="5.1351">
        <ele>443.2</ele>
        <time>2015-11-15T13:36:18Z</time>
      </trkpt>
      <trkpt lat="43.95935" lon="5.13502">
        <ele>444.5</ele>
        <time>2015-11-15T13:36:24Z</time>
      </trkpt>
      <trkpt lat="43.95928" lon="5.13494">
        <ele>446.5</ele>
        <time>2015-11-15T13:36:33Z</time>
      </trkpt>
      <trkpt lat="43.95919" lon="5.13487">
        <ele>447.8</ele>
        <time>2015-11-15T13:36:39Z</time>
      </trkpt>
      <trkpt lat="43.95911" lon="5.13479">
        <ele>449</ele>
        <time>2015-11-15T13:36:45Z</time>
      </trkpt>
      <trkpt lat="43.95905" lon="5.13468">
        <ele>450.4</ele>
        <time>2015-11-15T13:36:52Z</time>
      </trkpt>
      <trkpt lat="43.95897" lon="5.13461">
        <ele>451.8</ele>
        <time>2015-11-15T13:36:59Z</time>
      </trkpt>
      <trkpt lat="43.95891" lon="5.13452">
        <ele>453.1</ele>
        <time>2015-11-15T13:37:06Z</time>
      </trkpt>
      <trkpt lat="43.95892" lon="5.13438">
        <ele>456</ele>
        <time>2015-11-15T13:37:19Z</time>
      </trkpt>
      <trkpt lat="43.95887" lon="5.13417">
        <ele>459.8</ele>
        <time>2015-11-15T13:37:36Z</time>
      </trkpt>
      <trkpt lat="43.95882" lon="5.13406">
        <ele>460.9</ele>
        <time>2015-11-15T13:37:43Z</time>
      </trkpt>
      <trkpt lat="43.95875" lon="5.13386">
        <ele>466</ele>
        <time>2015-11-15T13:38:11Z</time>
      </trkpt>
      <trkpt lat="43.95865" lon="5.13358">
        <ele>469</ele>
        <time>2015-11-15T13:38:29Z</time>
      </trkpt>
      <trkpt lat="43.95859" lon="5.13348">
        <ele>471.1</ele>
        <time>2015-11-15T13:38:36Z</time>
      </trkpt>
      <trkpt lat="43.95855" lon="5.13336">
        <ele>472.5</ele>
        <time>2015-11-15T13:38:44Z</time>
      </trkpt>
      <trkpt lat="43.9585" lon="5.13324">
        <ele>474.1</ele>
        <time>2015-11-15T13:38:53Z</time>
      </trkpt>
      <trkpt lat="43.95842" lon="5.13302">
        <ele>475.3</ele>
        <time>2015-11-15T13:39:00Z</time>
      </trkpt>
      <trkpt lat="43.95836" lon="5.13289">
        <ele>475.6</ele>
        <time>2015-11-15T13:39:02Z</time>
      </trkpt>
      <trkpt lat="43.95821" lon="5.13259">
        <ele>476</ele>
        <time>2015-11-15T13:39:07Z</time>
      </trkpt>
      <trkpt lat="43.9581" lon="5.13255">
        <ele>477.6</ele>
        <time>2015-11-15T13:39:14Z</time>
      </trkpt>
      <trkpt lat="43.95801" lon="5.13258">
        <ele>478.9</ele>
        <time>2015-11-15T13:39:24Z</time>
      </trkpt>
      <trkpt lat="43.95792" lon="5.13264">
        <ele>479.5</ele>
        <time>2015-11-15T13:39:29Z</time>
      </trkpt>
      <trkpt lat="43.95783" lon="5.1327">
        <ele>480.6</ele>
        <time>2015-11-15T13:39:38Z</time>
      </trkpt>
      <trkpt lat="43.95775" lon="5.13275">
        <ele>481.3</ele>
        <time>2015-11-15T13:39:45Z</time>
      </trkpt>
      <trkpt lat="43.95763" lon="5.13278">
        <ele>482.4</ele>
        <time>2015-11-15T13:39:53Z</time>
      </trkpt>
      <trkpt lat="43.95753" lon="5.13278">
        <ele>483.2</ele>
        <time>2015-11-15T13:39:58Z</time>
      </trkpt>
      <trkpt lat="43.95743" lon="5.13278">
        <ele>484.6</ele>
        <time>2015-11-15T13:40:07Z</time>
      </trkpt>
      <trkpt lat="43.95736" lon="5.13285">
        <ele>486.7</ele>
        <time>2015-11-15T13:40:19Z</time>
      </trkpt>
      <trkpt lat="43.95726" lon="5.13294">
        <ele>488.2</ele>
        <time>2015-11-15T13:40:26Z</time>
      </trkpt>
      <trkpt lat="43.95717" lon="5.133">
        <ele>489.6</ele>
        <time>2015-11-15T13:40:33Z</time>
      </trkpt>
      <trkpt lat="43.95713" lon="5.13312">
        <ele>491</ele>
        <time>2015-11-15T13:40:40Z</time>
      </trkpt>
      <trkpt lat="43.95708" lon="5.13324">
        <ele>493.2</ele>
        <time>2015-11-15T13:40:51Z</time>
      </trkpt>
      <trkpt lat="43.95705" lon="5.13336">
        <ele>496.4</ele>
        <time>2015-11-15T13:41:07Z</time>
      </trkpt>
      <trkpt lat="43.95699" lon="5.13346">
        <ele>498.5</ele>
        <time>2015-11-15T13:41:18Z</time>
      </trkpt>
      <trkpt lat="43.95689" lon="5.13349">
        <ele>502.9</ele>
        <time>2015-11-15T13:41:48Z</time>
      </trkpt>
      <trkpt lat="43.95675" lon="5.13354">
        <ele>503.2</ele>
        <time>2015-11-15T13:41:50Z</time>
      </trkpt>
      <trkpt lat="43.95664" lon="5.13352">
        <ele>505</ele>
        <time>2015-11-15T13:42:11Z</time>
      </trkpt>
      <trkpt lat="43.95657" lon="5.13362">
        <ele>505.9</ele>
        <time>2015-11-15T13:42:21Z</time>
      </trkpt>
      <trkpt lat="43.95651" lon="5.1335">
        <ele>507.8</ele>
        <time>2015-11-15T13:43:01Z</time>
      </trkpt>
      <trkpt lat="43.95661" lon="5.13344">
        <ele>508.6</ele>
        <time>2015-11-15T13:43:23Z</time>
      </trkpt>
      <trkpt lat="43.95662" lon="5.13331">
        <ele>508.5</ele>
        <time>2015-11-15T13:43:31Z</time>
      </trkpt>
      <trkpt lat="43.95658" lon="5.13318">
        <ele>508.3</ele>
        <time>2015-11-15T13:43:35Z</time>
      </trkpt>
      <trkpt lat="43.95664" lon="5.13308">
        <ele>507.4</ele>
        <time>2015-11-15T13:43:51Z</time>
      </trkpt>
      <trkpt lat="43.95668" lon="5.13287">
        <ele>505</ele>
        <time>2015-11-15T13:44:27Z</time>
      </trkpt>
      <trkpt lat="43.95664" lon="5.13275">
        <ele>505.1</ele>
        <time>2015-11-15T13:44:36Z</time>
      </trkpt>
      <trkpt lat="43.95661" lon="5.13261">
        <ele>504.1</ele>
        <time>2015-11-15T13:44:48Z</time>
      </trkpt>
      <trkpt lat="43.9566" lon="5.13245">
        <ele>503.3</ele>
        <time>2015-11-15T13:44:55Z</time>
      </trkpt>
      <trkpt lat="43.95657" lon="5.13233">
        <ele>502.1</ele>
        <time>2015-11-15T13:45:05Z</time>
      </trkpt>
      <trkpt lat="43.95651" lon="5.1321">
        <ele>500.1</ele>
        <time>2015-11-15T13:45:22Z</time>
      </trkpt>
      <trkpt lat="43.95648" lon="5.13198">
        <ele>499.6</ele>
        <time>2015-11-15T13:45:27Z</time>
      </trkpt>
      <trkpt lat="43.95646" lon="5.13183">
        <ele>498.6</ele>
        <time>2015-11-15T13:45:38Z</time>
      </trkpt>
      <trkpt lat="43.95645" lon="5.1317">
        <ele>497.9</ele>
        <time>2015-11-15T13:45:46Z</time>
      </trkpt>
      <trkpt lat="43.95643" lon="5.13157">
        <ele>497.8</ele>
        <time>2015-11-15T13:45:53Z</time>
      </trkpt>
      <trkpt lat="43.95642" lon="5.13145">
        <ele>497.8</ele>
        <time>2015-11-15T13:45:58Z</time>
      </trkpt>
      <trkpt lat="43.95642" lon="5.13131">
        <ele>497.2</ele>
        <time>2015-11-15T13:46:05Z</time>
      </trkpt>
      <trkpt lat="43.95642" lon="5.13118">
        <ele>496.6</ele>
        <time>2015-11-15T13:46:11Z</time>
      </trkpt>
      <trkpt lat="43.95647" lon="5.13107">
        <ele>495.7</ele>
        <time>2015-11-15T13:46:23Z</time>
      </trkpt>
      <trkpt lat="43.95652" lon="5.13096">
        <ele>494.6</ele>
        <time>2015-11-15T13:46:31Z</time>
      </trkpt>
      <trkpt lat="43.95638" lon="5.13041">
        <ele>494</ele>
        <time>2015-11-15T13:46:37Z</time>
      </trkpt>
      <trkpt lat="43.95648" lon="5.13023">
        <ele>494.1</ele>
        <time>2015-11-15T13:46:42Z</time>
      </trkpt>
      <trkpt lat="43.9565" lon="5.13011">
        <ele>494.2</ele>
        <time>2015-11-15T13:46:49Z</time>
      </trkpt>
      <trkpt lat="43.95656" lon="5.13002">
        <ele>493.2</ele>
        <time>2015-11-15T13:47:02Z</time>
      </trkpt>
      <trkpt lat="43.95662" lon="5.1299">
        <ele>492.6</ele>
        <time>2015-11-15T13:47:10Z</time>
      </trkpt>
      <trkpt lat="43.95663" lon="5.12978">
        <ele>492</ele>
        <time>2015-11-15T13:47:17Z</time>
      </trkpt>
      <trkpt lat="43.95673" lon="5.12971">
        <ele>491.6</ele>
        <time>2015-11-15T13:47:21Z</time>
      </trkpt>
      <trkpt lat="43.95668" lon="5.1296">
        <ele>491</ele>
        <time>2015-11-15T13:47:30Z</time>
      </trkpt>
      <trkpt lat="43.95662" lon="5.12947">
        <ele>490</ele>
        <time>2015-11-15T13:47:39Z</time>
      </trkpt>
      <trkpt lat="43.9566" lon="5.12932">
        <ele>488.9</ele>
        <time>2015-11-15T13:47:50Z</time>
      </trkpt>
      <trkpt lat="43.95661" lon="5.12916">
        <ele>488.2</ele>
        <time>2015-11-15T13:47:55Z</time>
      </trkpt>
      <trkpt lat="43.95659" lon="5.12903">
        <ele>486.9</ele>
        <time>2015-11-15T13:48:06Z</time>
      </trkpt>
      <trkpt lat="43.9565" lon="5.12898">
        <ele>485.8</ele>
        <time>2015-11-15T13:48:13Z</time>
      </trkpt>
      <trkpt lat="43.95643" lon="5.12888">
        <ele>484.3</ele>
        <time>2015-11-15T13:48:22Z</time>
      </trkpt>
      <trkpt lat="43.95637" lon="5.12878">
        <ele>483.4</ele>
        <time>2015-11-15T13:48:28Z</time>
      </trkpt>
      <trkpt lat="43.95636" lon="5.12865">
        <ele>480.8</ele>
        <time>2015-11-15T13:48:40Z</time>
      </trkpt>
      <trkpt lat="43.95634" lon="5.12852">
        <ele>480</ele>
        <time>2015-11-15T13:48:46Z</time>
      </trkpt>
      <trkpt lat="43.95631" lon="5.1284">
        <ele>478.3</ele>
        <time>2015-11-15T13:48:57Z</time>
      </trkpt>
      <trkpt lat="43.95628" lon="5.12828">
        <ele>477.2</ele>
        <time>2015-11-15T13:49:06Z</time>
      </trkpt>
      <trkpt lat="43.95624" lon="5.12815">
        <ele>476.6</ele>
        <time>2015-11-15T13:49:10Z</time>
      </trkpt>
      <trkpt lat="43.95624" lon="5.12801">
        <ele>473.7</ele>
        <time>2015-11-15T13:51:35Z</time>
      </trkpt>
      <trkpt lat="43.95625" lon="5.12788">
        <ele>473</ele>
        <time>2015-11-15T13:51:46Z</time>
      </trkpt>
      <trkpt lat="43.95624" lon="5.12775">
        <ele>471.5</ele>
        <time>2015-11-15T13:51:55Z</time>
      </trkpt>
      <trkpt lat="43.95619" lon="5.12764">
        <ele>469.9</ele>
        <time>2015-11-15T13:52:06Z</time>
      </trkpt>
      <trkpt lat="43.95616" lon="5.12751">
        <ele>468.9</ele>
        <time>2015-11-15T13:52:12Z</time>
      </trkpt>
      <trkpt lat="43.95616" lon="5.12738">
        <ele>467.7</ele>
        <time>2015-11-15T13:52:20Z</time>
      </trkpt>
      <trkpt lat="43.95614" lon="5.12725">
        <ele>466.6</ele>
        <time>2015-11-15T13:52:26Z</time>
      </trkpt>
      <trkpt lat="43.9561" lon="5.12708">
        <ele>463.7</ele>
        <time>2015-11-15T13:52:46Z</time>
      </trkpt>
      <trkpt lat="43.95605" lon="5.12697">
        <ele>463.3</ele>
        <time>2015-11-15T13:52:54Z</time>
      </trkpt>
      <trkpt lat="43.95606" lon="5.12682">
        <ele>461.5</ele>
        <time>2015-11-15T13:53:54Z</time>
      </trkpt>
      <trkpt lat="43.95605" lon="5.12668">
        <ele>461.5</ele>
        <time>2015-11-15T13:54:00Z</time>
      </trkpt>
      <trkpt lat="43.95602" lon="5.12654">
        <ele>461.2</ele>
        <time>2015-11-15T13:54:07Z</time>
      </trkpt>
      <trkpt lat="43.95598" lon="5.12643">
        <ele>460.9</ele>
        <time>2015-11-15T13:54:12Z</time>
      </trkpt>
      <trkpt lat="43.95594" lon="5.12631">
        <ele>460.5</ele>
        <time>2015-11-15T13:54:19Z</time>
      </trkpt>
      <trkpt lat="43.95586" lon="5.1262">
        <ele>460.1</ele>
        <time>2015-11-15T13:54:25Z</time>
      </trkpt>
      <trkpt lat="43.95582" lon="5.12607">
        <ele>459.5</ele>
        <time>2015-11-15T13:54:32Z</time>
      </trkpt>
      <trkpt lat="43.95579" lon="5.12595">
        <ele>458.3</ele>
        <time>2015-11-15T13:54:40Z</time>
      </trkpt>
      <trkpt lat="43.95577" lon="5.12581">
        <ele>457.8</ele>
        <time>2015-11-15T13:54:48Z</time>
      </trkpt>
      <trkpt lat="43.95574" lon="5.12567">
        <ele>457.5</ele>
        <time>2015-11-15T13:54:54Z</time>
      </trkpt>
      <trkpt lat="43.95569" lon="5.12556">
        <ele>457.2</ele>
        <time>2015-11-15T13:55:00Z</time>
      </trkpt>
      <trkpt lat="43.95563" lon="5.12546">
        <ele>456.6</ele>
        <time>2015-11-15T13:55:08Z</time>
      </trkpt>
      <trkpt lat="43.95558" lon="5.12535">
        <ele>455.7</ele>
        <time>2015-11-15T13:55:16Z</time>
      </trkpt>
      <trkpt lat="43.9555" lon="5.12529">
        <ele>455.1</ele>
        <time>2015-11-15T13:55:23Z</time>
      </trkpt>
      <trkpt lat="43.95541" lon="5.12535">
        <ele>454.7</ele>
        <time>2015-11-15T13:55:30Z</time>
      </trkpt>
      <trkpt lat="43.95537" lon="5.12548">
        <ele>454.4</ele>
        <time>2015-11-15T13:55:37Z</time>
      </trkpt>
      <trkpt lat="43.95539" lon="5.12561">
        <ele>454</ele>
        <time>2015-11-15T13:55:45Z</time>
      </trkpt>
      <trkpt lat="43.9554" lon="5.12575">
        <ele>453.3</ele>
        <time>2015-11-15T13:55:53Z</time>
      </trkpt>
      <trkpt lat="43.95539" lon="5.12589">
        <ele>452.9</ele>
        <time>2015-11-15T13:55:59Z</time>
      </trkpt>
      <trkpt lat="43.95541" lon="5.12602">
        <ele>452.5</ele>
        <time>2015-11-15T13:56:07Z</time>
      </trkpt>
      <trkpt lat="43.95542" lon="5.12614">
        <ele>451.9</ele>
        <time>2015-11-15T13:56:15Z</time>
      </trkpt>
      <trkpt lat="43.95541" lon="5.12628">
        <ele>451.3</ele>
        <time>2015-11-15T13:56:22Z</time>
      </trkpt>
      <trkpt lat="43.9554" lon="5.12642">
        <ele>450.7</ele>
        <time>2015-11-15T13:56:29Z</time>
      </trkpt>
      <trkpt lat="43.9554" lon="5.12655">
        <ele>449.9</ele>
        <time>2015-11-15T13:56:36Z</time>
      </trkpt>
      <trkpt lat="43.95538" lon="5.12668">
        <ele>448.9</ele>
        <time>2015-11-15T13:56:45Z</time>
      </trkpt>
      <trkpt lat="43.95535" lon="5.12681">
        <ele>448.1</ele>
        <time>2015-11-15T13:56:52Z</time>
      </trkpt>
      <trkpt lat="43.95531" lon="5.12693">
        <ele>447.4</ele>
        <time>2015-11-15T13:56:58Z</time>
      </trkpt>
      <trkpt lat="43.9553" lon="5.12706">
        <ele>446.6</ele>
        <time>2015-11-15T13:57:06Z</time>
      </trkpt>
      <trkpt lat="43.95531" lon="5.1272">
        <ele>445.8</ele>
        <time>2015-11-15T13:57:13Z</time>
      </trkpt>
      <trkpt lat="43.9553" lon="5.12733">
        <ele>445</ele>
        <time>2015-11-15T13:57:21Z</time>
      </trkpt>
      <trkpt lat="43.95527" lon="5.12746">
        <ele>444.3</ele>
        <time>2015-11-15T13:57:28Z</time>
      </trkpt>
      <trkpt lat="43.95522" lon="5.12758">
        <ele>443.8</ele>
        <time>2015-11-15T13:57:34Z</time>
      </trkpt>
      <trkpt lat="43.9552" lon="5.12771">
        <ele>443.4</ele>
        <time>2015-11-15T13:57:38Z</time>
      </trkpt>
      <trkpt lat="43.95517" lon="5.12784">
        <ele>443</ele>
        <time>2015-11-15T13:57:43Z</time>
      </trkpt>
      <trkpt lat="43.95515" lon="5.12797">
        <ele>442.5</ele>
        <time>2015-11-15T13:57:50Z</time>
      </trkpt>
      <trkpt lat="43.95514" lon="5.1281">
        <ele>442.2</ele>
        <time>2015-11-15T13:57:56Z</time>
      </trkpt>
      <trkpt lat="43.95512" lon="5.12824">
        <ele>441.9</ele>
        <time>2015-11-15T13:58:02Z</time>
      </trkpt>
      <trkpt lat="43.95509" lon="5.12836">
        <ele>441.8</ele>
        <time>2015-11-15T13:58:07Z</time>
      </trkpt>
      <trkpt lat="43.95508" lon="5.12849">
        <ele>441.7</ele>
        <time>2015-11-15T13:58:12Z</time>
      </trkpt>
      <trkpt lat="43.95506" lon="5.12863">
        <ele>441.5</ele>
        <time>2015-11-15T13:58:18Z</time>
      </trkpt>
      <trkpt lat="43.95506" lon="5.12875">
        <ele>441.5</ele>
        <time>2015-11-15T13:58:24Z</time>
      </trkpt>
      <trkpt lat="43.95505" lon="5.1289">
        <ele>441.3</ele>
        <time>2015-11-15T13:58:30Z</time>
      </trkpt>
      <trkpt lat="43.95502" lon="5.12903">
        <ele>441.4</ele>
        <time>2015-11-15T13:58:34Z</time>
      </trkpt>
      <trkpt lat="43.95494" lon="5.12912">
        <ele>441.4</ele>
        <time>2015-11-15T13:58:38Z</time>
      </trkpt>
      <trkpt lat="43.95489" lon="5.12923">
        <ele>441.4</ele>
        <time>2015-11-15T13:58:43Z</time>
      </trkpt>
      <trkpt lat="43.95485" lon="5.12935">
        <ele>441.8</ele>
        <time>2015-11-15T13:58:51Z</time>
      </trkpt>
      <trkpt lat="43.95484" lon="5.12949">
        <ele>442.1</ele>
        <time>2015-11-15T13:59:01Z</time>
      </trkpt>
      <trkpt lat="43.95486" lon="5.12962">
        <ele>442.3</ele>
        <time>2015-11-15T13:59:09Z</time>
      </trkpt>
      <trkpt lat="43.95484" lon="5.12976">
        <ele>442.6</ele>
        <time>2015-11-15T13:59:16Z</time>
      </trkpt>
      <trkpt lat="43.95479" lon="5.12987">
        <ele>442.7</ele>
        <time>2015-11-15T13:59:21Z</time>
      </trkpt>
      <trkpt lat="43.95469" lon="5.1299">
        <ele>443.1</ele>
        <time>2015-11-15T13:59:26Z</time>
      </trkpt>
      <trkpt lat="43.95461" lon="5.12985">
        <ele>443.8</ele>
        <time>2015-11-15T13:59:35Z</time>
      </trkpt>
      <trkpt lat="43.95457" lon="5.12973">
        <ele>444.4</ele>
        <time>2015-11-15T13:59:43Z</time>
      </trkpt>
      <trkpt lat="43.95455" lon="5.12961">
        <ele>445</ele>
        <time>2015-11-15T13:59:51Z</time>
      </trkpt>
      <trkpt lat="43.95452" lon="5.12948">
        <ele>445.7</ele>
        <time>2015-11-15T13:59:59Z</time>
      </trkpt>
      <trkpt lat="43.95448" lon="5.12934">
        <ele>446.3</ele>
        <time>2015-11-15T14:00:06Z</time>
      </trkpt>
      <trkpt lat="43.95444" lon="5.12921">
        <ele>446.7</ele>
        <time>2015-11-15T14:00:12Z</time>
      </trkpt>
      <trkpt lat="43.95439" lon="5.12909">
        <ele>447</ele>
        <time>2015-11-15T14:00:19Z</time>
      </trkpt>
      <trkpt lat="43.95434" lon="5.12898">
        <ele>447.3</ele>
        <time>2015-11-15T14:00:25Z</time>
      </trkpt>
      <trkpt lat="43.95427" lon="5.1289">
        <ele>447.7</ele>
        <time>2015-11-15T14:00:31Z</time>
      </trkpt>
      <trkpt lat="43.95422" lon="5.12878">
        <ele>447.9</ele>
        <time>2015-11-15T14:00:36Z</time>
      </trkpt>
      <trkpt lat="43.95417" lon="5.12865">
        <ele>448</ele>
        <time>2015-11-15T14:00:42Z</time>
      </trkpt>
      <trkpt lat="43.95412" lon="5.12854">
        <ele>448.2</ele>
        <time>2015-11-15T14:00:48Z</time>
      </trkpt>
      <trkpt lat="43.95409" lon="5.12841">
        <ele>448.3</ele>
        <time>2015-11-15T14:00:56Z</time>
      </trkpt>
      <trkpt lat="43.95408" lon="5.12826">
        <ele>448.4</ele>
        <time>2015-11-15T14:01:03Z</time>
      </trkpt>
      <trkpt lat="43.95406" lon="5.12814">
        <ele>448.4</ele>
        <time>2015-11-15T14:01:09Z</time>
      </trkpt>
      <trkpt lat="43.95404" lon="5.12801">
        <ele>448.4</ele>
        <time>2015-11-15T14:01:16Z</time>
      </trkpt>
      <trkpt lat="43.95398" lon="5.12788">
        <ele>448.4</ele>
        <time>2015-11-15T14:01:23Z</time>
      </trkpt>
      <trkpt lat="43.95392" lon="5.12777">
        <ele>448.1</ele>
        <time>2015-11-15T14:01:29Z</time>
      </trkpt>
      <trkpt lat="43.95386" lon="5.12767">
        <ele>447.6</ele>
        <time>2015-11-15T14:01:36Z</time>
      </trkpt>
      <trkpt lat="43.95378" lon="5.12759">
        <ele>447.3</ele>
        <time>2015-11-15T14:01:42Z</time>
      </trkpt>
      <trkpt lat="43.9537" lon="5.1275">
        <ele>446.8</ele>
        <time>2015-11-15T14:01:47Z</time>
      </trkpt>
      <trkpt lat="43.95362" lon="5.12743">
        <ele>446.4</ele>
        <time>2015-11-15T14:01:52Z</time>
      </trkpt>
      <trkpt lat="43.95354" lon="5.12735">
        <ele>446</ele>
        <time>2015-11-15T14:01:57Z</time>
      </trkpt>
      <trkpt lat="43.95344" lon="5.12729">
        <ele>445.7</ele>
        <time>2015-11-15T14:02:02Z</time>
      </trkpt>
      <trkpt lat="43.95336" lon="5.12723">
        <ele>445.1</ele>
        <time>2015-11-15T14:02:07Z</time>
      </trkpt>
      <trkpt lat="43.95327" lon="5.12719">
        <ele>444.3</ele>
        <time>2015-11-15T14:02:14Z</time>
      </trkpt>
      <trkpt lat="43.95318" lon="5.12715">
        <ele>443.5</ele>
        <time>2015-11-15T14:02:21Z</time>
      </trkpt>
      <trkpt lat="43.95309" lon="5.12709">
        <ele>442.6</ele>
        <time>2015-11-15T14:02:28Z</time>
      </trkpt>
      <trkpt lat="43.953" lon="5.12706">
        <ele>441.9</ele>
        <time>2015-11-15T14:02:34Z</time>
      </trkpt>
      <trkpt lat="43.95293" lon="5.12698">
        <ele>441.2</ele>
        <time>2015-11-15T14:02:39Z</time>
      </trkpt>
      <trkpt lat="43.95282" lon="5.12699">
        <ele>440.3</ele>
        <time>2015-11-15T14:02:46Z</time>
      </trkpt>
      <trkpt lat="43.95273" lon="5.12698">
        <ele>439.6</ele>
        <time>2015-11-15T14:02:52Z</time>
      </trkpt>
      <trkpt lat="43.95264" lon="5.12696">
        <ele>438.9</ele>
        <time>2015-11-15T14:02:58Z</time>
      </trkpt>
      <trkpt lat="43.95255" lon="5.12698">
        <ele>438.3</ele>
        <time>2015-11-15T14:03:03Z</time>
      </trkpt>
      <trkpt lat="43.95246" lon="5.12694">
        <ele>437.7</ele>
        <time>2015-11-15T14:03:08Z</time>
      </trkpt>
      <trkpt lat="43.95237" lon="5.12691">
        <ele>436.8</ele>
        <time>2015-11-15T14:03:14Z</time>
      </trkpt>
      <trkpt lat="43.95228" lon="5.12693">
        <ele>435.7</ele>
        <time>2015-11-15T14:03:22Z</time>
      </trkpt>
      <trkpt lat="43.95218" lon="5.12693">
        <ele>434.7</ele>
        <time>2015-11-15T14:03:30Z</time>
      </trkpt>
      <trkpt lat="43.95209" lon="5.12689">
        <ele>433.5</ele>
        <time>2015-11-15T14:03:38Z</time>
      </trkpt>
      <trkpt lat="43.95199" lon="5.12688">
        <ele>432.6</ele>
        <time>2015-11-15T14:03:44Z</time>
      </trkpt>
      <trkpt lat="43.9519" lon="5.12689">
        <ele>431.7</ele>
        <time>2015-11-15T14:03:50Z</time>
      </trkpt>
      <trkpt lat="43.95181" lon="5.12694">
        <ele>430.9</ele>
        <time>2015-11-15T14:03:57Z</time>
      </trkpt>
      <trkpt lat="43.95172" lon="5.12699">
        <ele>429.7</ele>
        <time>2015-11-15T14:04:04Z</time>
      </trkpt>
      <trkpt lat="43.95162" lon="5.12704">
        <ele>428.8</ele>
        <time>2015-11-15T14:04:10Z</time>
      </trkpt>
      <trkpt lat="43.95154" lon="5.12709">
        <ele>427.5</ele>
        <time>2015-11-15T14:04:18Z</time>
      </trkpt>
      <trkpt lat="43.95146" lon="5.12718">
        <ele>426.5</ele>
        <time>2015-11-15T14:04:25Z</time>
      </trkpt>
      <trkpt lat="43.95141" lon="5.12729">
        <ele>425.2</ele>
        <time>2015-11-15T14:04:33Z</time>
      </trkpt>
      <trkpt lat="43.95136" lon="5.12741">
        <ele>424.4</ele>
        <time>2015-11-15T14:04:38Z</time>
      </trkpt>
      <trkpt lat="43.95132" lon="5.12754">
        <ele>423.3</ele>
        <time>2015-11-15T14:04:45Z</time>
      </trkpt>
      <trkpt lat="43.9513" lon="5.12768">
        <ele>422.4</ele>
        <time>2015-11-15T14:04:52Z</time>
      </trkpt>
      <trkpt lat="43.95131" lon="5.12781">
        <ele>421.4</ele>
        <time>2015-11-15T14:05:00Z</time>
      </trkpt>
      <trkpt lat="43.95135" lon="5.12793">
        <ele>420.8</ele>
        <time>2015-11-15T14:05:07Z</time>
      </trkpt>
      <trkpt lat="43.95141" lon="5.12803">
        <ele>420.3</ele>
        <time>2015-11-15T14:05:13Z</time>
      </trkpt>
      <trkpt lat="43.95143" lon="5.12816">
        <ele>419.7</ele>
        <time>2015-11-15T14:05:19Z</time>
      </trkpt>
      <trkpt lat="43.95134" lon="5.12821">
        <ele>418.2</ele>
        <time>2015-11-15T14:05:30Z</time>
      </trkpt>
      <trkpt lat="43.95133" lon="5.12808">
        <ele>416.5</ele>
        <time>2015-11-15T14:05:41Z</time>
      </trkpt>
      <trkpt lat="43.95129" lon="5.12797">
        <ele>415.6</ele>
        <time>2015-11-15T14:05:48Z</time>
      </trkpt>
      <trkpt lat="43.95121" lon="5.1279">
        <ele>415</ele>
        <time>2015-11-15T14:05:52Z</time>
      </trkpt>
      <trkpt lat="43.95117" lon="5.12777">
        <ele>413.7</ele>
        <time>2015-11-15T14:06:01Z</time>
      </trkpt>
      <trkpt lat="43.95115" lon="5.12762">
        <ele>412.8</ele>
        <time>2015-11-15T14:06:08Z</time>
      </trkpt>
      <trkpt lat="43.95115" lon="5.12749">
        <ele>412.3</ele>
        <time>2015-11-15T14:06:13Z</time>
      </trkpt>
      <trkpt lat="43.95117" lon="5.12735">
        <ele>411.4</ele>
        <time>2015-11-15T14:06:20Z</time>
      </trkpt>
      <trkpt lat="43.95117" lon="5.12723">
        <ele>410.1</ele>
        <time>2015-11-15T14:06:28Z</time>
      </trkpt>
      <trkpt lat="43.95112" lon="5.12713">
        <ele>409.5</ele>
        <time>2015-11-15T14:06:31Z</time>
      </trkpt>
      <trkpt lat="43.95102" lon="5.12702">
        <ele>408.9</ele>
        <time>2015-11-15T14:06:36Z</time>
      </trkpt>
      <trkpt lat="43.95093" lon="5.12705">
        <ele>408.2</ele>
        <time>2015-11-15T14:06:43Z</time>
      </trkpt>
      <trkpt lat="43.95093" lon="5.12719">
        <ele>407</ele>
        <time>2015-11-15T14:06:53Z</time>
      </trkpt>
      <trkpt lat="43.95098" lon="5.1273">
        <ele>406.1</ele>
        <time>2015-11-15T14:07:00Z</time>
      </trkpt>
      <trkpt lat="43.95098" lon="5.12743">
        <ele>405.6</ele>
        <time>2015-11-15T14:07:05Z</time>
      </trkpt>
      <trkpt lat="43.95098" lon="5.12757">
        <ele>404.5</ele>
        <time>2015-11-15T14:07:13Z</time>
      </trkpt>
      <trkpt lat="43.95097" lon="5.1277">
        <ele>403.9</ele>
        <time>2015-11-15T14:07:18Z</time>
      </trkpt>
      <trkpt lat="43.95091" lon="5.12782">
        <ele>403.4</ele>
        <time>2015-11-15T14:07:23Z</time>
      </trkpt>
      <trkpt lat="43.95085" lon="5.12792">
        <ele>402.8</ele>
        <time>2015-11-15T14:07:27Z</time>
      </trkpt>
      <trkpt lat="43.9508" lon="5.12803">
        <ele>401.6</ele>
        <time>2015-11-15T14:07:33Z</time>
      </trkpt>
      <trkpt lat="43.95072" lon="5.12809">
        <ele>399.6</ele>
        <time>2015-11-15T14:07:42Z</time>
      </trkpt>
      <trkpt lat="43.95064" lon="5.12817">
        <ele>398</ele>
        <time>2015-11-15T14:07:48Z</time>
      </trkpt>
      <trkpt lat="43.95059" lon="5.1283">
        <ele>397.1</ele>
        <time>2015-11-15T14:07:52Z</time>
      </trkpt>
      <trkpt lat="43.95058" lon="5.12842">
        <ele>395.4</ele>
        <time>2015-11-15T14:08:02Z</time>
      </trkpt>
      <trkpt lat="43.95058" lon="5.12855">
        <ele>394.5</ele>
        <time>2015-11-15T14:08:06Z</time>
      </trkpt>
      <trkpt lat="43.9505" lon="5.12867">
        <ele>391.7</ele>
        <time>2015-11-15T14:08:34Z</time>
      </trkpt>
      <trkpt lat="43.95045" lon="5.12877">
        <ele>390.2</ele>
        <time>2015-11-15T14:09:35Z</time>
      </trkpt>
      <trkpt lat="43.9504" lon="5.12889">
        <ele>390.2</ele>
        <time>2015-11-15T14:09:42Z</time>
      </trkpt>
      <trkpt lat="43.95035" lon="5.12901">
        <ele>390.2</ele>
        <time>2015-11-15T14:09:49Z</time>
      </trkpt>
      <trkpt lat="43.95026" lon="5.12907">
        <ele>390.4</ele>
        <time>2015-11-15T14:09:55Z</time>
      </trkpt>
      <trkpt lat="43.95016" lon="5.12906">
        <ele>390.5</ele>
        <time>2015-11-15T14:10:02Z</time>
      </trkpt>
      <trkpt lat="43.95006" lon="5.12901">
        <ele>390.6</ele>
        <time>2015-11-15T14:10:07Z</time>
      </trkpt>
      <trkpt lat="43.94996" lon="5.12901">
        <ele>390.7</ele>
        <time>2015-11-15T14:10:15Z</time>
      </trkpt>
      <trkpt lat="43.94986" lon="5.12896">
        <ele>390.7</ele>
        <time>2015-11-15T14:10:23Z</time>
      </trkpt>
      <trkpt lat="43.94977" lon="5.12888">
        <ele>390.7</ele>
        <time>2015-11-15T14:10:29Z</time>
      </trkpt>
      <trkpt lat="43.94968" lon="5.1288">
        <ele>390.7</ele>
        <time>2015-11-15T14:10:35Z</time>
      </trkpt>
      <trkpt lat="43.94961" lon="5.12872">
        <ele>390.5</ele>
        <time>2015-11-15T14:10:42Z</time>
      </trkpt>
      <trkpt lat="43.94953" lon="5.12866">
        <ele>390.3</ele>
        <time>2015-11-15T14:10:47Z</time>
      </trkpt>
      <trkpt lat="43.94944" lon="5.12859">
        <ele>390</ele>
        <time>2015-11-15T14:10:53Z</time>
      </trkpt>
      <trkpt lat="43.94936" lon="5.12853">
        <ele>389.4</ele>
        <time>2015-11-15T14:11:01Z</time>
      </trkpt>
      <trkpt lat="43.94928" lon="5.12846">
        <ele>388.3</ele>
        <time>2015-11-15T14:11:13Z</time>
      </trkpt>
      <trkpt lat="43.94921" lon="5.12837">
        <ele>388</ele>
        <time>2015-11-15T14:11:18Z</time>
      </trkpt>
      <trkpt lat="43.94912" lon="5.1283">
        <ele>387.5</ele>
        <time>2015-11-15T14:11:25Z</time>
      </trkpt>
      <trkpt lat="43.94905" lon="5.12824">
        <ele>387.3</ele>
        <time>2015-11-15T14:11:31Z</time>
      </trkpt>
      <trkpt lat="43.94895" lon="5.12818">
        <ele>387.1</ele>
        <time>2015-11-15T14:11:37Z</time>
      </trkpt>
      <trkpt lat="43.94886" lon="5.12815">
        <ele>386.9</ele>
        <time>2015-11-15T14:11:42Z</time>
      </trkpt>
      <trkpt lat="43.94882" lon="5.12827">
        <ele>387</ele>
        <time>2015-11-15T14:12:12Z</time>
      </trkpt>
      <trkpt lat="43.94873" lon="5.12832">
        <ele>387.2</ele>
        <time>2015-11-15T14:12:22Z</time>
      </trkpt>
      <trkpt lat="43.94864" lon="5.12831">
        <ele>387.5</ele>
        <time>2015-11-15T14:12:29Z</time>
      </trkpt>
      <trkpt lat="43.9486" lon="5.12819">
        <ele>388.1</ele>
        <time>2015-11-15T14:12:38Z</time>
      </trkpt>
      <trkpt lat="43.94859" lon="5.12806">
        <ele>388.5</ele>
        <time>2015-11-15T14:12:44Z</time>
      </trkpt>
      <trkpt lat="43.94854" lon="5.12793">
        <ele>389.1</ele>
        <time>2015-11-15T14:12:52Z</time>
      </trkpt>
      <trkpt lat="43.94847" lon="5.12785">
        <ele>389.7</ele>
        <time>2015-11-15T14:13:01Z</time>
      </trkpt>
      <trkpt lat="43.94837" lon="5.12781">
        <ele>390.2</ele>
        <time>2015-11-15T14:13:08Z</time>
      </trkpt>
      <trkpt lat="43.94828" lon="5.12775">
        <ele>390.8</ele>
        <time>2015-11-15T14:13:15Z</time>
      </trkpt>
      <trkpt lat="43.94822" lon="5.12766">
        <ele>391.2</ele>
        <time>2015-11-15T14:13:20Z</time>
      </trkpt>
      <trkpt lat="43.94823" lon="5.12752">
        <ele>391.8</ele>
        <time>2015-11-15T14:13:26Z</time>
      </trkpt>
      <trkpt lat="43.94824" lon="5.12738">
        <ele>392.7</ele>
        <time>2015-11-15T14:13:33Z</time>
      </trkpt>
      <trkpt lat="43.94821" lon="5.12724">
        <ele>393.4</ele>
        <time>2015-11-15T14:13:39Z</time>
      </trkpt>
      <trkpt lat="43.94816" lon="5.12714">
        <ele>394.2</ele>
        <time>2015-11-15T14:13:45Z</time>
      </trkpt>
      <trkpt lat="43.94812" lon="5.12702">
        <ele>395</ele>
        <time>2015-11-15T14:13:52Z</time>
      </trkpt>
      <trkpt lat="43.94811" lon="5.12688">
        <ele>395.8</ele>
        <time>2015-11-15T14:14:00Z</time>
      </trkpt>
      <trkpt lat="43.94808" lon="5.12676">
        <ele>396.6</ele>
        <time>2015-11-15T14:14:08Z</time>
      </trkpt>
      <trkpt lat="43.94802" lon="5.12665">
        <ele>397.4</ele>
        <time>2015-11-15T14:14:16Z</time>
      </trkpt>
      <trkpt lat="43.94796" lon="5.12656">
        <ele>398.1</ele>
        <time>2015-11-15T14:14:23Z</time>
      </trkpt>
      <trkpt lat="43.94788" lon="5.1265">
        <ele>398.8</ele>
        <time>2015-11-15T14:14:31Z</time>
      </trkpt>
      <trkpt lat="43.94782" lon="5.12639">
        <ele>399.6</ele>
        <time>2015-11-15T14:14:38Z</time>
      </trkpt>
      <trkpt lat="43.94774" lon="5.12631">
        <ele>400.1</ele>
        <time>2015-11-15T14:14:44Z</time>
      </trkpt>
      <trkpt lat="43.94767" lon="5.12622">
        <ele>400.9</ele>
        <time>2015-11-15T14:14:51Z</time>
      </trkpt>
      <trkpt lat="43.9476" lon="5.12614">
        <ele>401.5</ele>
        <time>2015-11-15T14:14:56Z</time>
      </trkpt>
      <trkpt lat="43.94752" lon="5.12604">
        <ele>402</ele>
        <time>2015-11-15T14:15:00Z</time>
      </trkpt>
      <trkpt lat="43.94744" lon="5.12598">
        <ele>402.8</ele>
        <time>2015-11-15T14:15:05Z</time>
      </trkpt>
      <trkpt lat="43.94736" lon="5.1259">
        <ele>403.9</ele>
        <time>2015-11-15T14:15:11Z</time>
      </trkpt>
      <trkpt lat="43.94728" lon="5.12585">
        <ele>404.6</ele>
        <time>2015-11-15T14:15:16Z</time>
      </trkpt>
      <trkpt lat="43.94718" lon="5.12582">
        <ele>405.2</ele>
        <time>2015-11-15T14:15:21Z</time>
      </trkpt>
      <trkpt lat="43.94709" lon="5.12576">
        <ele>405.7</ele>
        <time>2015-11-15T14:15:27Z</time>
      </trkpt>
      <trkpt lat="43.947" lon="5.12572">
        <ele>406.1</ele>
        <time>2015-11-15T14:15:32Z</time>
      </trkpt>
      <trkpt lat="43.9469" lon="5.12566">
        <ele>406.5</ele>
        <time>2015-11-15T14:15:38Z</time>
      </trkpt>
      <trkpt lat="43.94682" lon="5.12559">
        <ele>406.6</ele>
        <time>2015-11-15T14:15:44Z</time>
      </trkpt>
      <trkpt lat="43.94674" lon="5.1255">
        <ele>406.5</ele>
        <time>2015-11-15T14:15:51Z</time>
      </trkpt>
      <trkpt lat="43.94666" lon="5.12541">
        <ele>406.2</ele>
        <time>2015-11-15T14:15:58Z</time>
      </trkpt>
      <trkpt lat="43.94659" lon="5.12531">
        <ele>405.7</ele>
        <time>2015-11-15T14:16:06Z</time>
      </trkpt>
      <trkpt lat="43.94652" lon="5.12521">
        <ele>405.2</ele>
        <time>2015-11-15T14:16:13Z</time>
      </trkpt>
      <trkpt lat="43.94646" lon="5.1251">
        <ele>404.9</ele>
        <time>2015-11-15T14:16:19Z</time>
      </trkpt>
      <trkpt lat="43.9464" lon="5.12499">
        <ele>404.6</ele>
        <time>2015-11-15T14:16:25Z</time>
      </trkpt>
      <trkpt lat="43.94635" lon="5.12487">
        <ele>404.2</ele>
        <time>2015-11-15T14:16:31Z</time>
      </trkpt>
      <trkpt lat="43.94629" lon="5.12475">
        <ele>403.9</ele>
        <time>2015-11-15T14:16:38Z</time>
      </trkpt>
      <trkpt lat="43.94624" lon="5.12463">
        <ele>403.8</ele>
        <time>2015-11-15T14:16:44Z</time>
      </trkpt>
      <trkpt lat="43.94616" lon="5.12454">
        <ele>403.5</ele>
        <time>2015-11-15T14:16:51Z</time>
      </trkpt>
      <trkpt lat="43.94609" lon="5.12446">
        <ele>403.2</ele>
        <time>2015-11-15T14:16:57Z</time>
      </trkpt>
      <trkpt lat="43.94599" lon="5.12445">
        <ele>402.9</ele>
        <time>2015-11-15T14:17:03Z</time>
      </trkpt>
      <trkpt lat="43.94589" lon="5.1244">
        <ele>402.5</ele>
        <time>2015-11-15T14:17:11Z</time>
      </trkpt>
      <trkpt lat="43.94579" lon="5.12438">
        <ele>402.1</ele>
        <time>2015-11-15T14:17:18Z</time>
      </trkpt>
      <trkpt lat="43.94569" lon="5.12439">
        <ele>401.6</ele>
        <time>2015-11-15T14:17:25Z</time>
      </trkpt>
      <trkpt lat="43.94559" lon="5.12438">
        <ele>401.1</ele>
        <time>2015-11-15T14:17:32Z</time>
      </trkpt>
      <trkpt lat="43.9455" lon="5.12439">
        <ele>400.5</ele>
        <time>2015-11-15T14:17:38Z</time>
      </trkpt>
      <trkpt lat="43.94541" lon="5.12444">
        <ele>400</ele>
        <time>2015-11-15T14:17:44Z</time>
      </trkpt>
      <trkpt lat="43.94532" lon="5.1245">
        <ele>399.5</ele>
        <time>2015-11-15T14:17:51Z</time>
      </trkpt>
      <trkpt lat="43.94522" lon="5.12447">
        <ele>398.9</ele>
        <time>2015-11-15T14:17:59Z</time>
      </trkpt>
      <trkpt lat="43.94514" lon="5.12439">
        <ele>398.4</ele>
        <time>2015-11-15T14:18:04Z</time>
      </trkpt>
      <trkpt lat="43.94505" lon="5.12433">
        <ele>397.7</ele>
        <time>2015-11-15T14:18:10Z</time>
      </trkpt>
      <trkpt lat="43.94496" lon="5.12427">
        <ele>397</ele>
        <time>2015-11-15T14:18:18Z</time>
      </trkpt>
      <trkpt lat="43.94487" lon="5.12424">
        <ele>396.7</ele>
        <time>2015-11-15T14:18:23Z</time>
      </trkpt>
      <trkpt lat="43.94478" lon="5.12418">
        <ele>396.4</ele>
        <time>2015-11-15T14:18:29Z</time>
      </trkpt>
      <trkpt lat="43.94469" lon="5.12411">
        <ele>396.1</ele>
        <time>2015-11-15T14:18:34Z</time>
      </trkpt>
      <trkpt lat="43.94461" lon="5.12406">
        <ele>395.5</ele>
        <time>2015-11-15T14:18:40Z</time>
      </trkpt>
      <trkpt lat="43.94453" lon="5.124">
        <ele>395.2</ele>
        <time>2015-11-15T14:18:46Z</time>
      </trkpt>
      <trkpt lat="43.94443" lon="5.12395">
        <ele>394.6</ele>
        <time>2015-11-15T14:18:53Z</time>
      </trkpt>
      <trkpt lat="43.94433" lon="5.12391">
        <ele>394</ele>
        <time>2015-11-15T14:19:00Z</time>
      </trkpt>
      <trkpt lat="43.94423" lon="5.12389">
        <ele>393.4</ele>
        <time>2015-11-15T14:19:06Z</time>
      </trkpt>
      <trkpt lat="43.94414" lon="5.12385">
        <ele>392.8</ele>
        <time>2015-11-15T14:19:12Z</time>
      </trkpt>
      <trkpt lat="43.94405" lon="5.1238">
        <ele>392.3</ele>
        <time>2015-11-15T14:19:18Z</time>
      </trkpt>
      <trkpt lat="43.94396" lon="5.12378">
        <ele>391.7</ele>
        <time>2015-11-15T14:19:25Z</time>
      </trkpt>
      <trkpt lat="43.94386" lon="5.12375">
        <ele>391.2</ele>
        <time>2015-11-15T14:19:31Z</time>
      </trkpt>
      <trkpt lat="43.94377" lon="5.12371">
        <ele>390.7</ele>
        <time>2015-11-15T14:19:38Z</time>
      </trkpt>
      <trkpt lat="43.94368" lon="5.12366">
        <ele>390.1</ele>
        <time>2015-11-15T14:19:44Z</time>
      </trkpt>
      <trkpt lat="43.94358" lon="5.12361">
        <ele>389.6</ele>
        <time>2015-11-15T14:19:51Z</time>
      </trkpt>
      <trkpt lat="43.9435" lon="5.12356">
        <ele>389.3</ele>
        <time>2015-11-15T14:19:57Z</time>
      </trkpt>
      <trkpt lat="43.94341" lon="5.1235">
        <ele>389</ele>
        <time>2015-11-15T14:20:03Z</time>
      </trkpt>
      <trkpt lat="43.94333" lon="5.12344">
        <ele>388.8</ele>
        <time>2015-11-15T14:20:09Z</time>
      </trkpt>
      <trkpt lat="43.94323" lon="5.12343">
        <ele>388.5</ele>
        <time>2015-11-15T14:20:15Z</time>
      </trkpt>
      <trkpt lat="43.94316" lon="5.12351">
        <ele>388.2</ele>
        <time>2015-11-15T14:20:22Z</time>
      </trkpt>
      <trkpt lat="43.9431" lon="5.12361">
        <ele>388.1</ele>
        <time>2015-11-15T14:20:28Z</time>
      </trkpt>
      <trkpt lat="43.94302" lon="5.12369">
        <ele>387.9</ele>
        <time>2015-11-15T14:20:34Z</time>
      </trkpt>
      <trkpt lat="43.94296" lon="5.12378">
        <ele>387.7</ele>
        <time>2015-11-15T14:20:41Z</time>
      </trkpt>
      <trkpt lat="43.94288" lon="5.12387">
        <ele>387.2</ele>
        <time>2015-11-15T14:20:48Z</time>
      </trkpt>
      <trkpt lat="43.94281" lon="5.12395">
        <ele>386.7</ele>
        <time>2015-11-15T14:20:55Z</time>
      </trkpt>
      <trkpt lat="43.94273" lon="5.12402">
        <ele>386</ele>
        <time>2015-11-15T14:21:02Z</time>
      </trkpt>
      <trkpt lat="43.94267" lon="5.12413">
        <ele>385.2</ele>
        <time>2015-11-15T14:21:10Z</time>
      </trkpt>
      <trkpt lat="43.9426" lon="5.12422">
        <ele>383.9</ele>
        <time>2015-11-15T14:21:21Z</time>
      </trkpt>
      <trkpt lat="43.94257" lon="5.12435">
        <ele>382.7</ele>
        <time>2015-11-15T14:21:30Z</time>
      </trkpt>
      <trkpt lat="43.94257" lon="5.12449">
        <ele>382</ele>
        <time>2015-11-15T14:21:38Z</time>
      </trkpt>
      <trkpt lat="43.94258" lon="5.12462">
        <ele>381.8</ele>
        <time>2015-11-15T14:21:43Z</time>
      </trkpt>
      <trkpt lat="43.94259" lon="5.12477">
        <ele>381.4</ele>
        <time>2015-11-15T14:21:50Z</time>
      </trkpt>
      <trkpt lat="43.94259" lon="5.12491">
        <ele>380.9</ele>
        <time>2015-11-15T14:21:57Z</time>
      </trkpt>
      <trkpt lat="43.94257" lon="5.12503">
        <ele>380.3</ele>
        <time>2015-11-15T14:22:03Z</time>
      </trkpt>
      <trkpt lat="43.94252" lon="5.12515">
        <ele>379.6</ele>
        <time>2015-11-15T14:22:09Z</time>
      </trkpt>
      <trkpt lat="43.94247" lon="5.12528">
        <ele>378.9</ele>
        <time>2015-11-15T14:22:15Z</time>
      </trkpt>
      <trkpt lat="43.94241" lon="5.12539">
        <ele>377.9</ele>
        <time>2015-11-15T14:22:22Z</time>
      </trkpt>
      <trkpt lat="43.94235" lon="5.1255">
        <ele>376.8</ele>
        <time>2015-11-15T14:22:30Z</time>
      </trkpt>
      <trkpt lat="43.94231" lon="5.12562">
        <ele>376.1</ele>
        <time>2015-11-15T14:22:36Z</time>
      </trkpt>
      <trkpt lat="43.94226" lon="5.12573">
        <ele>375.3</ele>
        <time>2015-11-15T14:22:42Z</time>
      </trkpt>
      <trkpt lat="43.94221" lon="5.12584">
        <ele>374.4</ele>
        <time>2015-11-15T14:22:48Z</time>
      </trkpt>
      <trkpt lat="43.94216" lon="5.12595">
        <ele>373.7</ele>
        <time>2015-11-15T14:22:54Z</time>
      </trkpt>
      <trkpt lat="43.9421" lon="5.12605">
        <ele>372.9</ele>
        <time>2015-11-15T14:23:01Z</time>
      </trkpt>
      <trkpt lat="43.94204" lon="5.12616">
        <ele>372.1</ele>
        <time>2015-11-15T14:23:08Z</time>
      </trkpt>
      <trkpt lat="43.94199" lon="5.12629">
        <ele>371.1</ele>
        <time>2015-11-15T14:23:15Z</time>
      </trkpt>
      <trkpt lat="43.9419" lon="5.12636">
        <ele>370.2</ele>
        <time>2015-11-15T14:23:21Z</time>
      </trkpt>
      <trkpt lat="43.94182" lon="5.12631">
        <ele>368.8</ele>
        <time>2015-11-15T14:23:29Z</time>
      </trkpt>
      <trkpt lat="43.94176" lon="5.1262">
        <ele>367.8</ele>
        <time>2015-11-15T14:23:35Z</time>
      </trkpt>
      <trkpt lat="43.94171" lon="5.12608">
        <ele>366.5</ele>
        <time>2015-11-15T14:23:42Z</time>
      </trkpt>
      <trkpt lat="43.94169" lon="5.12595">
        <ele>365.3</ele>
        <time>2015-11-15T14:23:49Z</time>
      </trkpt>
      <trkpt lat="43.94168" lon="5.12582">
        <ele>364.2</ele>
        <time>2015-11-15T14:23:56Z</time>
      </trkpt>
      <trkpt lat="43.94167" lon="5.12569">
        <ele>362.8</ele>
        <time>2015-11-15T14:24:06Z</time>
      </trkpt>
      <trkpt lat="43.94167" lon="5.12556">
        <ele>361.4</ele>
        <time>2015-11-15T14:24:14Z</time>
      </trkpt>
      <trkpt lat="43.94165" lon="5.12542">
        <ele>360.8</ele>
        <time>2015-11-15T14:24:19Z</time>
      </trkpt>
      <trkpt lat="43.94159" lon="5.1253">
        <ele>360</ele>
        <time>2015-11-15T14:24:25Z</time>
      </trkpt>
      <trkpt lat="43.94153" lon="5.1252">
        <ele>359.1</ele>
        <time>2015-11-15T14:24:31Z</time>
      </trkpt>
      <trkpt lat="43.94144" lon="5.12512">
        <ele>358.2</ele>
        <time>2015-11-15T14:24:37Z</time>
      </trkpt>
      <trkpt lat="43.94135" lon="5.12504">
        <ele>357.4</ele>
        <time>2015-11-15T14:24:43Z</time>
      </trkpt>
      <trkpt lat="43.94127" lon="5.12499">
        <ele>356.7</ele>
        <time>2015-11-15T14:24:49Z</time>
      </trkpt>
      <trkpt lat="43.94119" lon="5.12492">
        <ele>355.8</ele>
        <time>2015-11-15T14:24:55Z</time>
      </trkpt>
      <trkpt lat="43.9411" lon="5.12485">
        <ele>354.9</ele>
        <time>2015-11-15T14:25:01Z</time>
      </trkpt>
      <trkpt lat="43.941" lon="5.12483">
        <ele>353.9</ele>
        <time>2015-11-15T14:25:07Z</time>
      </trkpt>
      <trkpt lat="43.94091" lon="5.12481">
        <ele>352.8</ele>
        <time>2015-11-15T14:25:13Z</time>
      </trkpt>
      <trkpt lat="43.94082" lon="5.12478">
        <ele>351.9</ele>
        <time>2015-11-15T14:25:19Z</time>
      </trkpt>
      <trkpt lat="43.94073" lon="5.12477">
        <ele>350.9</ele>
        <time>2015-11-15T14:25:27Z</time>
      </trkpt>
      <trkpt lat="43.94064" lon="5.12468">
        <ele>349.8</ele>
        <time>2015-11-15T14:25:34Z</time>
      </trkpt>
      <trkpt lat="43.94055" lon="5.12467">
        <ele>349.1</ele>
        <time>2015-11-15T14:25:40Z</time>
      </trkpt>
      <trkpt lat="43.94045" lon="5.12471">
        <ele>348.4</ele>
        <time>2015-11-15T14:25:46Z</time>
      </trkpt>
      <trkpt lat="43.94036" lon="5.12481">
        <ele>347.6</ele>
        <time>2015-11-15T14:25:52Z</time>
      </trkpt>
      <trkpt lat="43.94027" lon="5.12486">
        <ele>346.9</ele>
        <time>2015-11-15T14:25:57Z</time>
      </trkpt>
      <trkpt lat="43.94018" lon="5.12489">
        <ele>346.2</ele>
        <time>2015-11-15T14:26:02Z</time>
      </trkpt>
      <trkpt lat="43.9401" lon="5.12494">
        <ele>345.4</ele>
        <time>2015-11-15T14:26:07Z</time>
      </trkpt>
      <trkpt lat="43.94" lon="5.12501">
        <ele>344.5</ele>
        <time>2015-11-15T14:26:13Z</time>
      </trkpt>
      <trkpt lat="43.93991" lon="5.12506">
        <ele>343.8</ele>
        <time>2015-11-15T14:26:18Z</time>
      </trkpt>
      <trkpt lat="43.93983" lon="5.12515">
        <ele>342.9</ele>
        <time>2015-11-15T14:26:24Z</time>
      </trkpt>
      <trkpt lat="43.93975" lon="5.12523">
        <ele>341.8</ele>
        <time>2015-11-15T14:26:31Z</time>
      </trkpt>
      <trkpt lat="43.93966" lon="5.12531">
        <ele>340.6</ele>
        <time>2015-11-15T14:26:39Z</time>
      </trkpt>
      <trkpt lat="43.93958" lon="5.12538">
        <ele>339.6</ele>
        <time>2015-11-15T14:26:46Z</time>
      </trkpt>
      <trkpt lat="43.93949" lon="5.12543">
        <ele>338.7</ele>
        <time>2015-11-15T14:26:53Z</time>
      </trkpt>
      <trkpt lat="43.93942" lon="5.1255">
        <ele>337.9</ele>
        <time>2015-11-15T14:26:59Z</time>
      </trkpt>
      <trkpt lat="43.93933" lon="5.12554">
        <ele>337</ele>
        <time>2015-11-15T14:27:06Z</time>
      </trkpt>
      <trkpt lat="43.93923" lon="5.12554">
        <ele>336.3</ele>
        <time>2015-11-15T14:27:14Z</time>
      </trkpt>
      <trkpt lat="43.93912" lon="5.12552">
        <ele>335.9</ele>
        <time>2015-11-15T14:27:21Z</time>
      </trkpt>
      <trkpt lat="43.93902" lon="5.12549">
        <ele>335.4</ele>
        <time>2015-11-15T14:27:28Z</time>
      </trkpt>
      <trkpt lat="43.93901" lon="5.12562">
        <ele>334.8</ele>
        <time>2015-11-15T14:27:35Z</time>
      </trkpt>
      <trkpt lat="43.93909" lon="5.12568">
        <ele>334.2</ele>
        <time>2015-11-15T14:27:40Z</time>
      </trkpt>
      <trkpt lat="43.93918" lon="5.12574">
        <ele>333.4</ele>
        <time>2015-11-15T14:27:45Z</time>
      </trkpt>
      <trkpt lat="43.93928" lon="5.12578">
        <ele>332.7</ele>
        <time>2015-11-15T14:27:51Z</time>
      </trkpt>
      <trkpt lat="43.93937" lon="5.1258">
        <ele>332.1</ele>
        <time>2015-11-15T14:27:56Z</time>
      </trkpt>
      <trkpt lat="43.93946" lon="5.12585">
        <ele>331</ele>
        <time>2015-11-15T14:28:02Z</time>
      </trkpt>
      <trkpt lat="43.93956" lon="5.12588">
        <ele>329.8</ele>
        <time>2015-11-15T14:28:08Z</time>
      </trkpt>
      <trkpt lat="43.93966" lon="5.12592">
        <ele>328.8</ele>
        <time>2015-11-15T14:28:15Z</time>
      </trkpt>
      <trkpt lat="43.93976" lon="5.12593">
        <ele>328.3</ele>
        <time>2015-11-15T14:28:21Z</time>
      </trkpt>
      <trkpt lat="43.93985" lon="5.12598">
        <ele>327.8</ele>
        <time>2015-11-15T14:28:26Z</time>
      </trkpt>
      <trkpt lat="43.93989" lon="5.12611">
        <ele>327.3</ele>
        <time>2015-11-15T14:28:31Z</time>
      </trkpt>
      <trkpt lat="43.9398" lon="5.12618">
        <ele>326.7</ele>
        <time>2015-11-15T14:28:37Z</time>
      </trkpt>
      <trkpt lat="43.93969" lon="5.12617">
        <ele>325.9</ele>
        <time>2015-11-15T14:28:46Z</time>
      </trkpt>
      <trkpt lat="43.93959" lon="5.12619">
        <ele>325.4</ele>
        <time>2015-11-15T14:28:51Z</time>
      </trkpt>
      <trkpt lat="43.9395" lon="5.12618">
        <ele>324.6</ele>
        <time>2015-11-15T14:28:58Z</time>
      </trkpt>
      <trkpt lat="43.9394" lon="5.1262">
        <ele>323.6</ele>
        <time>2015-11-15T14:29:05Z</time>
      </trkpt>
      <trkpt lat="43.93931" lon="5.12626">
        <ele>322.9</ele>
        <time>2015-11-15T14:29:10Z</time>
      </trkpt>
      <trkpt lat="43.93922" lon="5.12629">
        <ele>322.2</ele>
        <time>2015-11-15T14:29:15Z</time>
      </trkpt>
      <trkpt lat="43.93912" lon="5.12633">
        <ele>321.3</ele>
        <time>2015-11-15T14:29:21Z</time>
      </trkpt>
      <trkpt lat="43.93904" lon="5.12639">
        <ele>319.2</ele>
        <time>2015-11-15T14:29:31Z</time>
      </trkpt>
      <trkpt lat="43.93896" lon="5.12646">
        <ele>317.6</ele>
        <time>2015-11-15T14:29:39Z</time>
      </trkpt>
      <trkpt lat="43.93887" lon="5.12651">
        <ele>316.3</ele>
        <time>2015-11-15T14:29:46Z</time>
      </trkpt>
      <trkpt lat="43.93878" lon="5.12656">
        <ele>315.3</ele>
        <time>2015-11-15T14:29:53Z</time>
      </trkpt>
      <trkpt lat="43.93867" lon="5.12658">
        <ele>314.1</ele>
        <time>2015-11-15T14:30:00Z</time>
      </trkpt>
      <trkpt lat="43.93856" lon="5.12659">
        <ele>312.9</ele>
        <time>2015-11-15T14:30:06Z</time>
      </trkpt>
      <trkpt lat="43.93847" lon="5.12659">
        <ele>312.1</ele>
        <time>2015-11-15T14:30:10Z</time>
      </trkpt>
      <trkpt lat="43.93838" lon="5.12659">
        <ele>310.9</ele>
        <time>2015-11-15T14:30:16Z</time>
      </trkpt>
      <trkpt lat="43.93828" lon="5.12658">
        <ele>309.2</ele>
        <time>2015-11-15T14:30:22Z</time>
      </trkpt>
      <trkpt lat="43.93819" lon="5.12655">
        <ele>308.3</ele>
        <time>2015-11-15T14:30:27Z</time>
      </trkpt>
      <trkpt lat="43.9381" lon="5.12653">
        <ele>307.4</ele>
        <time>2015-11-15T14:30:32Z</time>
      </trkpt>
      <trkpt lat="43.938" lon="5.12651">
        <ele>306.5</ele>
        <time>2015-11-15T14:30:38Z</time>
      </trkpt>
      <trkpt lat="43.93791" lon="5.12649">
        <ele>305.8</ele>
        <time>2015-11-15T14:30:44Z</time>
      </trkpt>
      <trkpt lat="43.93781" lon="5.1265">
        <ele>305.3</ele>
        <time>2015-11-15T14:30:50Z</time>
      </trkpt>
      <trkpt lat="43.93771" lon="5.12649">
        <ele>305</ele>
        <time>2015-11-15T14:30:54Z</time>
      </trkpt>
      <trkpt lat="43.93761" lon="5.12644">
        <ele>304.8</ele>
        <time>2015-11-15T14:30:58Z</time>
      </trkpt>
      <trkpt lat="43.93752" lon="5.12637">
        <ele>304.6</ele>
        <time>2015-11-15T14:31:03Z</time>
      </trkpt>
      <trkpt lat="43.93742" lon="5.1263">
        <ele>304.5</ele>
        <time>2015-11-15T14:31:07Z</time>
      </trkpt>
      <trkpt lat="43.93733" lon="5.12627">
        <ele>304.5</ele>
        <time>2015-11-15T14:31:10Z</time>
      </trkpt>
      <trkpt lat="43.93723" lon="5.12626">
        <ele>304.4</ele>
        <time>2015-11-15T14:31:13Z</time>
      </trkpt>
      <trkpt lat="43.93713" lon="5.12624">
        <ele>304.4</ele>
        <time>2015-11-15T14:31:16Z</time>
      </trkpt>
      <trkpt lat="43.93704" lon="5.12624">
        <ele>304.3</ele>
        <time>2015-11-15T14:31:19Z</time>
      </trkpt>
      <trkpt lat="43.93692" lon="5.12622">
        <ele>304.3</ele>
        <time>2015-11-15T14:31:22Z</time>
      </trkpt>
      <trkpt lat="43.93679" lon="5.12618">
        <ele>304.3</ele>
        <time>2015-11-15T14:31:25Z</time>
      </trkpt>
      <trkpt lat="43.9367" lon="5.12614">
        <ele>304.3</ele>
        <time>2015-11-15T14:31:27Z</time>
      </trkpt>
      <trkpt lat="43.93661" lon="5.12611">
        <ele>304.3</ele>
        <time>2015-11-15T14:31:29Z</time>
      </trkpt>
      <trkpt lat="43.93651" lon="5.12606">
        <ele>304.4</ele>
        <time>2015-11-15T14:31:31Z</time>
      </trkpt>
      <trkpt lat="43.93643" lon="5.12599">
        <ele>304.5</ele>
        <time>2015-11-15T14:31:33Z</time>
      </trkpt>
      <trkpt lat="43.93632" lon="5.12589">
        <ele>304.7</ele>
        <time>2015-11-15T14:31:36Z</time>
      </trkpt>
      <trkpt lat="43.93625" lon="5.12581">
        <ele>304.8</ele>
        <time>2015-11-15T14:31:38Z</time>
      </trkpt>
      <trkpt lat="43.93618" lon="5.12572">
        <ele>305</ele>
        <time>2015-11-15T14:31:40Z</time>
      </trkpt>
      <trkpt lat="43.93611" lon="5.12563">
        <ele>305.1</ele>
        <time>2015-11-15T14:31:42Z</time>
      </trkpt>
      <trkpt lat="43.93604" lon="5.12554">
        <ele>305.2</ele>
        <time>2015-11-15T14:31:44Z</time>
      </trkpt>
      <trkpt lat="43.93597" lon="5.12545">
        <ele>305.3</ele>
        <time>2015-11-15T14:31:46Z</time>
      </trkpt>
      <trkpt lat="43.93587" lon="5.12532">
        <ele>305.5</ele>
        <time>2015-11-15T14:31:49Z</time>
      </trkpt>
      <trkpt lat="43.93582" lon="5.12521">
        <ele>305.6</ele>
        <time>2015-11-15T14:31:51Z</time>
      </trkpt>
      <trkpt lat="43.93579" lon="5.12507">
        <ele>305.7</ele>
        <time>2015-11-15T14:31:53Z</time>
      </trkpt>
      <trkpt lat="43.93576" lon="5.1249">
        <ele>306</ele>
        <time>2015-11-15T14:31:55Z</time>
      </trkpt>
      <trkpt lat="43.93575" lon="5.12473">
        <ele>306.3</ele>
        <time>2015-11-15T14:31:57Z</time>
      </trkpt>
      <trkpt lat="43.93571" lon="5.12454">
        <ele>306.7</ele>
        <time>2015-11-15T14:31:59Z</time>
      </trkpt>
      <trkpt lat="43.93568" lon="5.12436">
        <ele>307.2</ele>
        <time>2015-11-15T14:32:01Z</time>
      </trkpt>
      <trkpt lat="43.93564" lon="5.12421">
        <ele>307.8</ele>
        <time>2015-11-15T14:32:03Z</time>
      </trkpt>
      <trkpt lat="43.93559" lon="5.1241">
        <ele>308.4</ele>
        <time>2015-11-15T14:32:05Z</time>
      </trkpt>
      <trkpt lat="43.9355" lon="5.12401">
        <ele>309</ele>
        <time>2015-11-15T14:32:07Z</time>
      </trkpt>
      <trkpt lat="43.93544" lon="5.12386">
        <ele>310</ele>
        <time>2015-11-15T14:32:10Z</time>
      </trkpt>
      <trkpt lat="43.93539" lon="5.12371">
        <ele>311.2</ele>
        <time>2015-11-15T14:32:14Z</time>
      </trkpt>
      <trkpt lat="43.93535" lon="5.12358">
        <ele>312.4</ele>
        <time>2015-11-15T14:32:18Z</time>
      </trkpt>
      <trkpt lat="43.93532" lon="5.12345">
        <ele>314</ele>
        <time>2015-11-15T14:32:25Z</time>
      </trkpt>
      <trkpt lat="43.93529" lon="5.12332">
        <ele>314.9</ele>
        <time>2015-11-15T14:32:31Z</time>
      </trkpt>
      <trkpt lat="43.93521" lon="5.12324">
        <ele>315.8</ele>
        <time>2015-11-15T14:32:39Z</time>
      </trkpt>
      <trkpt lat="43.93512" lon="5.12323">
        <ele>317.1</ele>
        <time>2015-11-15T14:33:03Z</time>
      </trkpt>
      <trkpt lat="43.93508" lon="5.12312">
        <ele>317.3</ele>
        <time>2015-11-15T14:33:49Z</time>
      </trkpt>
      <trkpt lat="43.93506" lon="5.12298">
        <ele>317.2</ele>
        <time>2015-11-15T14:33:55Z</time>
      </trkpt>
      <trkpt lat="43.93505" lon="5.12284">
        <ele>317</ele>
        <time>2015-11-15T14:34:01Z</time>
      </trkpt>
      <trkpt lat="43.93505" lon="5.1227">
        <ele>316.5</ele>
        <time>2015-11-15T14:34:07Z</time>
      </trkpt>
      <trkpt lat="43.93505" lon="5.12255">
        <ele>315.7</ele>
        <time>2015-11-15T14:34:14Z</time>
      </trkpt>
      <trkpt lat="43.93498" lon="5.12247">
        <ele>314.9</ele>
        <time>2015-11-15T14:34:20Z</time>
      </trkpt>
      <trkpt lat="43.93491" lon="5.12238">
        <ele>314.2</ele>
        <time>2015-11-15T14:34:27Z</time>
      </trkpt>
      <trkpt lat="43.93487" lon="5.12226">
        <ele>313.7</ele>
        <time>2015-11-15T14:34:32Z</time>
      </trkpt>
      <trkpt lat="43.9348" lon="5.12211">
        <ele>313</ele>
        <time>2015-11-15T14:34:38Z</time>
      </trkpt>
      <trkpt lat="43.93473" lon="5.12204">
        <ele>312.4</ele>
        <time>2015-11-15T14:34:43Z</time>
      </trkpt>
      <trkpt lat="43.93462" lon="5.12204">
        <ele>311.6</ele>
        <time>2015-11-15T14:34:49Z</time>
      </trkpt>
      <trkpt lat="43.93451" lon="5.12201">
        <ele>310.8</ele>
        <time>2015-11-15T14:34:55Z</time>
      </trkpt>
      <trkpt lat="43.93441" lon="5.122">
        <ele>309.9</ele>
        <time>2015-11-15T14:35:01Z</time>
      </trkpt>
      <trkpt lat="43.93434" lon="5.1221">
        <ele>308.7</ele>
        <time>2015-11-15T14:35:10Z</time>
      </trkpt>
      <trkpt lat="43.93431" lon="5.12222">
        <ele>308.2</ele>
        <time>2015-11-15T14:35:18Z</time>
      </trkpt>
      <trkpt lat="43.93426" lon="5.12234">
        <ele>308.2</ele>
        <time>2015-11-15T14:35:25Z</time>
      </trkpt>
      <trkpt lat="43.93422" lon="5.12245">
        <ele>308.5</ele>
        <time>2015-11-15T14:35:30Z</time>
      </trkpt>
      <trkpt lat="43.93417" lon="5.12258">
        <ele>308.8</ele>
        <time>2015-11-15T14:35:35Z</time>
      </trkpt>
      <trkpt lat="43.93411" lon="5.12268">
        <ele>309.4</ele>
        <time>2015-11-15T14:35:40Z</time>
      </trkpt>
      <trkpt lat="43.93405" lon="5.12278">
        <ele>310</ele>
        <time>2015-11-15T14:35:47Z</time>
      </trkpt>
      <trkpt lat="43.93395" lon="5.1228">
        <ele>310.5</ele>
        <time>2015-11-15T14:35:55Z</time>
      </trkpt>
      <trkpt lat="43.93386" lon="5.12277">
        <ele>310.9</ele>
        <time>2015-11-15T14:36:03Z</time>
      </trkpt>
      <trkpt lat="43.93377" lon="5.12274">
        <ele>311.1</ele>
        <time>2015-11-15T14:36:08Z</time>
      </trkpt>
      <trkpt lat="43.93366" lon="5.12271">
        <ele>311.2</ele>
        <time>2015-11-15T14:36:14Z</time>
      </trkpt>
      <trkpt lat="43.93357" lon="5.12268">
        <ele>310.9</ele>
        <time>2015-11-15T14:36:21Z</time>
      </trkpt>
      <trkpt lat="43.93348" lon="5.12266">
        <ele>310.4</ele>
        <time>2015-11-15T14:36:27Z</time>
      </trkpt>
      <trkpt lat="43.93338" lon="5.12263">
        <ele>310</ele>
        <time>2015-11-15T14:36:33Z</time>
      </trkpt>
      <trkpt lat="43.93328" lon="5.12265">
        <ele>309.4</ele>
        <time>2015-11-15T14:36:40Z</time>
      </trkpt>
      <trkpt lat="43.93318" lon="5.12268">
        <ele>308.8</ele>
        <time>2015-11-15T14:36:46Z</time>
      </trkpt>
      <trkpt lat="43.93307" lon="5.1227">
        <ele>308.2</ele>
        <time>2015-11-15T14:36:52Z</time>
      </trkpt>
      <trkpt lat="43.93298" lon="5.12267">
        <ele>307.5</ele>
        <time>2015-11-15T14:36:58Z</time>
      </trkpt>
      <trkpt lat="43.93289" lon="5.12263">
        <ele>306.7</ele>
        <time>2015-11-15T14:37:05Z</time>
      </trkpt>
      <trkpt lat="43.9328" lon="5.12262">
        <ele>305.8</ele>
        <time>2015-11-15T14:37:11Z</time>
      </trkpt>
      <trkpt lat="43.93269" lon="5.12264">
        <ele>304.8</ele>
        <time>2015-11-15T14:37:19Z</time>
      </trkpt>
      <trkpt lat="43.9326" lon="5.12265">
        <ele>304</ele>
        <time>2015-11-15T14:37:25Z</time>
      </trkpt>
      <trkpt lat="43.93251" lon="5.12266">
        <ele>302.6</ele>
        <time>2015-11-15T14:37:36Z</time>
      </trkpt>
      <trkpt lat="43.93242" lon="5.12266">
        <ele>301</ele>
        <time>2015-11-15T14:37:51Z</time>
      </trkpt>
      <trkpt lat="43.93231" lon="5.12271">
        <ele>298</ele>
        <time>2015-11-15T14:45:10Z</time>
      </trkpt>
      <trkpt lat="43.93222" lon="5.12269">
        <ele>299.7</ele>
        <time>2015-11-15T14:47:36Z</time>
      </trkpt>
      <trkpt lat="43.93212" lon="5.12268">
        <ele>299.3</ele>
        <time>2015-11-15T14:47:51Z</time>
      </trkpt>
      <trkpt lat="43.93203" lon="5.12265">
        <ele>299</ele>
        <time>2015-11-15T14:47:58Z</time>
      </trkpt>
      <trkpt lat="43.93194" lon="5.12262">
        <ele>298.4</ele>
        <time>2015-11-15T14:48:05Z</time>
      </trkpt>
      <trkpt lat="43.93184" lon="5.12261">
        <ele>297.8</ele>
        <time>2015-11-15T14:48:10Z</time>
      </trkpt>
      <trkpt lat="43.93175" lon="5.12261">
        <ele>297</ele>
        <time>2015-11-15T14:48:17Z</time>
      </trkpt>
      <trkpt lat="43.93165" lon="5.12264">
        <ele>296.1</ele>
        <time>2015-11-15T14:48:24Z</time>
      </trkpt>
      <trkpt lat="43.93156" lon="5.12267">
        <ele>295.1</ele>
        <time>2015-11-15T14:48:31Z</time>
      </trkpt>
      <trkpt lat="43.93147" lon="5.12267">
        <ele>294.1</ele>
        <time>2015-11-15T14:48:38Z</time>
      </trkpt>
      <trkpt lat="43.93138" lon="5.12264">
        <ele>293.3</ele>
        <time>2015-11-15T14:48:44Z</time>
      </trkpt>
      <trkpt lat="43.93128" lon="5.12264">
        <ele>292.3</ele>
        <time>2015-11-15T14:48:53Z</time>
      </trkpt>
      <trkpt lat="43.93118" lon="5.12266">
        <ele>291.3</ele>
        <time>2015-11-15T14:49:01Z</time>
      </trkpt>
      <trkpt lat="43.93107" lon="5.12265">
        <ele>290.3</ele>
        <time>2015-11-15T14:49:09Z</time>
      </trkpt>
      <trkpt lat="43.93098" lon="5.12265">
        <ele>289.2</ele>
        <time>2015-11-15T14:49:19Z</time>
      </trkpt>
      <trkpt lat="43.9309" lon="5.12256">
        <ele>288.3</ele>
        <time>2015-11-15T14:49:28Z</time>
      </trkpt>
      <trkpt lat="43.93081" lon="5.1225">
        <ele>287.1</ele>
        <time>2015-11-15T14:49:37Z</time>
      </trkpt>
      <trkpt lat="43.93071" lon="5.12253">
        <ele>286.5</ele>
        <time>2015-11-15T14:49:43Z</time>
      </trkpt>
      <trkpt lat="43.93061" lon="5.12249">
        <ele>285.7</ele>
        <time>2015-11-15T14:49:50Z</time>
      </trkpt>
      <trkpt lat="43.93052" lon="5.12249">
        <ele>284.9</ele>
        <time>2015-11-15T14:49:56Z</time>
      </trkpt>
      <trkpt lat="43.93043" lon="5.12247">
        <ele>283.9</ele>
        <time>2015-11-15T14:50:04Z</time>
      </trkpt>
      <trkpt lat="43.93034" lon="5.1224">
        <ele>282.7</ele>
        <time>2015-11-15T14:50:12Z</time>
      </trkpt>
      <trkpt lat="43.93026" lon="5.12233">
        <ele>281.8</ele>
        <time>2015-11-15T14:50:18Z</time>
      </trkpt>
      <trkpt lat="43.93017" lon="5.1223">
        <ele>280.7</ele>
        <time>2015-11-15T14:50:25Z</time>
      </trkpt>
      <trkpt lat="43.93008" lon="5.12228">
        <ele>279.2</ele>
        <time>2015-11-15T14:50:35Z</time>
      </trkpt>
      <trkpt lat="43.92997" lon="5.12219">
        <ele>277.7</ele>
        <time>2015-11-15T14:50:44Z</time>
      </trkpt>
      <trkpt lat="43.92989" lon="5.12213">
        <ele>276.4</ele>
        <time>2015-11-15T14:50:52Z</time>
      </trkpt>
      <trkpt lat="43.9298" lon="5.12207">
        <ele>274.7</ele>
        <time>2015-11-15T14:51:03Z</time>
      </trkpt>
      <trkpt lat="43.92971" lon="5.122">
        <ele>273.8</ele>
        <time>2015-11-15T14:51:11Z</time>
      </trkpt>
      <trkpt lat="43.92961" lon="5.12197">
        <ele>272.6</ele>
        <time>2015-11-15T14:51:21Z</time>
      </trkpt>
      <trkpt lat="43.92952" lon="5.12193">
        <ele>271.8</ele>
        <time>2015-11-15T14:51:28Z</time>
      </trkpt>
      <trkpt lat="43.92944" lon="5.12186">
        <ele>271.3</ele>
        <time>2015-11-15T14:51:33Z</time>
      </trkpt>
      <trkpt lat="43.92936" lon="5.1218">
        <ele>270.4</ele>
        <time>2015-11-15T14:51:40Z</time>
      </trkpt>
      <trkpt lat="43.92927" lon="5.12182">
        <ele>268.9</ele>
        <time>2015-11-15T14:51:50Z</time>
      </trkpt>
      <trkpt lat="43.92918" lon="5.12175">
        <ele>268.1</ele>
        <time>2015-11-15T14:51:55Z</time>
      </trkpt>
      <trkpt lat="43.92908" lon="5.12173">
        <ele>267</ele>
        <time>2015-11-15T14:52:02Z</time>
      </trkpt>
      <trkpt lat="43.92898" lon="5.12172">
        <ele>265.9</ele>
        <time>2015-11-15T14:52:09Z</time>
      </trkpt>
      <trkpt lat="43.92889" lon="5.12172">
        <ele>264.7</ele>
        <time>2015-11-15T14:52:16Z</time>
      </trkpt>
      <trkpt lat="43.92879" lon="5.12171">
        <ele>263.6</ele>
        <time>2015-11-15T14:52:23Z</time>
      </trkpt>
      <trkpt lat="43.9287" lon="5.12166">
        <ele>262.1</ele>
        <time>2015-11-15T14:52:34Z</time>
      </trkpt>
      <trkpt lat="43.92862" lon="5.1216">
        <ele>260.9</ele>
        <time>2015-11-15T14:52:43Z</time>
      </trkpt>
      <trkpt lat="43.92851" lon="5.12155">
        <ele>260.1</ele>
        <time>2015-11-15T14:52:48Z</time>
      </trkpt>
      <trkpt lat="43.92842" lon="5.12149">
        <ele>258.5</ele>
        <time>2015-11-15T14:52:57Z</time>
      </trkpt>
      <trkpt lat="43.92833" lon="5.12147">
        <ele>257.6</ele>
        <time>2015-11-15T14:53:03Z</time>
      </trkpt>
      <trkpt lat="43.92823" lon="5.12145">
        <ele>256.5</ele>
        <time>2015-11-15T14:53:10Z</time>
      </trkpt>
      <trkpt lat="43.92813" lon="5.12147">
        <ele>255.4</ele>
        <time>2015-11-15T14:53:17Z</time>
      </trkpt>
      <trkpt lat="43.92804" lon="5.12142">
        <ele>254.9</ele>
        <time>2015-11-15T14:53:20Z</time>
      </trkpt>
      <trkpt lat="43.92799" lon="5.12131">
        <ele>253</ele>
        <time>2015-11-15T14:53:32Z</time>
      </trkpt>
      <trkpt lat="43.92789" lon="5.1213">
        <ele>251.2</ele>
        <time>2015-11-15T14:53:43Z</time>
      </trkpt>
      <trkpt lat="43.92781" lon="5.12127">
        <ele>250.2</ele>
        <time>2015-11-15T14:53:49Z</time>
      </trkpt>
      <trkpt lat="43.92774" lon="5.12118">
        <ele>248.9</ele>
        <time>2015-11-15T14:53:58Z</time>
      </trkpt>
      <trkpt lat="43.92765" lon="5.12121">
        <ele>247.9</ele>
        <time>2015-11-15T14:54:04Z</time>
      </trkpt>
      <trkpt lat="43.92755" lon="5.12124">
        <ele>247.2</ele>
        <time>2015-11-15T14:54:09Z</time>
      </trkpt>
      <trkpt lat="43.92747" lon="5.12118">
        <ele>245.7</ele>
        <time>2015-11-15T14:54:18Z</time>
      </trkpt>
      <trkpt lat="43.92743" lon="5.12107">
        <ele>244.7</ele>
        <time>2015-11-15T14:54:24Z</time>
      </trkpt>
      <trkpt lat="43.92734" lon="5.12102">
        <ele>243.4</ele>
        <time>2015-11-15T14:54:31Z</time>
      </trkpt>
      <trkpt lat="43.92724" lon="5.12103">
        <ele>242.4</ele>
        <time>2015-11-15T14:54:38Z</time>
      </trkpt>
      <trkpt lat="43.92716" lon="5.12108">
        <ele>241.2</ele>
        <time>2015-11-15T14:54:48Z</time>
      </trkpt>
      <trkpt lat="43.92706" lon="5.12107">
        <ele>238.9</ele>
        <time>2015-11-15T14:56:57Z</time>
      </trkpt>
      <trkpt lat="43.92699" lon="5.12097">
        <ele>238.5</ele>
        <time>2015-11-15T14:57:05Z</time>
      </trkpt>
      <trkpt lat="43.92691" lon="5.12089">
        <ele>238</ele>
        <time>2015-11-15T14:57:15Z</time>
      </trkpt>
      <trkpt lat="43.92684" lon="5.1208">
        <ele>237.4</ele>
        <time>2015-11-15T14:57:21Z</time>
      </trkpt>
      <trkpt lat="43.92676" lon="5.12073">
        <ele>236.5</ele>
        <time>2015-11-15T14:57:29Z</time>
      </trkpt>
      <trkpt lat="43.9267" lon="5.12064">
        <ele>235.6</ele>
        <time>2015-11-15T14:57:37Z</time>
      </trkpt>
      <trkpt lat="43.92664" lon="5.12054">
        <ele>234.8</ele>
        <time>2015-11-15T14:57:45Z</time>
      </trkpt>
      <trkpt lat="43.92657" lon="5.12045">
        <ele>233.9</ele>
        <time>2015-11-15T14:57:55Z</time>
      </trkpt>
      <trkpt lat="43.9265" lon="5.12036">
        <ele>233.1</ele>
        <time>2015-11-15T14:58:03Z</time>
      </trkpt>
      <trkpt lat="43.92642" lon="5.12029">
        <ele>232</ele>
        <time>2015-11-15T14:58:12Z</time>
      </trkpt>
      <trkpt lat="43.92635" lon="5.12019">
        <ele>230.9</ele>
        <time>2015-11-15T14:58:20Z</time>
      </trkpt>
      <trkpt lat="43.92627" lon="5.12011">
        <ele>229.9</ele>
        <time>2015-11-15T14:58:27Z</time>
      </trkpt>
      <trkpt lat="43.9262" lon="5.12003">
        <ele>228.7</ele>
        <time>2015-11-15T14:58:36Z</time>
      </trkpt>
      <trkpt lat="43.92613" lon="5.11994">
        <ele>227.9</ele>
        <time>2015-11-15T14:58:43Z</time>
      </trkpt>
      <trkpt lat="43.92605" lon="5.11986">
        <ele>227</ele>
        <time>2015-11-15T14:58:50Z</time>
      </trkpt>
      <trkpt lat="43.926" lon="5.11974">
        <ele>225.9</ele>
        <time>2015-11-15T14:58:57Z</time>
      </trkpt>
      <trkpt lat="43.92594" lon="5.11962">
        <ele>224.8</ele>
        <time>2015-11-15T14:59:04Z</time>
      </trkpt>
      <trkpt lat="43.92589" lon="5.11951">
        <ele>223.6</ele>
        <time>2015-11-15T14:59:12Z</time>
      </trkpt>
      <trkpt lat="43.92583" lon="5.11941">
        <ele>222.6</ele>
        <time>2015-11-15T14:59:20Z</time>
      </trkpt>
      <trkpt lat="43.92577" lon="5.11929">
        <ele>221.5</ele>
        <time>2015-11-15T14:59:28Z</time>
      </trkpt>
      <trkpt lat="43.92573" lon="5.11918">
        <ele>219.9</ele>
        <time>2015-11-15T14:59:39Z</time>
      </trkpt>
      <trkpt lat="43.92567" lon="5.11907">
        <ele>218.5</ele>
        <time>2015-11-15T14:59:49Z</time>
      </trkpt>
      <trkpt lat="43.9256" lon="5.119">
        <ele>217.3</ele>
        <time>2015-11-15T14:59:57Z</time>
      </trkpt>
      <trkpt lat="43.92553" lon="5.11891">
        <ele>216.2</ele>
        <time>2015-11-15T15:00:05Z</time>
      </trkpt>
      <trkpt lat="43.92547" lon="5.1188">
        <ele>215</ele>
        <time>2015-11-15T15:00:14Z</time>
      </trkpt>
      <trkpt lat="43.92541" lon="5.11871">
        <ele>213.5</ele>
        <time>2015-11-15T15:00:23Z</time>
      </trkpt>
      <trkpt lat="43.92533" lon="5.11861">
        <ele>211.6</ele>
        <time>2015-11-15T15:00:34Z</time>
      </trkpt>
      <trkpt lat="43.92531" lon="5.11848">
        <ele>209.9</ele>
        <time>2015-11-15T15:00:44Z</time>
      </trkpt>
      <trkpt lat="43.92529" lon="5.11835">
        <ele>208.9</ele>
        <time>2015-11-15T15:00:51Z</time>
      </trkpt>
      <trkpt lat="43.92519" lon="5.11835">
        <ele>208.1</ele>
        <time>2015-11-15T15:00:57Z</time>
      </trkpt>
      <trkpt lat="43.9251" lon="5.11836">
        <ele>207.3</ele>
        <time>2015-11-15T15:01:04Z</time>
      </trkpt>
      <trkpt lat="43.925" lon="5.11837">
        <ele>206.7</ele>
        <time>2015-11-15T15:01:11Z</time>
      </trkpt>
      <trkpt lat="43.9249" lon="5.11839">
        <ele>206.2</ele>
        <time>2015-11-15T15:01:19Z</time>
      </trkpt>
      <trkpt lat="43.9248" lon="5.11839">
        <ele>205.8</ele>
        <time>2015-11-15T15:01:27Z</time>
      </trkpt>
      <trkpt lat="43.9247" lon="5.11836">
        <ele>205.6</ele>
        <time>2015-11-15T15:01:35Z</time>
      </trkpt>
      <trkpt lat="43.92461" lon="5.11831">
        <ele>205.3</ele>
        <time>2015-11-15T15:01:43Z</time>
      </trkpt>
      <trkpt lat="43.92453" lon="5.11825">
        <ele>204.8</ele>
        <time>2015-11-15T15:01:53Z</time>
      </trkpt>
      <trkpt lat="43.92444" lon="5.1182">
        <ele>204.3</ele>
        <time>2015-11-15T15:02:01Z</time>
      </trkpt>
      <trkpt lat="43.92435" lon="5.11821">
        <ele>203.8</ele>
        <time>2015-11-15T15:02:07Z</time>
      </trkpt>
      <trkpt lat="43.92425" lon="5.11822">
        <ele>203.2</ele>
        <time>2015-11-15T15:02:14Z</time>
      </trkpt>
      <trkpt lat="43.92416" lon="5.11823">
        <ele>202.3</ele>
        <time>2015-11-15T15:02:22Z</time>
      </trkpt>
      <trkpt lat="43.92407" lon="5.11824">
        <ele>201</ele>
        <time>2015-11-15T15:02:33Z</time>
      </trkpt>
      <trkpt lat="43.92397" lon="5.11823">
        <ele>200.3</ele>
        <time>2015-11-15T15:02:40Z</time>
      </trkpt>
      <trkpt lat="43.92389" lon="5.11819">
        <ele>199.6</ele>
        <time>2015-11-15T15:02:48Z</time>
      </trkpt>
      <trkpt lat="43.9238" lon="5.11815">
        <ele>199.1</ele>
        <time>2015-11-15T15:02:57Z</time>
      </trkpt>
      <trkpt lat="43.9237" lon="5.11818">
        <ele>198.7</ele>
        <time>2015-11-15T15:03:06Z</time>
      </trkpt>
      <trkpt lat="43.92361" lon="5.11817">
        <ele>198.4</ele>
        <time>2015-11-15T15:03:13Z</time>
      </trkpt>
      <trkpt lat="43.92353" lon="5.11809">
        <ele>197.5</ele>
        <time>2015-11-15T15:03:26Z</time>
      </trkpt>
      <trkpt lat="43.92345" lon="5.11802">
        <ele>197</ele>
        <time>2015-11-15T15:03:32Z</time>
      </trkpt>
      <trkpt lat="43.92335" lon="5.11798">
        <ele>196.3</ele>
        <time>2015-11-15T15:03:41Z</time>
      </trkpt>
      <trkpt lat="43.92326" lon="5.11793">
        <ele>195.5</ele>
        <time>2015-11-15T15:03:50Z</time>
      </trkpt>
      <trkpt lat="43.92317" lon="5.11788">
        <ele>194.6</ele>
        <time>2015-11-15T15:03:59Z</time>
      </trkpt>
      <trkpt lat="43.92308" lon="5.11785">
        <ele>194</ele>
        <time>2015-11-15T15:04:05Z</time>
      </trkpt>
      <trkpt lat="43.923" lon="5.11778">
        <ele>192.5</ele>
        <time>2015-11-15T15:04:18Z</time>
      </trkpt>
      <trkpt lat="43.92291" lon="5.11774">
        <ele>191.6</ele>
        <time>2015-11-15T15:04:29Z</time>
      </trkpt>
      <trkpt lat="43.92281" lon="5.11773">
        <ele>191.1</ele>
        <time>2015-11-15T15:04:35Z</time>
      </trkpt>
      <trkpt lat="43.92271" lon="5.1177">
        <ele>190.5</ele>
        <time>2015-11-15T15:04:42Z</time>
      </trkpt>
      <trkpt lat="43.92264" lon="5.11762">
        <ele>189.4</ele>
        <time>2015-11-15T15:04:52Z</time>
      </trkpt>
      <trkpt lat="43.92256" lon="5.11754">
        <ele>188.4</ele>
        <time>2015-11-15T15:05:01Z</time>
      </trkpt>
      <trkpt lat="43.92248" lon="5.11746">
        <ele>187.4</ele>
        <time>2015-11-15T15:05:09Z</time>
      </trkpt>
      <trkpt lat="43.92239" lon="5.11741">
        <ele>186.3</ele>
        <time>2015-11-15T15:05:16Z</time>
      </trkpt>
      <trkpt lat="43.92231" lon="5.11736">
        <ele>185.2</ele>
        <time>2015-11-15T15:05:23Z</time>
      </trkpt>
      <trkpt lat="43.92221" lon="5.11731">
        <ele>183.8</ele>
        <time>2015-11-15T15:05:30Z</time>
      </trkpt>
      <trkpt lat="43.92212" lon="5.11729">
        <ele>182.9</ele>
        <time>2015-11-15T15:05:36Z</time>
      </trkpt>
      <trkpt lat="43.92203" lon="5.11729">
        <ele>182.3</ele>
        <time>2015-11-15T15:05:42Z</time>
      </trkpt>
      <trkpt lat="43.92193" lon="5.11727">
        <ele>181.4</ele>
        <time>2015-11-15T15:05:50Z</time>
      </trkpt>
      <trkpt lat="43.92185" lon="5.11722">
        <ele>180.5</ele>
        <time>2015-11-15T15:05:59Z</time>
      </trkpt>
      <trkpt lat="43.92175" lon="5.11719">
        <ele>179.7</ele>
        <time>2015-11-15T15:06:08Z</time>
      </trkpt>
      <trkpt lat="43.92166" lon="5.11713">
        <ele>179.1</ele>
        <time>2015-11-15T15:06:16Z</time>
      </trkpt>
      <trkpt lat="43.92156" lon="5.11711">
        <ele>178.5</ele>
        <time>2015-11-15T15:06:24Z</time>
      </trkpt>
      <trkpt lat="43.92147" lon="5.11716">
        <ele>177.8</ele>
        <time>2015-11-15T15:06:31Z</time>
      </trkpt>
      <trkpt lat="43.92142" lon="5.11729">
        <ele>177.1</ele>
        <time>2015-11-15T15:06:37Z</time>
      </trkpt>
      <trkpt lat="43.9214" lon="5.11743">
        <ele>176.2</ele>
        <time>2015-11-15T15:06:48Z</time>
      </trkpt>
      <trkpt lat="43.92145" lon="5.11754">
        <ele>175.4</ele>
        <time>2015-11-15T15:07:01Z</time>
      </trkpt>
      <trkpt lat="43.92148" lon="5.11765">
        <ele>174.3</ele>
        <time>2015-11-15T15:07:21Z</time>
      </trkpt>
      <trkpt lat="43.92149" lon="5.11778">
        <ele>173.7</ele>
        <time>2015-11-15T15:07:28Z</time>
      </trkpt>
      <trkpt lat="43.92153" lon="5.11789">
        <ele>172</ele>
        <time>2015-11-15T15:07:41Z</time>
      </trkpt>
      <trkpt lat="43.92157" lon="5.11801">
        <ele>170.6</ele>
        <time>2015-11-15T15:07:51Z</time>
      </trkpt>
      <trkpt lat="43.92164" lon="5.1181">
        <ele>169.2</ele>
        <time>2015-11-15T15:08:00Z</time>
      </trkpt>
      <trkpt lat="43.92171" lon="5.11819">
        <ele>167.6</ele>
        <time>2015-11-15T15:08:08Z</time>
      </trkpt>
      <trkpt lat="43.92178" lon="5.1183">
        <ele>165.3</ele>
        <time>2015-11-15T15:08:23Z</time>
      </trkpt>
      <trkpt lat="43.92182" lon="5.11843">
        <ele>163.8</ele>
        <time>2015-11-15T15:08:33Z</time>
      </trkpt>
      <trkpt lat="43.92185" lon="5.11856">
        <ele>162.6</ele>
        <time>2015-11-15T15:08:42Z</time>
      </trkpt>
      <trkpt lat="43.92186" lon="5.1187">
        <ele>161.4</ele>
        <time>2015-11-15T15:08:51Z</time>
      </trkpt>
      <trkpt lat="43.92188" lon="5.11883">
        <ele>160.1</ele>
        <time>2015-11-15T15:09:00Z</time>
      </trkpt>
      <trkpt lat="43.92186" lon="5.11897">
        <ele>159.1</ele>
        <time>2015-11-15T15:09:07Z</time>
      </trkpt>
      <trkpt lat="43.92187" lon="5.11911">
        <ele>158.2</ele>
        <time>2015-11-15T15:09:15Z</time>
      </trkpt>
      <trkpt lat="43.9219" lon="5.11924">
        <ele>156.8</ele>
        <time>2015-11-15T15:09:28Z</time>
      </trkpt>
      <trkpt lat="43.9219" lon="5.11936">
        <ele>155.4</ele>
        <time>2015-11-15T15:09:39Z</time>
      </trkpt>
      <trkpt lat="43.92182" lon="5.11944">
        <ele>154.2</ele>
        <time>2015-11-15T15:09:47Z</time>
      </trkpt>
      <trkpt lat="43.92175" lon="5.11951">
        <ele>152.8</ele>
        <time>2015-11-15T15:09:56Z</time>
      </trkpt>
      <trkpt lat="43.92172" lon="5.11963">
        <ele>150.8</ele>
        <time>2015-11-15T15:10:11Z</time>
      </trkpt>
      <trkpt lat="43.92169" lon="5.11975">
        <ele>150.2</ele>
        <time>2015-11-15T15:10:19Z</time>
      </trkpt>
      <trkpt lat="43.92162" lon="5.11985">
        <ele>149.1</ele>
        <time>2015-11-15T15:10:29Z</time>
      </trkpt>
      <trkpt lat="43.92155" lon="5.11993">
        <ele>148.1</ele>
        <time>2015-11-15T15:10:37Z</time>
      </trkpt>
      <trkpt lat="43.92149" lon="5.12005">
        <ele>146.8</ele>
        <time>2015-11-15T15:10:45Z</time>
      </trkpt>
      <trkpt lat="43.92143" lon="5.12014">
        <ele>145.9</ele>
        <time>2015-11-15T15:10:51Z</time>
      </trkpt>
      <trkpt lat="43.92141" lon="5.12027">
        <ele>145.3</ele>
        <time>2015-11-15T15:10:56Z</time>
      </trkpt>
      <trkpt lat="43.92142" lon="5.12041">
        <ele>144.5</ele>
        <time>2015-11-15T15:11:02Z</time>
      </trkpt>
      <trkpt lat="43.92143" lon="5.12054">
        <ele>143.8</ele>
        <time>2015-11-15T15:11:08Z</time>
      </trkpt>
      <trkpt lat="43.92145" lon="5.12067">
        <ele>143.3</ele>
        <time>2015-11-15T15:11:15Z</time>
      </trkpt>
      <trkpt lat="43.92149" lon="5.12078">
        <ele>142.8</ele>
        <time>2015-11-15T15:11:22Z</time>
      </trkpt>
      <trkpt lat="43.92152" lon="5.12091">
        <ele>142.3</ele>
        <time>2015-11-15T15:11:30Z</time>
      </trkpt>
      <trkpt lat="43.92154" lon="5.12106">
        <ele>141.9</ele>
        <time>2015-11-15T15:11:37Z</time>
      </trkpt>
      <trkpt lat="43.92156" lon="5.12118">
        <ele>141.5</ele>
        <time>2015-11-15T15:11:44Z</time>
      </trkpt>
      <trkpt lat="43.92157" lon="5.12132">
        <ele>140.6</ele>
        <time>2015-11-15T15:11:53Z</time>
      </trkpt>
      <trkpt lat="43.92157" lon="5.12145">
        <ele>139.2</ele>
        <time>2015-11-15T15:12:08Z</time>
      </trkpt>
      <trkpt lat="43.92152" lon="5.12156">
        <ele>138.2</ele>
        <time>2015-11-15T15:12:32Z</time>
      </trkpt>
      <trkpt lat="43.92155" lon="5.12169">
        <ele>137.8</ele>
        <time>2015-11-15T15:12:40Z</time>
      </trkpt>
      <trkpt lat="43.92162" lon="5.12178">
        <ele>137</ele>
        <time>2015-11-15T15:12:49Z</time>
      </trkpt>
      <trkpt lat="43.92171" lon="5.12184">
        <ele>136.2</ele>
        <time>2015-11-15T15:12:56Z</time>
      </trkpt>
      <trkpt lat="43.92176" lon="5.12196">
        <ele>135.2</ele>
        <time>2015-11-15T15:13:04Z</time>
      </trkpt>
      <trkpt lat="43.92181" lon="5.12207">
        <ele>134.2</ele>
        <time>2015-11-15T15:13:12Z</time>
      </trkpt>
      <trkpt lat="43.92186" lon="5.12218">
        <ele>133.3</ele>
        <time>2015-11-15T15:13:21Z</time>
      </trkpt>
      <trkpt lat="43.92188" lon="5.12232">
        <ele>132.5</ele>
        <time>2015-11-15T15:13:29Z</time>
      </trkpt>
      <trkpt lat="43.92185" lon="5.12246">
        <ele>129.8</ele>
        <time>2015-11-15T15:13:52Z</time>
      </trkpt>
      <trkpt lat="43.92184" lon="5.12259">
        <ele>128.6</ele>
        <time>2015-11-15T15:14:03Z</time>
      </trkpt>
      <trkpt lat="43.92183" lon="5.12272">
        <ele>127.3</ele>
        <time>2015-11-15T15:14:14Z</time>
      </trkpt>
      <trkpt lat="43.92184" lon="5.12285">
        <ele>125.3</ele>
        <time>2015-11-15T15:14:38Z</time>
      </trkpt>
      <trkpt lat="43.92184" lon="5.12297">
        <ele>124.4</ele>
        <time>2015-11-15T15:14:45Z</time>
      </trkpt>
      <trkpt lat="43.92183" lon="5.1231">
        <ele>123.6</ele>
        <time>2015-11-15T15:14:50Z</time>
      </trkpt>
      <trkpt lat="43.92182" lon="5.12323">
        <ele>122.4</ele>
        <time>2015-11-15T15:14:56Z</time>
      </trkpt>
      <trkpt lat="43.92182" lon="5.12336">
        <ele>120.5</ele>
        <time>2015-11-15T15:15:05Z</time>
      </trkpt>
      <trkpt lat="43.92182" lon="5.12349">
        <ele>119</ele>
        <time>2015-11-15T15:15:12Z</time>
      </trkpt>
      <trkpt lat="43.92183" lon="5.12364">
        <ele>117.7</ele>
        <time>2015-11-15T15:15:19Z</time>
      </trkpt>
      <trkpt lat="43.92183" lon="5.12377">
        <ele>116.4</ele>
        <time>2015-11-15T15:15:26Z</time>
      </trkpt>
      <trkpt lat="43.92182" lon="5.12391">
        <ele>114.7</ele>
        <time>2015-11-15T15:15:35Z</time>
      </trkpt>
      <trkpt lat="43.92184" lon="5.12403">
        <ele>113.5</ele>
        <time>2015-11-15T15:15:41Z</time>
      </trkpt>
      <trkpt lat="43.92182" lon="5.12416">
        <ele>112.3</ele>
        <time>2015-11-15T15:15:48Z</time>
      </trkpt>
      <trkpt lat="43.92181" lon="5.12429">
        <ele>111.2</ele>
        <time>2015-11-15T15:15:55Z</time>
      </trkpt>
      <trkpt lat="43.92181" lon="5.12443">
        <ele>110.1</ele>
        <time>2015-11-15T15:16:03Z</time>
      </trkpt>
      <trkpt lat="43.9218" lon="5.12457">
        <ele>109.2</ele>
        <time>2015-11-15T15:16:10Z</time>
      </trkpt>
      <trkpt lat="43.92179" lon="5.1247">
        <ele>108.4</ele>
        <time>2015-11-15T15:16:16Z</time>
      </trkpt>
      <trkpt lat="43.92178" lon="5.12483">
        <ele>107.3</ele>
        <time>2015-11-15T15:16:23Z</time>
      </trkpt>
      <trkpt lat="43.92174" lon="5.12497">
        <ele>106.2</ele>
        <time>2015-11-15T15:16:29Z</time>
      </trkpt>
      <trkpt lat="43.92169" lon="5.12508">
        <ele>105</ele>
        <time>2015-11-15T15:16:35Z</time>
      </trkpt>
      <trkpt lat="43.92166" lon="5.1252">
        <ele>103.8</ele>
        <time>2015-11-15T15:16:41Z</time>
      </trkpt>
      <trkpt lat="43.92163" lon="5.12534">
        <ele>102.5</ele>
        <time>2015-11-15T15:16:47Z</time>
      </trkpt>
      <trkpt lat="43.9216" lon="5.12547">
        <ele>101.6</ele>
        <time>2015-11-15T15:16:52Z</time>
      </trkpt>
      <trkpt lat="43.92156" lon="5.1256">
        <ele>100.4</ele>
        <time>2015-11-15T15:16:59Z</time>
      </trkpt>
      <trkpt lat="43.92153" lon="5.12573">
        <ele>99.5</ele>
        <time>2015-11-15T15:17:05Z</time>
      </trkpt>
      <trkpt lat="43.92149" lon="5.12587">
        <ele>98.7</ele>
        <time>2015-11-15T15:17:10Z</time>
      </trkpt>
      <trkpt lat="43.92139" lon="5.12584">
        <ele>97.1</ele>
        <time>2015-11-15T15:17:19Z</time>
      </trkpt>
      <trkpt lat="43.92133" lon="5.12597">
        <ele>96</ele>
        <time>2015-11-15T15:17:26Z</time>
      </trkpt>
      <trkpt lat="43.92132" lon="5.12611">
        <ele>95.4</ele>
        <time>2015-11-15T15:17:30Z</time>
      </trkpt>
      <trkpt lat="43.92134" lon="5.12625">
        <ele>95</ele>
        <time>2015-11-15T15:17:34Z</time>
      </trkpt>
      <trkpt lat="43.92139" lon="5.12637">
        <ele>94.5</ele>
        <time>2015-11-15T15:17:39Z</time>
      </trkpt>
      <trkpt lat="43.92141" lon="5.12651">
        <ele>94.1</ele>
        <time>2015-11-15T15:17:47Z</time>
      </trkpt>
      <trkpt lat="43.92147" lon="5.1266">
        <ele>93.4</ele>
        <time>2015-11-15T15:17:57Z</time>
      </trkpt>
      <trkpt lat="43.92145" lon="5.12674">
        <ele>92.6</ele>
        <time>2015-11-15T15:18:07Z</time>
      </trkpt>
      <trkpt lat="43.92144" lon="5.12687">
        <ele>91.3</ele>
        <time>2015-11-15T15:18:24Z</time>
      </trkpt>
      <trkpt lat="43.92142" lon="5.127">
        <ele>90.8</ele>
        <time>2015-11-15T15:18:30Z</time>
      </trkpt>
      <trkpt lat="43.9214" lon="5.12712">
        <ele>90.1</ele>
        <time>2015-11-15T15:18:40Z</time>
      </trkpt>
      <trkpt lat="43.92151" lon="5.12727">
        <ele>88</ele>
        <time>2015-11-15T15:19:10Z</time>
      </trkpt>
      <trkpt lat="43.92156" lon="5.12738">
        <ele>88.6</ele>
        <time>2015-11-15T15:19:16Z</time>
      </trkpt>
      <trkpt lat="43.92161" lon="5.12752">
        <ele>88.5</ele>
        <time>2015-11-15T15:19:20Z</time>
      </trkpt>
      <trkpt lat="43.92163" lon="5.12765">
        <ele>88.5</ele>
        <time>2015-11-15T15:19:25Z</time>
      </trkpt>
      <trkpt lat="43.92164" lon="5.12781">
        <ele>88.5</ele>
        <time>2015-11-15T15:19:30Z</time>
      </trkpt>
      <trkpt lat="43.92165" lon="5.12794">
        <ele>88.4</ele>
        <time>2015-11-15T15:19:38Z</time>
      </trkpt>
      <trkpt lat="43.92165" lon="5.12806">
        <ele>88.4</ele>
        <time>2015-11-15T15:19:47Z</time>
      </trkpt>
      <trkpt lat="43.9217" lon="5.12818">
        <ele>88.4</ele>
        <time>2015-11-15T15:19:52Z</time>
      </trkpt>
      <trkpt lat="43.92171" lon="5.12831">
        <ele>88.4</ele>
        <time>2015-11-15T15:19:59Z</time>
      </trkpt>
      <trkpt lat="43.92162" lon="5.12837">
        <ele>88.5</ele>
        <time>2015-11-15T15:20:09Z</time>
      </trkpt>
      <trkpt lat="43.92153" lon="5.12834">
        <ele>88.6</ele>
        <time>2015-11-15T15:20:14Z</time>
      </trkpt>
      <trkpt lat="43.92144" lon="5.12832">
        <ele>88.6</ele>
        <time>2015-11-15T15:20:20Z</time>
      </trkpt>
      <trkpt lat="43.92134" lon="5.12829">
        <ele>88.6</ele>
        <time>2015-11-15T15:20:28Z</time>
      </trkpt>
      <trkpt lat="43.92126" lon="5.12826">
        <ele>88.7</ele>
        <time>2015-11-15T15:20:38Z</time>
      </trkpt>
      <trkpt lat="43.92116" lon="5.12829">
        <ele>88.7</ele>
        <time>2015-11-15T15:20:44Z</time>
      </trkpt>
      <trkpt lat="43.92105" lon="5.1283">
        <ele>88.7</ele>
        <time>2015-11-15T15:20:49Z</time>
      </trkpt>
      <trkpt lat="43.92096" lon="5.12834">
        <ele>88.7</ele>
        <time>2015-11-15T15:20:53Z</time>
      </trkpt>
      <trkpt lat="43.92085" lon="5.1283">
        <ele>88.7</ele>
        <time>2015-11-15T15:20:59Z</time>
      </trkpt>
      <trkpt lat="43.92079" lon="5.12843">
        <ele>88.8</ele>
        <time>2015-11-15T15:21:04Z</time>
      </trkpt>
      <trkpt lat="43.92071" lon="5.12852">
        <ele>89.3</ele>
        <time>2015-11-15T15:21:09Z</time>
      </trkpt>
      <trkpt lat="43.92061" lon="5.12852">
        <ele>89.4</ele>
        <time>2015-11-15T15:21:13Z</time>
      </trkpt>
      <trkpt lat="43.92053" lon="5.12833">
        <ele>89</ele>
        <time>2015-11-15T15:21:19Z</time>
      </trkpt>
      <trkpt lat="43.92045" lon="5.12826">
        <ele>89.4</ele>
        <time>2015-11-15T15:21:24Z</time>
      </trkpt>
      <trkpt lat="43.92036" lon="5.12823">
        <ele>89.4</ele>
        <time>2015-11-15T15:21:32Z</time>
      </trkpt>
      <trkpt lat="43.92029" lon="5.12814">
        <ele>89.4</ele>
        <time>2015-11-15T15:21:39Z</time>
      </trkpt>
      <trkpt lat="43.92021" lon="5.12808">
        <ele>89.1</ele>
        <time>2015-11-15T15:21:45Z</time>
      </trkpt>
      <trkpt lat="43.92011" lon="5.12808">
        <ele>89</ele>
        <time>2015-11-15T15:21:50Z</time>
      </trkpt>
      <trkpt lat="43.92003" lon="5.12799">
        <ele>88.9</ele>
        <time>2015-11-15T15:21:56Z</time>
      </trkpt>
      <trkpt lat="43.91994" lon="5.12792">
        <ele>88.8</ele>
        <time>2015-11-15T15:22:03Z</time>
      </trkpt>
      <trkpt lat="43.91985" lon="5.12788">
        <ele>88.7</ele>
        <time>2015-11-15T15:22:09Z</time>
      </trkpt>
      <trkpt lat="43.91975" lon="5.12785">
        <ele>88.7</ele>
        <time>2015-11-15T15:22:16Z</time>
      </trkpt>
      <trkpt lat="43.91965" lon="5.1278">
        <ele>88.6</ele>
        <time>2015-11-15T15:22:21Z</time>
      </trkpt>
      <trkpt lat="43.91956" lon="5.12775">
        <ele>88.6</ele>
        <time>2015-11-15T15:22:29Z</time>
      </trkpt>
      <trkpt lat="43.91945" lon="5.12771">
        <ele>88.5</ele>
        <time>2015-11-15T15:22:35Z</time>
      </trkpt>
      <trkpt lat="43.91944" lon="5.12757">
        <ele>88.5</ele>
        <time>2015-11-15T15:22:41Z</time>
      </trkpt>
      <trkpt lat="43.91941" lon="5.12743">
        <ele>88.5</ele>
        <time>2015-11-15T15:22:47Z</time>
      </trkpt>
      <trkpt lat="43.91933" lon="5.12736">
        <ele>88.4</ele>
        <time>2015-11-15T15:22:53Z</time>
      </trkpt>
      <trkpt lat="43.91923" lon="5.12728">
        <ele>88.2</ele>
        <time>2015-11-15T15:23:02Z</time>
      </trkpt>
      <trkpt lat="43.91918" lon="5.12717">
        <ele>88.1</ele>
        <time>2015-11-15T15:23:08Z</time>
      </trkpt>
      <trkpt lat="43.91909" lon="5.12713">
        <ele>88</ele>
        <time>2015-11-15T15:23:19Z</time>
      </trkpt>
      <trkpt lat="43.91908" lon="5.127">
        <ele>88</ele>
        <time>2015-11-15T15:23:25Z</time>
      </trkpt>
      <trkpt lat="43.91917" lon="5.12694">
        <ele>88</ele>
        <time>2015-11-15T15:23:33Z</time>
      </trkpt>
      <trkpt lat="43.91927" lon="5.12701">
        <ele>87.9</ele>
        <time>2015-11-15T15:23:38Z</time>
      </trkpt>
      <trkpt lat="43.91936" lon="5.12703">
        <ele>87.1</ele>
        <time>2015-11-15T15:24:13Z</time>
      </trkpt>
      <trkpt lat="43.91936" lon="5.12703">
        <ele>87.1</ele>
        <time>2015-11-15T15:24:14Z</time>
      </trkpt>
    </trkseg>
  </trk>
</gpx>